[[{"header":{"parameterUnit":"m.s-1","parameterCategory":1,"la1":31.0,"la2":29.5877,"lo1":-88.7671,"lo2":-86.6584,"dy":0.0162,"dx":0.0185,"nx":115,"ny":88,"refTime":"2023-04-02T06:00:00:Z","depth":0,"parameterNumber":2,"parameterNumberName":"U-component_of_WINDS"},"data":[0.0,0.0,0.0,0.0,0.0,0.0,0.0,0.0,0.0,0.0,0.0,0.0,0.0,0.0,0.0,0.0,0.0,0.0,0.0,0.0,0.0,0.0,0.0,0.0,0.0,0.0,0.0,0.0,0.0,0.0,0.0,0.0,0.0,0.0,0.0,0.0,0.0,0.0,0.0,0.0,0.0,0.0,0.0,0.0,0.0,0.0,0.0,0.0,0.0,0.0,0.0,0.0,0.0,0.0,0.0,0.0,0.0,0.0,0.0,0.0,0.0,0.0,0.0,0.0,0.0,0.0,0.0,0.0,0.0,0.0,0.0,0.0,0.0,0.0,0.0,0.0,0.0,0.0,0.0,0.0,0.0,0.0,0.0,0.0,0.0,0.0,0.0,0.0,0.0,0.0,0.0,0.0,0.0,0.0,0.0,0.0,0.0,0.0,0.0,0.0,0.0,0.0,0.0,0.0,0.0,0.0,0.0,0.0,0.0,0.0,0.0,0.0,0.0,0.0,0.0,0.0,0.0,0.0,0.0,0.0,0.0,0.0,0.0,0.0,0.0,0.0,0.0,0.0,0.0,0.0,0.0,0.0,0.0,0.0,0.0,0.0,0.0,0.0,0.0,0.0,0.0,0.0,0.0,0.0,0.0,0.0,0.0,0.0,0.0,0.0,0.0,0.0,0.0,0.0,0.0,0.0,0.0,0.0,0.0,0.0,0.0,0.0,0.0,0.0,0.0,0.0,0.0,0.0,0.0,0.0,0.0,0.0,0.0,0.0,0.0,0.0,0.0,0.0,0.0,0.0,0.0,0.0,0.0,0.0,0.0,0.0,0.0,0.0,0.0,0.0,0.0,0.0,0.0,0.0,0.0,0.0,0.0,0.0,0.0,0.0,0.0,0.0,0.0,0.0,0.0,0.0,0.0,0.0,0.0,0.0,0.0,0.0,0.0,0.0,0.0,0.0,0.0,0.0,0.0,0.0,0.0,0.0,0.0,0.0,0.0,0.0,0.0,0.0,0.0,0.0,0.0,0.0,0.0,0.0,0.0,0.0,0.0,0.0,0.0,0.0,0.0,0.0,0.0,0.0,0.0,0.0,0.0,0.0,0.0,0.0,0.0,0.0,0.0,0.0,0.0,0.0,0.0,0.0,0.0,0.0,0.0,0.0,0.0,0.0,0.0,0.0,0.0,0.0,0.0,0.0,0.0,0.0,0.0,0.0,0.0,0.0,0.0,0.0,0.0,0.0,0.0,0.0,0.0,0.0,0.0,0.0,0.0,0.0,0.0,0.0,0.0,0.0,0.0,0.0,0.0,0.0,0.0,0.0,0.0,0.0,0.0,0.0,0.0,0.0,0.0,0.0,0.0,0.0,0.0,0.0,0.0,0.0,0.0,0.0,0.0,0.0,0.0,0.0,0.0,0.0,0.0,0.0,0.0,0.0,0.0,0.0,0.0,0.0,0.0,0.0,0.0,0.0,0.0,0.0,0.0,0.0,0.0,0.0,0.0,0.0,0.0,0.0,0.0,0.0,0.0,0.0,0.0,0.0,0.0,0.0,0.0,0.0,0.0,0.0,0.0,0.0,0.0,0.0,0.0,0.0,0.0,0.0,0.0,0.0,0.0,0.0,0.0,0.0,0.0,0.0,0.0,0.0,0.0,0.0,0.0,0.0,0.0,0.0,0.0,0.0,0.0,0.0,0.0,0.0,0.0,0.0,0.0,0.0,0.0,0.0,0.0,0.0,0.0,0.0,0.0,0.0,0.0,0.0,0.0,0.0,0.0,0.0,0.0,0.0,0.0,0.0,0.0,0.0,0.0,0.0,0.0,0.0,0.0,0.0,0.0,0.0,0.0,0.0,0.0,0.0,0.0,0.0,0.0,0.0,0.0,0.0,0.0,0.0,0.0,0.0,0.0,0.0,0.0,0.0,0.0,0.0,0.0,0.0,0.0,0.0,0.0,0.0,0.0,0.0,0.0,0.0,0.0,0.0,0.0,0.0,0.0,0.0,0.0,0.0,0.0,0.0,0.0,0.0,0.0,0.0,0.0,0.0,0.0,0.0,0.0,0.0,0.0,0.0,0.0,0.0,0.0,0.0,0.0,0.0,0.0,0.0,0.0,0.0,0.0,0.0,0.0,0.0,0.0,0.0,0.0,0.0,0.0,0.0,0.0,0.0,0.0,0.0,0.0,0.0,0.0,0.0,0.0,0.0,0.0,0.0,0.0,0.0,0.0,0.0,0.0,0.0,0.0,0.0,0.0,0.0,0.0,0.0,0.0,0.0,0.0,0.0,0.0,0.0,0.0,0.0,0.0,0.0,0.0,0.0,0.0,0.0,0.0,0.0,0.0,0.0,0.0,0.0,0.0,0.0,0.0,0.0,0.0,0.0,0.0,0.0,0.0,0.0,0.0,0.0,0.0,0.0,0.0,0.0,0.0,0.0,0.0,0.0,0.0,0.0,0.0,0.0,0.0,0.0,0.0,0.0,0.0,0.0,0.0,0.0,0.0,0.0,0.0,0.0,0.0,0.0,0.0,0.0,0.0,0.0,0.0,0.0,0.0,0.0,0.0,0.0,0.0,0.0,0.0,0.0,0.0,0.0,0.0,0.0,0.0,0.0,0.0,0.0,0.0,0.0,0.0,0.0,0.0,0.0,0.0,0.0,0.0,0.0,0.0,0.0,0.0,0.0,0.0,0.0,0.0,0.0,0.0,0.0,0.0,0.0,0.0,0.0,0.0,0.0,0.0,0.0,0.0,0.0,0.0,0.0,0.0,0.0,0.0,0.0,0.0,0.0,0.0,0.0,0.0,0.0,0.0,0.0,0.0,0.0,0.0,0.0,0.0,0.0,0.0,0.0,0.0,0.0,0.0,0.0,0.0,0.0,0.0,0.0,0.0,0.0,0.0,0.0,0.0,0.0,0.0,0.0,0.0,0.0,0.0,0.0,0.0,0.0,0.0,0.0,0.0,0.0,0.0,0.0,0.0,0.0,0.0,0.0,0.0,0.0,0.0,0.0,0.0,0.0,0.0,0.0,0.0,0.0,0.0,0.0,0.0,0.0,0.0,0.0,0.0,0.0,0.0,0.0,0.0,0.0,0.0,0.0,0.0,0.0,0.0,0.0,0.0,0.0,0.0,0.0,0.0,0.0,0.0,0.0,0.0,0.0,0.0,0.0,0.0,0.0,0.0,0.0,0.0,0.0,0.0,0.0,0.0,0.0,0.0,0.0,0.0,0.0,0.0,0.0,0.0,0.0,0.0,0.0,0.0,0.0,0.0,0.0,0.0,0.0,0.0,0.0,0.0,0.0,0.0,0.0,0.0,0.0,0.0,0.0,0.0,0.0,0.0,0.0,0.0,0.0,0.0,0.0,0.0,0.0,0.0,0.0,0.0,0.0,0.0,0.0,0.0,0.0,0.0,0.0,0.0,0.0,0.0,0.0,0.0,0.0,0.0,0.0,0.0,0.0,0.0,0.0,0.0,0.0,0.0,0.0,0.0,0.0,0.0,0.0,0.0,0.0,0.0,0.0,0.0,0.0,0.0,0.0,0.0,0.0,0.0,0.0,0.0,0.0,0.0,0.0,0.0,0.0,0.0,0.0,0.0,0.0,0.0,0.0,0.0,0.0,0.0,0.0,0.0,0.0,0.0,0.0,0.0,0.0,0.0,0.0,0.0,0.0,0.0,0.0,0.0,0.0,0.0,0.0,0.0,0.0,0.0,0.0,0.0,0.0,0.0,0.0,0.0,0.0,0.0,0.0,0.0,0.0,0.0,0.0,0.0,0.0,0.0,0.0,0.0,0.0,0.0,0.0,0.0,0.0,0.0,0.0,0.0,0.0,0.0,0.0,0.0,0.0,0.0,0.0,0.0,0.0,0.0,0.0,0.0,0.0,0.0,0.0,0.0,0.0,0.0,0.0,0.0,0.0,0.0,0.0,0.0,0.0,0.0,0.0,0.0,0.0,0.0,0.0,0.0,0.0,0.0,0.0,0.0,0.0,0.0,0.0,0.0,0.0,0.0,0.0,0.0,0.0,0.0,0.0,0.0,0.0,0.0,0.0,0.0,0.0,0.0,0.0,0.0,0.0,0.0,0.0,0.0,0.0,0.0,0.0,0.0,0.0,0.0,0.0,0.0,0.0,0.0,0.0,0.0,0.0,0.0,0.0,0.0,0.0,0.0,0.0,0.0,0.0,0.0,0.0,0.0,0.0,0.0,0.0,0.0,0.0,0.0,0.0,0.0,0.0,0.0,0.0,0.0,0.0,0.0,0.0,0.0,0.0,-2.4423,0.0,0.0,0.0,0.0,0.0,0.0,0.0,0.0,0.0,0.0,0.0,0.0,0.0,0.0,0.0,0.0,0.0,0.0,0.0,0.0,0.0,0.0,0.0,0.0,0.0,0.0,0.0,0.0,0.0,0.0,0.0,0.0,0.0,0.0,0.0,0.0,0.0,0.0,0.0,0.0,0.0,0.0,0.0,0.0,0.0,0.0,0.0,0.0,0.0,0.0,0.0,0.0,0.0,0.0,0.0,0.0,0.0,0.0,0.0,0.0,0.0,0.0,0.0,0.0,0.0,0.0,0.0,0.0,0.0,0.0,0.0,0.0,0.0,0.0,0.0,0.0,0.0,0.0,0.0,0.0,0.0,0.0,0.0,0.0,0.0,0.0,0.0,0.0,0.0,0.0,0.0,0.0,0.0,0.0,0.0,0.0,0.0,0.0,0.0,0.0,0.0,0.0,0.0,0.0,0.0,0.0,0.0,0.0,0.0,0.0,-2.6801,-2.6764,-2.5029,-2.4086,-2.4152,0.0,0.0,0.0,0.0,0.0,0.0,0.0,0.0,0.0,0.0,0.0,0.0,0.0,0.0,0.0,0.0,0.0,0.0,0.0,0.0,0.0,0.0,0.0,0.0,0.0,0.0,0.0,0.0,0.0,0.0,0.0,0.0,0.0,0.0,0.0,0.0,0.0,0.0,0.0,0.0,0.0,0.0,0.0,0.0,0.0,0.0,0.0,0.0,0.0,0.0,0.0,0.0,0.0,0.0,0.0,0.0,0.0,0.0,0.0,0.0,0.0,0.0,0.0,0.0,0.0,0.0,0.0,0.0,0.0,0.0,0.0,0.0,0.0,0.0,0.0,0.0,0.0,0.0,0.0,0.0,0.0,0.0,0.0,0.0,0.0,0.0,0.0,0.0,0.0,0.0,0.0,0.0,0.0,0.0,0.0,0.0,0.0,0.0,0.0,0.0,0.0,0.0,0.0,0.0,0.0,0.0,0.0,0.0,0.0,0.0,0.0,0.0,-2.4589,-2.3611,-2.3772,0.0,0.0,0.0,0.0,0.0,0.0,0.0,0.0,0.0,0.0,0.0,0.0,0.0,0.0,0.0,0.0,0.0,0.0,0.0,0.0,0.0,0.0,0.0,0.0,0.0,0.0,0.0,0.0,0.0,0.0,0.0,0.0,0.0,0.0,0.0,0.0,0.0,0.0,0.0,0.0,0.0,0.0,0.0,0.0,0.0,0.0,0.0,0.0,0.0,0.0,0.0,0.0,0.0,0.0,0.0,0.0,0.0,0.0,0.0,0.0,0.0,0.0,0.0,0.0,0.0,0.0,0.0,0.0,0.0,0.0,0.0,0.0,0.0,0.0,0.0,0.0,0.0,0.0,0.0,0.0,0.0,0.0,0.0,0.0,0.0,0.0,0.0,0.0,0.0,0.0,0.0,0.0,0.0,0.0,0.0,0.0,0.0,0.0,0.0,0.0,0.0,0.0,0.0,0.0,0.0,0.0,0.0,0.0,0.0,0.0,-2.7164,-2.5835,-2.5345,0.0,-2.3037,0.0,0.0,0.0,0.0,0.0,0.0,0.0,0.0,0.0,0.0,0.0,0.0,0.0,0.0,0.0,0.0,0.0,0.0,0.0,0.0,0.0,0.0,0.0,0.0,0.0,0.0,0.0,0.0,0.0,0.0,0.0,0.0,0.0,0.0,0.0,0.0,0.0,0.0,0.0,0.0,0.0,0.0,0.0,0.0,0.0,0.0,0.0,0.0,0.0,0.0,0.0,0.0,0.0,0.0,0.0,0.0,0.0,0.0,0.0,0.0,0.0,0.0,0.0,0.0,0.0,0.0,0.0,0.0,0.0,0.0,0.0,0.0,0.0,0.0,0.0,0.0,0.0,0.0,0.0,0.0,0.0,0.0,0.0,0.0,0.0,0.0,0.0,0.0,0.0,0.0,0.0,0.0,0.0,0.0,0.0,0.0,0.0,0.0,0.0,0.0,0.0,0.0,0.0,0.0,0.0,0.0,0.0,0.0,0.0,0.0,-2.7008,-2.6353,-2.5253,-2.4082,0.0,0.0,0.0,0.0,0.0,0.0,0.0,0.0,0.0,0.0,0.0,0.0,0.0,0.0,0.0,0.0,0.0,0.0,0.0,0.0,0.0,0.0,0.0,0.0,0.0,0.0,0.0,0.0,0.0,0.0,0.0,0.0,0.0,0.0,0.0,0.0,0.0,0.0,0.0,0.0,0.0,0.0,0.0,0.0,0.0,0.0,0.0,0.0,0.0,0.0,0.0,0.0,0.0,0.0,0.0,0.0,0.0,0.0,0.0,0.0,0.0,0.0,0.0,0.0,0.0,0.0,0.0,0.0,0.0,0.0,0.0,0.0,0.0,0.0,0.0,0.0,0.0,0.0,0.0,0.0,0.0,0.0,0.0,0.0,0.0,0.0,0.0,0.0,0.0,0.0,0.0,0.0,0.0,0.0,0.0,0.0,0.0,0.0,0.0,0.0,0.0,0.0,0.0,0.0,0.0,0.0,0.0,0.0,0.0,0.0,-2.7571,-2.6879,-2.6351,-2.4967,-2.3768,-2.2898,0.0,0.0,0.0,0.0,0.0,0.0,0.0,0.0,0.0,0.0,0.0,0.0,0.0,0.0,0.0,0.0,0.0,0.0,0.0,0.0,0.0,0.0,0.0,0.0,0.0,0.0,0.0,0.0,0.0,0.0,0.0,0.0,0.0,0.0,0.0,0.0,0.0,0.0,0.0,0.0,0.0,0.0,0.0,0.0,0.0,0.0,0.0,0.0,0.0,0.0,0.0,0.0,0.0,0.0,0.0,0.0,0.0,0.0,0.0,0.0,0.0,0.0,0.0,0.0,0.0,0.0,0.0,0.0,0.0,0.0,0.0,0.0,0.0,0.0,0.0,0.0,0.0,0.0,0.0,0.0,0.0,0.0,0.0,0.0,0.0,0.0,0.0,0.0,0.0,0.0,0.0,0.0,0.0,0.0,0.0,0.0,0.0,0.0,0.0,0.0,0.0,0.0,0.0,0.0,0.0,0.0,0.0,0.0,-2.8393,-2.8083,-2.712,-2.5439,-2.4553,-2.3689,0.0,0.0,0.0,0.0,0.0,0.0,0.0,0.0,0.0,0.0,0.0,0.0,0.0,0.0,0.0,0.0,0.0,0.0,0.0,0.0,0.0,0.0,0.0,0.0,0.0,0.0,0.0,0.0,0.0,0.0,0.0,0.0,0.0,0.0,0.0,0.0,0.0,0.0,0.0,0.0,0.0,0.0,0.0,0.0,0.0,0.0,0.0,0.0,0.0,0.0,0.0,0.0,0.0,0.0,0.0,0.0,0.0,0.0,0.0,0.0,0.0,0.0,0.0,0.0,0.0,0.0,0.0,0.0,0.0,0.0,0.0,0.0,0.0,0.0,0.0,0.0,0.0,0.0,0.0,0.0,0.0,0.0,0.0,0.0,0.0,0.0,0.0,0.0,0.0,0.0,0.0,0.0,0.0,0.0,0.0,0.0,0.0,0.0,0.0,0.0,0.0,0.0,0.0,0.0,0.0,0.0,0.0,0.0,0.0,-2.8505,-2.7732,-2.6721,-2.5539,-2.4625,-2.3785,0.0,0.0,0.0,0.0,0.0,0.0,0.0,0.0,0.0,0.0,0.0,0.0,0.0,0.0,0.0,0.0,0.0,0.0,0.0,0.0,0.0,0.0,0.0,0.0,0.0,0.0,0.0,0.0,0.0,0.0,0.0,0.0,0.0,0.0,0.0,0.0,0.0,0.0,0.0,0.0,0.0,0.0,0.0,0.0,0.0,0.0,0.0,0.0,0.0,0.0,0.0,0.0,0.0,0.0,0.0,0.0,0.0,0.0,0.0,0.0,0.0,0.0,0.0,0.0,0.0,0.0,0.0,0.0,0.0,0.0,0.0,0.0,0.0,0.0,0.0,0.0,0.0,0.0,0.0,0.0,0.0,0.0,0.0,0.0,0.0,0.0,0.0,0.0,0.0,0.0,0.0,0.0,0.0,0.0,0.0,0.0,0.0,0.0,0.0,0.0,0.0,0.0,0.0,0.0,0.0,0.0,0.0,0.0,0.0,-2.8471,0.0,-2.6757,-2.5579,-2.491,-2.4038,0.0,0.0,0.0,0.0,0.0,0.0,0.0,0.0,0.0,0.0,0.0,0.0,0.0,0.0,0.0,0.0,0.0,0.0,0.0,0.0,0.0,0.0,0.0,0.0,0.0,0.0,0.0,0.0,0.0,0.0,0.0,0.0,0.0,0.0,0.0,0.0,0.0,0.0,0.0,0.0,0.0,0.0,0.0,0.0,0.0,0.0,0.0,0.0,0.0,0.0,0.0,0.0,0.0,0.0,0.0,0.0,0.0,0.0,0.0,0.0,0.0,0.0,0.0,0.0,0.0,0.0,0.0,0.0,0.0,0.0,0.0,0.0,0.0,0.0,0.0,0.0,0.0,0.0,0.0,0.0,0.0,0.0,0.0,0.0,0.0,0.0,0.0,0.0,0.0,0.0,0.0,0.0,0.0,0.0,0.0,0.0,0.0,0.0,0.0,0.0,0.0,0.0,0.0,0.0,0.0,0.0,0.0,0.0,-2.8612,-2.8223,-2.816,-2.7267,-2.5485,-2.5312,-2.4487,0.0,0.0,0.0,0.0,0.0,0.0,0.0,0.0,0.0,0.0,0.0,0.0,0.0,0.0,0.0,0.0,0.0,0.0,0.0,0.0,0.0,0.0,0.0,0.0,0.0,0.0,0.0,0.0,0.0,0.0,0.0,0.0,0.0,0.0,0.0,0.0,0.0,0.0,0.0,0.0,0.0,0.0,0.0,0.0,0.0,0.0,0.0,0.0,0.0,0.0,0.0,0.0,0.0,0.0,0.0,0.0,0.0,0.0,0.0,0.0,0.0,0.0,0.0,0.0,0.0,0.0,0.0,0.0,0.0,0.0,0.0,0.0,0.0,0.0,0.0,0.0,0.0,0.0,0.0,0.0,0.0,0.0,0.0,0.0,0.0,0.0,0.0,0.0,0.0,0.0,0.0,0.0,0.0,0.0,0.0,0.0,0.0,0.0,0.0,0.0,0.0,0.0,0.0,0.0,0.0,0.0,0.0,0.0,0.0,-2.8471,-2.7797,-2.7147,-2.649,-2.5227,-2.427,0.0,0.0,0.0,0.0,0.0,0.0,0.0,0.0,0.0,0.0,0.0,0.0,0.0,0.0,0.0,0.0,0.0,0.0,0.0,0.0,0.0,0.0,0.0,0.0,0.0,0.0,0.0,0.0,0.0,0.0,0.0,0.0,0.0,0.0,0.0,0.0,0.0,0.0,0.0,0.0,0.0,0.0,0.0,0.0,0.0,0.0,0.0,0.0,0.0,0.0,0.0,0.0,0.0,0.0,0.0,0.0,0.0,0.0,0.0,0.0,0.0,0.0,0.0,0.0,0.0,0.0,0.0,0.0,0.0,0.0,0.0,0.0,0.0,0.0,0.0,0.0,0.0,0.0,0.0,0.0,0.0,0.0,0.0,0.0,0.0,0.0,0.0,0.0,0.0,0.0,0.0,0.0,0.0,0.0,0.0,0.0,0.0,0.0,0.0,0.0,0.0,0.0,0.0,0.0,0.0,0.0,0.0,0.0,0.0,-2.9021,-2.8391,-2.7834,-2.7397,-2.6233,-2.5102,-2.4142,0.0,0.0,0.0,0.0,0.0,0.0,0.0,0.0,0.0,0.0,0.0,0.0,0.0,0.0,0.0,0.0,0.0,0.0,0.0,0.0,0.0,0.0,0.0,0.0,0.0,0.0,0.0,0.0,0.0,0.0,0.0,0.0,0.0,0.0,0.0,0.0,0.0,0.0,0.0,0.0,0.0,0.0,0.0,0.0,0.0,0.0,0.0,0.0,0.0,0.0,0.0,0.0,0.0,0.0,0.0,0.0,0.0,0.0,0.0,0.0,0.0,0.0,0.0,0.0,0.0,0.0,0.0,0.0,0.0,0.0,0.0,0.0,0.0,0.0,0.0,0.0,0.0,0.0,0.0,0.0,0.0,0.0,0.0,0.0,0.0,0.0,0.0,0.0,0.0,0.0,0.0,0.0,0.0,0.0,0.0,0.0,0.0,0.0,0.0,0.0,0.0,0.0,0.0,0.0,0.0,0.0,0.0,0.0,-2.9867,-2.9787,-2.9263,-2.8283,-2.8,-2.6771,0.0,0.0,0.0,0.0,0.0,0.0,0.0,0.0,0.0,0.0,0.0,0.0,0.0,0.0,0.0,0.0,0.0,0.0,0.0,0.0,0.0,0.0,0.0,0.0,0.0,0.0,0.0,0.0,0.0,0.0,0.0,0.0,0.0,0.0,0.0,0.0,0.0,0.0,0.0,0.0,0.0,0.0,0.0,0.0,0.0,0.0,0.0,0.0,0.0,0.0,0.0,0.0,0.0,0.0,0.0,0.0,0.0,0.0,0.0,0.0,0.0,0.0,0.0,0.0,0.0,0.0,0.0,0.0,0.0,0.0,0.0,0.0,0.0,0.0,0.0,0.0,0.0,0.0,0.0,0.0,0.0,0.0,0.0,0.0,0.0,0.0,0.0,0.0,0.0,0.0,0.0,0.0,0.0,0.0,0.0,0.0,0.0,0.0,0.0,0.0,0.0,0.0,0.0,0.0,0.0,0.0,0.0,0.0,0.0,-3.073,-3.1205,-3.0948,-2.989,-2.8642,-2.7632,0.0,0.0,0.0,0.0,0.0,0.0,0.0,0.0,0.0,0.0,0.0,0.0,0.0,0.0,0.0,0.0,0.0,0.0,0.0,0.0,0.0,0.0,0.0,0.0,0.0,0.0,0.0,0.0,0.0,0.0,0.0,0.0,0.0,0.0,0.0,0.0,0.0,0.0,0.0,0.0,0.0,0.0,0.0,0.0,0.0,0.0,0.0,0.0,0.0,0.0,0.0,0.0,0.0,0.0,0.0,0.0,0.0,0.0,0.0,0.0,0.0,0.0,0.0,0.0,0.0,0.0,0.0,0.0,0.0,0.0,0.0,0.0,0.0,0.0,0.0,0.0,0.0,0.0,0.0,0.0,0.0,0.0,0.0,0.0,0.0,0.0,0.0,0.0,0.0,0.0,0.0,0.0,0.0,0.0,0.0,0.0,0.0,0.0,0.0,0.0,0.0,0.0,0.0,0.0,0.0,0.0,0.0,0.0,-3.0665,-3.1097,-3.2101,-3.2283,-3.1616,-2.9967,-2.8716,0.0,0.0,0.0,0.0,0.0,0.0,0.0,0.0,0.0,0.0,0.0,0.0,0.0,0.0,0.0,0.0,0.0,0.0,0.0,0.0,0.0,0.0,0.0,0.0,0.0,0.0,0.0,0.0,0.0,0.0,0.0,0.0,0.0,0.0,0.0,0.0,0.0,0.0,0.0,0.0,0.0,0.0,0.0,0.0,0.0,0.0,0.0,0.0,0.0,0.0,0.0,0.0,0.0,0.0,0.0,0.0,0.0,0.0,0.0,0.0,0.0,0.0,0.0,0.0,0.0,0.0,0.0,0.0,0.0,0.0,0.0,0.0,0.0,0.0,0.0,0.0,0.0,0.0,0.0,0.0,0.0,0.0,0.0,0.0,0.0,0.0,0.0,0.0,0.0,0.0,0.0,0.0,0.0,0.0,0.0,0.0,0.0,0.0,0.0,0.0,0.0,0.0,0.0,0.0,0.0,0.0,0.0,0.0,-3.1318,-3.127,-3.269,-3.3349,-3.3096,-3.1506,-2.9893,0.0,0.0,0.0,0.0,0.0,0.0,0.0,0.0,0.0,0.0,0.0,0.0,0.0,0.0,0.0,0.0,0.0,0.0,0.0,0.0,0.0,0.0,0.0,0.0,0.0,0.0,0.0,0.0,0.0,0.0,0.0,0.0,0.0,0.0,0.0,0.0,0.0,0.0,0.0,0.0,0.0,0.0,0.0,0.0,0.0,0.0,0.0,0.0,0.0,0.0,0.0,0.0,0.0,0.0,0.0,0.0,0.0,0.0,0.0,0.0,0.0,0.0,0.0,0.0,0.0,0.0,0.0,0.0,0.0,0.0,0.0,0.0,0.0,0.0,0.0,0.0,0.0,0.0,0.0,0.0,0.0,0.0,0.0,0.0,0.0,0.0,0.0,0.0,0.0,0.0,0.0,0.0,0.0,0.0,0.0,0.0,0.0,0.0,0.0,0.0,0.0,0.0,0.0,0.0,0.0,0.0,0.0,0.0,-3.2266,-3.2237,-3.3629,-3.4072,-3.3334,-3.1654,-3.0539,0.0,0.0,0.0,0.0,0.0,0.0,0.0,0.0,0.0,0.0,0.0,0.0,0.0,0.0,0.0,0.0,0.0,0.0,0.0,0.0,0.0,0.0,0.0,0.0,0.0,0.0,0.0,0.0,0.0,0.0,0.0,0.0,0.0,0.0,0.0,0.0,0.0,0.0,0.0,0.0,0.0,0.0,0.0,0.0,0.0,0.0,0.0,0.0,-2.5551,0.0,0.0,0.0,0.0,0.0,0.0,0.0,0.0,0.0,0.0,0.0,0.0,0.0,0.0,0.0,0.0,0.0,0.0,0.0,0.0,0.0,0.0,0.0,0.0,0.0,0.0,0.0,0.0,0.0,0.0,0.0,0.0,0.0,0.0,0.0,0.0,0.0,0.0,0.0,0.0,0.0,0.0,0.0,0.0,0.0,0.0,0.0,0.0,0.0,0.0,0.0,0.0,0.0,0.0,0.0,0.0,0.0,0.0,0.0,-3.338,-3.3643,-3.4367,-3.4532,-3.4018,-3.2397,-3.1229,0.0,0.0,0.0,0.0,0.0,0.0,0.0,0.0,0.0,0.0,0.0,0.0,0.0,0.0,0.0,0.0,0.0,0.0,0.0,0.0,0.0,0.0,0.0,0.0,0.0,0.0,0.0,0.0,0.0,0.0,0.0,0.0,0.0,0.0,0.0,0.0,0.0,0.0,0.0,0.0,0.0,0.0,0.0,0.0,0.0,0.0,0.0,0.0,0.0,0.0,0.0,0.0,0.0,0.0,0.0,0.0,0.0,0.0,0.0,0.0,0.0,0.0,0.0,0.0,0.0,0.0,0.0,0.0,0.0,0.0,0.0,0.0,0.0,0.0,0.0,0.0,0.0,0.0,0.0,0.0,0.0,0.0,0.0,0.0,0.0,0.0,0.0,0.0,0.0,0.0,0.0,0.0,0.0,0.0,0.0,0.0,0.0,0.0,0.0,0.0,0.0,0.0,0.0,0.0,0.0,0.0,0.0,-3.3537,-3.4515,-3.5109,-3.517,-3.5089,-3.4801,-3.3431,-3.2123,-3.0918,0.0,0.0,0.0,0.0,0.0,0.0,0.0,0.0,0.0,0.0,0.0,0.0,0.0,0.0,0.0,0.0,0.0,0.0,0.0,0.0,0.0,0.0,0.0,0.0,0.0,0.0,0.0,0.0,0.0,0.0,0.0,0.0,0.0,0.0,0.0,0.0,0.0,0.0,-2.9145,-2.9245,0.0,0.0,0.0,0.0,0.0,0.0,0.0,0.0,-2.688,0.0,0.0,0.0,0.0,0.0,0.0,0.0,0.0,0.0,0.0,0.0,0.0,0.0,0.0,0.0,0.0,0.0,0.0,0.0,0.0,0.0,0.0,0.0,0.0,0.0,0.0,0.0,0.0,0.0,0.0,0.0,0.0,0.0,0.0,0.0,0.0,0.0,0.0,0.0,0.0,0.0,0.0,0.0,0.0,0.0,0.0,0.0,0.0,0.0,0.0,0.0,0.0,0.0,0.0,0.0,0.0,-3.4065,-3.4791,-3.5491,-3.6149,-3.6699,-3.6296,-3.4942,-3.4617,-3.3456,-3.1321,0.0,0.0,0.0,0.0,0.0,0.0,0.0,0.0,0.0,0.0,0.0,0.0,0.0,0.0,0.0,0.0,0.0,0.0,0.0,0.0,0.0,0.0,0.0,0.0,0.0,0.0,0.0,0.0,0.0,0.0,0.0,0.0,0.0,0.0,0.0,0.0,0.0,0.0,0.0,-2.9701,-2.9867,0.0,0.0,0.0,0.0,0.0,0.0,0.0,0.0,-2.7091,0.0,0.0,0.0,0.0,0.0,0.0,0.0,0.0,0.0,0.0,0.0,0.0,0.0,0.0,0.0,0.0,0.0,0.0,0.0,0.0,0.0,0.0,0.0,0.0,0.0,0.0,0.0,0.0,0.0,0.0,0.0,0.0,0.0,0.0,0.0,0.0,0.0,0.0,0.0,0.0,0.0,0.0,0.0,0.0,0.0,0.0,0.0,0.0,0.0,0.0,0.0,0.0,0.0,0.0,0.0,-3.5109,-3.5783,-3.6639,-3.7649,-3.7595,-3.6967,-3.5711,-3.5294,-3.4113,0.0,0.0,0.0,0.0,0.0,0.0,0.0,0.0,0.0,0.0,0.0,0.0,0.0,0.0,0.0,0.0,0.0,0.0,0.0,0.0,0.0,0.0,0.0,0.0,0.0,0.0,0.0,0.0,0.0,0.0,0.0,0.0,0.0,0.0,0.0,0.0,0.0,0.0,0.0,0.0,-3.0708,-3.0594,-2.9594,0.0,0.0,0.0,0.0,0.0,0.0,-2.8385,-2.7943,0.0,0.0,0.0,0.0,0.0,0.0,0.0,0.0,0.0,0.0,0.0,0.0,0.0,0.0,0.0,0.0,0.0,0.0,0.0,0.0,0.0,0.0,0.0,0.0,0.0,0.0,0.0,0.0,0.0,0.0,0.0,0.0,0.0,0.0,0.0,0.0,0.0,0.0,0.0,0.0,0.0,0.0,0.0,0.0,0.0,0.0,0.0,0.0,0.0,0.0,0.0,0.0,0.0,0.0,0.0,-3.6021,-3.6552,-3.7525,-3.8853,-3.8293,-3.7548,-3.6712,-3.5932,-3.4739,0.0,0.0,0.0,0.0,0.0,0.0,0.0,0.0,0.0,0.0,0.0,0.0,0.0,0.0,0.0,0.0,0.0,0.0,0.0,0.0,0.0,0.0,0.0,0.0,0.0,0.0,0.0,0.0,0.0,0.0,0.0,0.0,0.0,0.0,0.0,0.0,0.0,0.0,0.0,0.0,0.0,-3.1409,-3.0435,-3.0216,0.0,0.0,0.0,0.0,-2.8803,-2.8889,0.0,0.0,0.0,0.0,0.0,0.0,0.0,0.0,0.0,0.0,0.0,0.0,0.0,0.0,0.0,0.0,0.0,0.0,0.0,0.0,0.0,0.0,0.0,0.0,0.0,0.0,0.0,0.0,0.0,0.0,0.0,0.0,0.0,0.0,0.0,0.0,0.0,0.0,0.0,0.0,0.0,0.0,0.0,0.0,0.0,0.0,0.0,0.0,0.0,0.0,0.0,0.0,0.0,0.0,0.0,0.0,-3.7044,-3.702,-3.7704,-3.9077,-3.8957,-3.8474,-3.7641,-3.6936,-3.5751,0.0,0.0,0.0,0.0,0.0,0.0,0.0,0.0,0.0,0.0,0.0,0.0,0.0,0.0,0.0,0.0,0.0,0.0,0.0,0.0,0.0,0.0,0.0,0.0,0.0,0.0,0.0,0.0,0.0,0.0,0.0,0.0,0.0,0.0,0.0,0.0,0.0,0.0,0.0,0.0,0.0,-3.2367,-3.1378,-3.0741,-3.0302,0.0,0.0,-2.8803,-2.8815,-2.921,0.0,0.0,0.0,0.0,0.0,0.0,0.0,0.0,0.0,0.0,0.0,0.0,0.0,0.0,0.0,0.0,0.0,0.0,0.0,0.0,0.0,0.0,0.0,0.0,0.0,0.0,0.0,0.0,0.0,0.0,0.0,0.0,0.0,0.0,0.0,0.0,0.0,0.0,0.0,0.0,0.0,0.0,0.0,0.0,0.0,0.0,0.0,0.0,0.0,0.0,0.0,0.0,0.0,0.0,0.0,-3.6216,-3.7261,-3.7551,-3.8216,-3.9259,-3.9175,-3.8697,-3.7872,-3.7204,-3.6273,0.0,0.0,0.0,0.0,0.0,0.0,0.0,0.0,0.0,0.0,0.0,0.0,0.0,0.0,0.0,0.0,0.0,0.0,0.0,0.0,0.0,0.0,0.0,0.0,0.0,0.0,0.0,0.0,0.0,0.0,0.0,0.0,0.0,0.0,0.0,0.0,0.0,0.0,0.0,0.0,0.0,0.0,-3.2212,-3.1782,0.0,0.0,0.0,-3.0203,-3.032,0.0,0.0,0.0,0.0,0.0,0.0,0.0,0.0,0.0,0.0,0.0,0.0,0.0,0.0,0.0,0.0,0.0,0.0,0.0,0.0,0.0,0.0,0.0,0.0,0.0,0.0,0.0,0.0,0.0,0.0,0.0,0.0,0.0,0.0,0.0,0.0,0.0,0.0,0.0,0.0,0.0,0.0,0.0,0.0,0.0,0.0,0.0,0.0,0.0,0.0,0.0,0.0,0.0,0.0,0.0,0.0,0.0,-3.7657,-3.806,-3.8664,-3.9445,-3.9341,-3.8963,-3.8295,-3.7623,0.0,0.0,0.0,0.0,0.0,0.0,0.0,0.0,0.0,0.0,0.0,0.0,0.0,0.0,0.0,0.0,0.0,0.0,0.0,0.0,0.0,0.0,0.0,0.0,0.0,0.0,0.0,-2.9026,0.0,0.0,0.0,0.0,0.0,0.0,0.0,0.0,0.0,0.0,0.0,0.0,0.0,0.0,-3.4026,-3.3335,-3.2865,-3.2329,0.0,0.0,-3.1271,-3.1352,-3.1229,-3.0966,0.0,0.0,0.0,0.0,0.0,0.0,0.0,0.0,0.0,0.0,0.0,0.0,0.0,0.0,0.0,0.0,0.0,0.0,0.0,0.0,0.0,0.0,0.0,0.0,0.0,0.0,0.0,0.0,0.0,0.0,0.0,0.0,0.0,0.0,0.0,0.0,0.0,0.0,0.0,0.0,0.0,0.0,0.0,0.0,0.0,0.0,0.0,0.0,0.0,0.0,0.0,0.0,0.0,0.0,0.0,-3.866,-3.8548,-3.8874,-3.9644,-3.9546,-3.9406,-3.9279,-3.8476,-3.8035,0.0,0.0,0.0,0.0,0.0,0.0,0.0,0.0,0.0,0.0,0.0,0.0,0.0,0.0,0.0,0.0,0.0,0.0,0.0,0.0,0.0,0.0,0.0,0.0,0.0,0.0,0.0,0.0,0.0,0.0,0.0,0.0,0.0,0.0,0.0,0.0,0.0,0.0,0.0,0.0,0.0,-3.524,-3.5032,-3.3745,-3.2685,0.0,0.0,-3.1302,-3.1075,-3.1448,-3.1567,-3.1116,0.0,0.0,0.0,0.0,0.0,0.0,0.0,0.0,0.0,0.0,0.0,0.0,0.0,0.0,0.0,0.0,0.0,0.0,0.0,0.0,0.0,0.0,0.0,0.0,0.0,0.0,0.0,0.0,0.0,0.0,0.0,0.0,0.0,0.0,0.0,0.0,0.0,0.0,0.0,0.0,0.0,0.0,0.0,0.0,0.0,0.0,0.0,0.0,0.0,0.0,0.0,0.0,0.0,-3.8575,-3.8852,-3.9099,-3.9387,-3.9684,-3.9564,-3.9458,-3.94,-3.8602,-3.8184,0.0,0.0,0.0,0.0,0.0,0.0,0.0,0.0,0.0,0.0,0.0,0.0,0.0,0.0,0.0,0.0,0.0,0.0,0.0,0.0,0.0,0.0,0.0,0.0,0.0,0.0,0.0,0.0,-3.09,-3.1267,-3.2152,0.0,0.0,0.0,0.0,0.0,0.0,0.0,0.0,0.0,0.0,-3.5721,-3.4568,-3.4668,0.0,0.0,-3.3808,-3.3927,-3.2943,-3.3261,-3.3306,-3.2364,-3.2432,0.0,0.0,0.0,0.0,0.0,0.0,0.0,0.0,0.0,0.0,0.0,0.0,0.0,0.0,0.0,0.0,0.0,0.0,0.0,0.0,0.0,0.0,0.0,0.0,0.0,0.0,0.0,0.0,0.0,0.0,0.0,0.0,0.0,0.0,0.0,0.0,0.0,0.0,0.0,0.0,0.0,0.0,0.0,0.0,0.0,0.0,0.0,0.0,0.0,0.0,0.0,0.0,-3.9327,-3.9309,-3.9589,-3.9766,-3.9735,-3.9618,-3.9521,-3.9408,-3.8877,-3.8584,0.0,0.0,0.0,0.0,0.0,0.0,0.0,0.0,0.0,0.0,0.0,0.0,0.0,0.0,0.0,0.0,0.0,0.0,0.0,0.0,0.0,0.0,0.0,0.0,0.0,0.0,0.0,0.0,-3.2163,-3.2663,-3.3583,0.0,0.0,0.0,0.0,0.0,0.0,0.0,0.0,0.0,0.0,-3.6458,-3.5246,-3.5768,-3.5878,-3.4702,-3.5561,-3.5947,-3.4818,-3.4991,-3.4857,-3.3708,0.0,0.0,0.0,0.0,0.0,0.0,0.0,0.0,0.0,0.0,0.0,0.0,0.0,0.0,0.0,0.0,0.0,0.0,0.0,0.0,0.0,0.0,0.0,0.0,0.0,0.0,0.0,0.0,0.0,0.0,-3.9485,0.0,0.0,0.0,0.0,0.0,0.0,0.0,0.0,0.0,0.0,0.0,0.0,0.0,0.0,0.0,0.0,0.0,0.0,0.0,0.0,0.0,0.0,-4.0295,-4.0167,-3.9998,-3.9878,-3.9804,-3.9727,-3.9631,-3.9514,-3.9458,-3.942,-3.9351,0.0,0.0,0.0,0.0,0.0,0.0,0.0,0.0,0.0,0.0,0.0,0.0,0.0,0.0,0.0,0.0,0.0,0.0,0.0,0.0,0.0,0.0,0.0,0.0,0.0,0.0,-3.2355,-3.2888,-3.3644,0.0,0.0,0.0,0.0,0.0,0.0,0.0,0.0,0.0,0.0,-3.7816,-3.7612,-3.7623,-3.7012,-3.6522,-3.6403,-3.6688,-3.6764,-3.6355,-3.6334,-3.6053,0.0,0.0,0.0,0.0,0.0,0.0,0.0,0.0,0.0,0.0,0.0,0.0,0.0,0.0,0.0,0.0,0.0,0.0,0.0,0.0,0.0,0.0,0.0,0.0,0.0,0.0,0.0,-4.2741,-4.1863,0.0,0.0,0.0,0.0,0.0,0.0,0.0,0.0,0.0,0.0,0.0,-3.9862,-3.9314,0.0,0.0,0.0,0.0,0.0,0.0,0.0,0.0,0.0,0.0,0.0,0.0,-4.0896,-4.0299,-4.0109,-4.0015,-3.9943,-3.9856,-3.9766,-3.9647,-3.9545,-3.9471,-3.9401,0.0,0.0,0.0,0.0,0.0,0.0,0.0,0.0,0.0,0.0,0.0,0.0,0.0,0.0,0.0,0.0,0.0,0.0,0.0,0.0,0.0,0.0,0.0,0.0,0.0,-3.3492,0.0,0.0,0.0,0.0,0.0,0.0,0.0,0.0,0.0,0.0,0.0,-3.7997,-3.7343,-3.8171,-3.8443,-3.729,-3.7803,-3.7839,0.0,0.0,0.0,0.0,0.0,0.0,0.0,0.0,0.0,0.0,0.0,0.0,0.0,0.0,-3.0593,-3.006,-2.9865,-2.9605,-2.905,0.0,0.0,0.0,0.0,0.0,0.0,0.0,0.0,0.0,0.0,0.0,0.0,0.0,0.0,-4.3478,0.0,-4.2309,0.0,0.0,0.0,0.0,0.0,0.0,0.0,0.0,-4.0751,-4.0768,-4.1207,-4.0376,-4.0377,0.0,-4.1119,-4.1273,0.0,0.0,0.0,0.0,0.0,0.0,0.0,0.0,-4.1208,-4.1176,-4.0492,-4.024,-4.0433,-4.0084,-3.9856,-3.9728,-3.9587,-3.9477,-3.9439,-3.9496,-3.9551,0.0,0.0,0.0,0.0,0.0,0.0,0.0,0.0,0.0,0.0,0.0,0.0,0.0,0.0,0.0,0.0,0.0,0.0,0.0,0.0,0.0,0.0,0.0,-3.526,0.0,0.0,0.0,0.0,0.0,0.0,0.0,0.0,0.0,-3.7565,-3.8116,-3.8365,-3.7779,-3.8613,-3.8919,-3.791,0.0,0.0,0.0,0.0,0.0,0.0,0.0,-3.7275,-3.6162,-3.5678,-3.5206,-3.4478,-3.3758,-3.3266,-3.326,0.0,0.0,-3.09,-3.062,-3.0356,-2.982,-2.9698,-2.9685,-2.9643,-2.9648,-2.9502,0.0,0.0,0.0,0.0,0.0,0.0,0.0,0.0,-4.5043,-4.4091,0.0,-4.2479,0.0,0.0,0.0,0.0,0.0,-4.1796,0.0,0.0,-4.2193,-4.218,-4.2032,-4.1232,-4.1253,-4.1977,-4.197,-4.2409,-4.3143,-4.1537,0.0,0.0,0.0,0.0,0.0,0.0,-4.1352,-4.2706,-4.116,-4.0604,-4.1222,-4.0417,-3.9897,-3.9804,-3.9611,-3.9508,-3.9489,-3.942,-3.9401,-3.9401,-3.9568,0.0,0.0,0.0,0.0,0.0,0.0,0.0,0.0,0.0,0.0,0.0,0.0,0.0,0.0,0.0,0.0,0.0,0.0,0.0,0.0,-3.739,0.0,0.0,0.0,0.0,0.0,0.0,0.0,0.0,0.0,0.0,-3.8444,-3.8896,-3.9337,-3.9407,0.0,0.0,0.0,0.0,-3.9232,-3.9587,-3.9717,-3.9717,-3.9616,-3.9383,-3.854,-3.6597,0.0,0.0,-3.4907,-3.4338,-3.4012,-3.3979,-3.376,-3.3231,-3.1819,-3.1538,-3.1452,-3.1328,-3.1261,-3.1347,-3.1365,-3.1168,-3.0978,-5.128,0.0,0.0,0.0,0.0,-4.7819,-4.7304,-4.6814,-4.6175,-4.5277,-4.4185,-4.4145,0.0,0.0,0.0,0.0,0.0,0.0,-4.2278,-4.2309,-4.2854,-4.2792,-4.2159,-4.1925,-4.1898,-4.2069,-4.2015,-4.2441,-4.3253,-4.2734,-4.249,-4.2621,0.0,0.0,0.0,0.0,-4.2832,-4.2103,-4.2049,-4.1847,-4.1376,-4.1108,-4.0606,-3.9897,-3.9751,-3.9635,-3.9508,-3.9496,-3.9458,-3.9477,-3.9471,0.0,0.0,0.0,0.0,0.0,0.0,0.0,0.0,0.0,0.0,0.0,0.0,0.0,0.0,0.0,0.0,0.0,0.0,0.0,-3.7315,-3.736,-3.7578,0.0,0.0,0.0,0.0,0.0,0.0,0.0,0.0,0.0,-3.9121,-3.9431,-3.9861,0.0,0.0,-3.992,-4.0571,-3.9896,-3.9285,-3.9205,-3.9219,0.0,0.0,-3.8381,-3.7655,-3.6444,-3.5312,-3.4444,-3.4115,-3.3845,-3.3698,-3.378,-3.3698,-3.3465,-3.3077,-3.2425,-3.1856,-3.1336,-3.1146,-3.1106,-3.1106,-3.1084,-3.0989,-5.2335,-5.1039,-5.0664,-5.005,-4.9281,-4.8787,-4.8222,-4.7572,-4.705,-4.6119,-4.4953,-4.4943,-4.4462,-4.3613,-4.3065,0.0,0.0,0.0,-4.3335,-4.3362,-4.3836,-4.3761,-4.3233,-4.2879,-4.2874,-4.3153,-4.3102,-4.3498,-4.4324,-4.4318,-4.4344,-4.4382,0.0,0.0,-4.2523,-4.3038,-4.3107,-4.2705,-4.246,-4.2192,-4.1922,-4.1244,-4.0561,-3.9919,-3.9848,-3.9758,-3.9587,-3.9551,-3.9539,-3.9539,-3.9502,-3.9582,0.0,0.0,0.0,0.0,0.0,0.0,0.0,0.0,0.0,0.0,0.0,-3.7081,-3.6168,0.0,0.0,0.0,-3.7514,-3.7895,-3.835,-3.8429,0.0,0.0,0.0,0.0,0.0,0.0,0.0,-3.9965,-3.9735,-3.9514,-3.9452,-3.9575,-3.9818,-4.0133,-3.9846,-3.9799,-4.0308,0.0,-3.9151,-3.9008,-3.9008,-3.8894,-3.8597,-3.8175,-3.7616,-3.69,-3.5136,-3.4131,-3.448,-3.4004,-3.3567,-3.3661,-3.3689,-3.3643,-3.3712,-3.32,-3.2651,-3.216,-3.2038,-3.2042,-3.2,-3.1986,-3.1868,-5.3591,-5.2734,-5.1795,-5.0933,-5.0228,-5.0136,-4.9232,-4.7814,-4.7748,-4.6747,-4.5224,-4.5197,-4.4686,-4.3804,-4.3724,0.0,-4.3652,-4.4494,-4.4867,-4.4908,-4.4966,-4.4935,-4.4759,-4.3979,-4.4035,-4.4797,-4.4732,-4.5107,-4.5879,-4.5941,-4.596,-4.5853,-4.4253,-4.3387,-4.3264,-4.2529,-4.281,-4.4159,-4.2726,-4.2231,-4.2782,-4.1166,-4.0217,-4.0035,-4.0006,-3.9913,-3.9731,-3.9635,-3.9611,-3.9599,-3.9618,-3.9618,-3.9623,0.0,0.0,0.0,0.0,0.0,0.0,0.0,0.0,0.0,0.0,0.0,0.0,0.0,0.0,0.0,-3.949,0.0,-3.987,-4.0051,0.0,0.0,0.0,-4.0077,-3.9826,-3.9792,-3.9781,-3.9804,0.0,0.0,-3.9489,-3.9514,-3.9469,-3.9194,-3.9082,-3.912,-3.9346,-3.9129,-3.8917,-3.8957,-3.8924,-3.8868,-3.8651,-3.8308,-3.7894,-3.745,-3.5818,-3.4796,-3.5369,-3.4588,-3.3763,-3.3845,-3.3767,-3.3734,-3.39,-3.377,-3.3689,-3.349,-3.349,-3.3541,-3.3425,-3.3403,-3.3203,-5.4489,-5.3613,-5.273,-5.1871,-5.1035,-5.0369,-4.9875,-4.9442,-4.8805,-4.7914,-4.6911,-4.6889,-4.6065,-4.4614,-4.4607,-4.4228,-4.3635,-4.4499,-4.4883,-4.4926,-4.5589,-4.5521,-4.488,-4.4666,-4.4642,-4.4796,-4.4788,-4.5191,-4.5942,-4.5983,-4.5991,-4.5947,-4.5535,-4.4976,-4.4312,-4.4636,-4.4697,-4.4358,-4.4549,-4.4364,-4.378,-4.2658,-4.1738,-4.1056,-4.0984,-4.0585,-3.98,-3.9758,-3.9735,-3.9677,-3.9623,-3.9677,-3.9815,-3.9943,0.0,0.0,0.0,0.0,0.0,0.0,0.0,0.0,0.0,-3.9069,-3.7835,0.0,-3.8746,0.0,-3.9482,-3.9804,-3.9693,-3.9709,0.0,0.0,-3.9826,-3.987,-3.9804,-3.9658,-3.9635,-3.9773,-4.009,-4.0016,-3.9346,-3.9759,-4.0011,-3.974,-3.9477,-3.9509,-4.0015,-3.9322,-3.8733,-3.8655,-3.8439,-3.8232,-3.8163,-3.7511,-3.7018,-3.6861,-3.5975,-3.5435,-3.5807,-3.5177,-3.4613,-3.4752,-3.4283,-3.3955,-3.3978,-3.3908,-3.3847,-3.3753,-3.3657,-3.3619,-3.3647,-3.3615,-3.3564,-5.5369,-5.4531,-5.4061,-5.3358,-5.2461,-5.1205,-5.0475,-5.0061,-4.9583,-4.8892,-4.8066,-4.8086,-4.7557,-4.6655,-4.6631,-4.637,-4.5936,-4.6019,-4.6053,-4.6059,-4.6184,-4.5964,-4.5481,-4.5491,-4.5452,-4.5426,-4.5433,-4.5641,-4.6037,-4.6046,-4.603,-4.5994,-4.5983,-4.5747,-4.5246,-4.5273,-4.5025,-4.4446,-4.4803,-4.4689,-4.4097,-4.3225,-4.2517,-4.2057,-4.1979,-4.171,-4.1153,-4.1134,-4.1123,-4.1081,-4.1005,-4.1016,-4.1134,-4.1213,-4.1274,0.0,0.0,0.0,0.0,0.0,0.0,0.0,0.0,0.0,0.0,0.0,-4.0091,-4.011,-4.0273,-4.0246,-3.9859,-3.9799,-3.9755,-3.9717,-3.977,-3.9758,-3.9672,-3.9539,-3.9471,-3.9533,-3.9709,-3.9635,-3.911,-3.9678,-3.9963,-3.9454,-3.9531,-3.9717,-3.9885,-3.916,-3.8476,-3.8415,-3.8221,-3.8053,-3.8001,-3.7486,-3.7129,-3.7144,-3.66,-3.6208,-3.6412,-3.5615,-3.499,-3.5069,-3.4505,-3.4146,-3.4498,-3.4245,-3.4083,-3.4376,-3.4099,-3.3798,-3.3753,-3.3748,-3.3793,-5.6171,-5.5469,-5.535,-5.4862,-5.4043,-5.2415,-5.1232,-5.0422,-5.042,-4.9872,-4.8954,-4.8837,-4.8798,-4.8798,-4.8788,-4.8803,-4.8762,-4.8001,-4.7665,-4.7633,-4.6945,-4.6594,-4.6543,-4.6423,-4.6371,-4.6359,-4.6242,-4.6181,-4.6122,-4.6119,-4.6076,-4.6032,-4.6025,-4.6014,-4.5975,-4.5248,-4.4795,-4.4662,-4.4474,-4.4354,-4.4298,-4.3561,-4.3101,-4.2986,-4.2976,-4.2938,-4.2804,-4.2823,-4.2804,-4.2804,-4.2747,-4.266,-4.2556,-4.2718,-4.2747,0.0,-4.2139,0.0,0.0,0.0,0.0,0.0,0.0,0.0,0.0,-4.1462,-4.1598,-4.1637,-4.1301,-4.0875,-4.026,-4.0058,-3.9886,-3.9844,-3.9875,-3.9835,-3.967,-3.958,-3.9458,-3.9229,-3.9277,-3.9264,-3.9073,-3.9657,-3.9866,-3.9328,-3.9402,-3.9609,-3.9562,-3.8897,-3.8305,-3.8225,-3.8209,-3.8122,-3.8002,-3.7827,-3.7773,-3.7858,-3.7457,-3.7105,-3.7346,-3.6292,-3.5413,-3.5423,-3.5008,-3.471,-3.5328,-3.4778,-3.4506,-3.4988,-3.448,-3.3978,-3.3868,-3.3908,-3.3947,-5.6503,-5.6289,-5.5585,-5.5195,-5.4979,-5.3943,-5.3005,-5.2202,-5.2213,-5.1325,-4.9811,-4.9111,-4.8798,-4.8798,-4.8796,-4.879,-4.8803,-4.8617,-4.8556,-4.8545,-4.84,-4.8322,-4.8272,-4.7587,-4.7262,-4.7194,-4.6531,-4.6203,-4.6181,-4.6177,-4.6145,-4.6084,-4.608,-4.6075,-4.6075,0.0,0.0,0.0,-4.5438,-4.5323,-4.5328,-4.5152,-4.4692,-4.3969,-4.4004,0.0,-4.2926,-4.2878,-4.2878,-4.2878,-4.286,0.0,0.0,0.0,0.0,0.0,0.0,0.0,0.0,0.0,0.0,0.0,-4.2288,-4.2068,-4.1463,-4.2028,-4.2408,-4.2303,-4.1629,-4.1067,-4.0767,-4.0035,-3.9851,-4.0447,-4.0528,-4.0489,-4.0403,-4.0376,-4.0074,-3.9303,-4.0261,-4.0703,-4.0,-4.0514,-4.0859,-4.0451,-3.9543,-3.9061,-3.9529,-3.8858,-3.8356,-3.8224,-3.8245,-3.8141,-3.7951,-3.7966,-3.7983,-3.7999,-3.8096,-3.8113,-3.8131,-3.7609,-3.7145,-3.717,-3.666,-3.5903,-3.5602,-3.528,-3.4964,-3.4482,-3.4228,-3.4061,-3.3985,-3.3985,-3.3985,-5.6621,0.0,-5.6113,-5.5937,0.0,-5.5019,-5.416,-5.332,-5.2883,-5.1958,-5.0718,-5.0284,-5.0087,-5.0067,-5.0087,-5.0085,-5.0059,-4.9634,-4.9439,-4.9415,-4.8992,-4.8796,-4.879,-4.8341,-4.7903,-4.7513,-4.7493,-4.7036,-4.6271,-4.6621,-4.6606,-4.615,-4.6106,-4.6117,-4.6113,-4.6081,-4.6008,-4.59,-4.5764,-4.5665,-4.5603,-4.5593,-4.5372,-4.4934,0.0,0.0,0.0,0.0,0.0,0.0,0.0,0.0,0.0,0.0,0.0,-4.3436,-4.3091,-4.3053,-4.3388,-4.3034,-4.2756,-4.2666,-4.3046,-4.3103,-4.2664,-4.3025,-4.3208,-4.3077,-4.2284,-4.1703,-4.1585,-4.0777,-4.0553,-4.1279,-4.1398,-4.134,-4.1266,-4.1212,-4.0975,-4.0565,-4.1055,-4.1189,-4.0218,-4.0782,-4.083,-4.0126,-3.9554,-3.9145,-3.9029,-3.8658,-3.8305,-3.8225,-3.8622,-3.8659,-3.8195,-3.8087,-3.8135,-3.8203,-3.8316,-3.8478,-3.8575,-3.8114,-3.7724,-3.772,-3.7163,-3.6604,-3.6649,-3.6073,-3.546,-3.5349,-3.4779,-3.427,-3.4197,-3.4148,-3.408,-5.6621,-5.6621,-5.6621,-5.6621,-5.6543,-5.584,-5.4941,-5.3926,0.0,0.0,0.0,-5.1402,-5.1396,-5.1394,-5.1396,-5.1396,-5.1355,-5.0654,-5.034,-5.0299,-4.9581,-4.9269,-4.9267,-4.9093,-4.8658,-4.8001,-4.8528,-4.8074,-4.6713,-4.7233,-4.7235,-4.6663,-4.6302,-4.6106,-4.6093,-4.6052,-4.5989,-4.5932,-4.5867,-4.5757,-4.5646,-4.5635,-4.5635,-4.5629,-4.5637,-4.5654,-4.569,-4.569,-4.5673,-4.562,-4.5558,-4.5454,-4.5273,-4.4728,-4.4633,-4.5055,-4.402,-4.3599,-4.419,-4.3605,-4.3163,-4.308,-4.352,-4.3843,-4.3882,-4.3954,-4.3969,-4.3914,-4.3097,-4.255,-4.2532,-4.1772,-4.153,-4.2278,-4.2328,-4.2277,-4.2144,-4.2048,-4.1894,-4.1686,-4.1586,-4.1304,-4.0525,-4.0769,-4.0631,-3.9485,-3.9559,-3.9738,-3.9093,-3.882,-3.8598,-3.8567,-3.9035,-3.9213,-3.8525,-3.8254,-3.8252,-3.8382,-3.8494,-3.8588,-3.8624,-3.8346,-3.8053,-3.8113,-3.7519,-3.7429,-3.7716,-3.6918,-3.6205,-3.6541,-3.5583,-3.4584,-3.4435,-3.4335,-3.4233,-5.6621,-5.6621,-5.6621,-5.6621,-5.6582,-5.6465,-5.5508,-5.3887,-5.2284,-5.1517,-5.139,-5.1389,-5.1403,-5.1394,-5.1384,-5.1384,-5.1394,-5.1286,-5.1228,0.0,-5.1091,-5.1032,-5.1004,-5.0271,-4.9856,-4.9699,-4.9113,-4.8679,-4.8393,-4.7822,-4.7765,-4.8089,-4.6913,-4.6174,-4.6098,-4.6085,-4.6056,-4.598,-4.5929,-4.5841,-4.5759,-4.5834,-4.5821,-4.5773,-4.5769,-4.5761,-4.5719,-4.5692,-4.5692,-4.5684,-4.5684,-4.528,-4.4467,-4.4976,-4.4988,-4.4295,-4.4668,-4.5012,-4.5097,-4.4949,-4.4859,-4.481,-4.4255,-4.389,-4.3896,-4.441,-4.4761,-4.4778,-4.3971,-4.35,-4.3443,-4.2664,-4.2434,-4.3152,-4.3252,-4.316,-4.303,-4.2904,-4.2576,-4.1893,-4.1615,-4.1579,-4.1267,-4.0811,-4.0418,-3.9946,-3.9973,-4.0131,-4.0406,-3.9946,-3.9445,-3.934,-3.9446,-3.9226,-3.8538,-3.8401,-3.8428,-3.846,-3.8652,-3.8758,-3.8833,-3.8806,-3.8743,-3.8869,-3.8692,-3.8497,-3.8178,-3.7875,-3.7131,-3.636,-3.5668,-3.5261,-3.466,-3.4427,-3.4363,-5.7734,-5.7324,-5.7305,-5.7031,-5.6562,-5.6113,-5.5176,-5.3965,-5.3164,-5.2264,-5.142,-5.1396,-5.1393,-5.139,-5.1393,-5.1391,-5.1384,-5.1387,-5.1384,-5.1394,-5.14,-5.1398,-5.1355,-5.099,-5.0557,-5.0117,-5.0196,-4.9708,-4.8862,-4.8855,-4.8845,-4.8733,-4.7977,-4.7368,-4.689,-4.6811,-4.6556,-4.6061,-4.5994,-4.5925,-4.5854,-4.5887,-4.5867,-4.5798,-4.5798,-4.5803,-4.5758,-4.5719,-4.5679,-4.5635,-4.561,-4.5365,-4.4891,-4.4824,-4.4777,-4.4757,-4.4719,-4.49,-4.5329,-4.5297,-4.5265,-4.5246,-4.487,-4.462,-4.465,-4.4444,-4.4497,-4.4915,-4.4211,-4.3891,-4.427,-4.3546,-4.3315,-4.4089,-4.4099,-4.4006,-4.3849,-4.3764,-4.3523,-4.3133,-4.2969,-4.2559,-4.1675,-4.1538,-4.1104,-4.0388,-4.0431,-4.098,-4.1622,-4.1022,-4.0227,-3.9714,-3.9639,-3.9325,-3.8581,-3.8446,-3.8541,-3.8634,-3.8773,-3.8862,-3.8935,-3.9007,-3.9078,-3.9142,-3.9156,-3.9053,-3.876,-3.837,-3.7642,-3.6757,-3.6038,-3.5529,-3.482,-3.4528,-3.4484,-5.8808,-5.8203,-5.7988,-5.7402,-5.6562,-5.5879,-5.5098,-5.4336,-5.4297,-5.3437,-5.2089,-5.1792,-5.1692,-5.1691,-5.1496,-5.1513,-5.1666,-5.1488,-5.1385,-5.1398,-5.1398,-5.1398,-5.1398,-5.1398,-5.1047,-5.0537,-5.1082,-5.0711,-4.9577,-4.9881,-4.9662,-4.8918,-4.8973,-4.8659,-4.7807,-4.7727,-4.7353,-4.6714,-4.6435,-4.6191,-4.5938,-4.5932,-4.5887,-4.584,-4.5831,-4.581,-4.5815,-4.5743,-4.5706,-4.5646,-4.5603,-4.5521,-4.5419,-4.4862,-4.4795,-4.5304,-4.4863,-4.4767,-4.5342,-4.5369,-4.5319,-4.5338,-4.5277,-4.5267,-4.525,-4.4603,-4.4372,-4.4855,-4.4412,-4.4251,-4.4655,-4.4303,-4.4096,-4.4617,-4.4646,-4.4513,-4.444,-4.4354,-4.4318,-4.4259,-4.3964,-4.3211,-4.2326,-4.2225,-4.1979,-4.1178,-4.1283,-4.1905,-4.2468,-4.1899,-4.0864,-4.0258,-3.9916,-3.9477,-3.8693,-3.8525,-3.8621,-3.8792,-3.8866,-3.8921,-3.8993,-3.9059,-3.9129,-3.9183,-3.9178,-3.9237,-3.933,-3.897,-3.8259,-3.7466,-3.6932,-3.622,-3.5216,-3.4972,-3.4789,-5.916,-5.8965,-5.8242,-5.7402,-5.6621,-5.6504,-5.5957,-5.5234,-5.5195,-5.4648,-5.3691,-5.2948,-5.2594,-5.2473,-5.179,-5.1887,-5.2491,-5.1764,-5.1429,-5.1428,-5.1389,-5.1389,-5.1389,-5.1389,-5.1369,-5.125,-5.1361,-5.1279,-5.0984,-5.0416,-4.969,-4.8996,-4.9589,-4.9541,-4.8775,-4.861,-4.853,-4.8452,-4.7668,-4.6863,-4.6049,-4.5991,-4.5947,-4.59,-4.5893,-4.5854,-4.5826,-4.5812,-4.5791,-4.5773,-4.5785,-4.5708,-4.5596,-4.5483,-4.5486,-4.5566,-4.55,-4.5482,-4.5485,-4.5438,-4.539,-4.5371,-4.5381,-4.538,-4.5398,-4.5241,-4.511,-4.5076,-4.4891,-4.4812,-4.4895,-4.4739,-4.4638,-4.4668,-4.4646,-4.4584,-4.4515,-4.4426,-4.4383,-4.4387,-4.3754,-4.3005,-4.2727,-4.2307,-4.2099,-4.2387,-4.2437,-4.2744,-4.3266,-4.2345,-4.1422,-4.1046,-4.0491,-3.9557,-3.8776,-3.8609,-3.8732,-3.8866,-3.8896,-3.895,-3.9031,-3.9087,-3.9129,-3.9183,-3.921,-3.9301,-3.9412,-3.9364,-3.9052,-3.8251,-3.784,-3.7566,-3.6279,-3.5722,-3.5426,-6.0098,-5.9199,-5.8828,-5.7871,-5.6699,-5.6621,-5.6387,-5.6074,-5.6055,-5.5586,-5.4785,-5.4394,-5.3945,-5.3475,-5.3104,-5.3142,-5.3394,-5.255,-5.2157,-5.2118,-5.1641,-5.1387,-5.1394,-5.1391,-5.1391,-5.1395,-5.1391,-5.1389,-5.1345,-5.1025,-5.067,-5.0393,-5.0713,-5.0433,-4.965,-4.9555,-4.9289,-4.8763,-4.8405,-4.8008,-4.7531,-4.659,-4.6052,-4.6021,-4.5983,-4.5941,-4.5923,-4.5874,-4.5854,-4.5852,-4.5812,-4.5776,-4.5723,-4.5715,-4.57,-4.566,-4.5627,-4.5593,-4.5568,-4.5475,-4.5438,-4.541,-4.541,-4.5419,-4.5409,-4.536,-4.5317,-4.5233,-4.5049,-4.4955,-4.4962,-4.4877,-4.4802,-4.4745,-4.4672,-4.4605,-4.4619,-4.4542,-4.4454,-4.4421,-4.4097,-4.3577,-4.3075,-4.2687,-4.2845,-4.3442,-4.3587,-4.3658,-4.3818,-4.2928,-4.2282,-4.1958,-4.0991,-3.9807,-3.8976,-3.8758,-3.8833,-3.8939,-3.8968,-3.8993,-3.9073,-3.9101,-3.9129,-3.9197,-3.9256,-3.9341,-3.9469,-3.9489,-3.932,-3.863,-3.7917,-3.7472,-3.6779,-3.6241,-3.577,-6.0644,-5.9551,-5.9062,-5.7969,-5.6621,-5.6621,-5.6621,-5.6621,-5.6621,-5.625,-5.5683,-5.5664,-5.5312,-5.4707,-5.4238,-5.412,-5.4217,-5.3451,-5.3058,-5.2962,-5.2151,-5.178,-5.1749,-5.1493,-5.1394,-5.1397,-5.1398,-5.1395,-5.139,-5.1384,-5.1398,-5.1394,-5.1388,-5.1091,-5.0523,-5.0472,-5.0135,-4.9569,-4.9298,-4.9127,-4.8892,-4.7626,-4.6707,-4.6467,-4.6158,-4.6042,-4.6022,-4.5983,-4.5937,-4.5918,-4.5874,-4.5841,-4.5819,-4.5838,-4.5805,-4.5749,-4.5685,-4.5637,-4.5671,-4.5593,-4.554,-4.5495,-4.5485,-4.5457,-4.5448,-4.5429,-4.539,-4.5329,-4.5192,-4.508,-4.5014,-4.4895,-4.484,-4.4808,-4.4712,-4.4659,-4.4667,-4.4605,-4.4551,-4.4537,-4.4467,-4.4233,-4.3587,-4.3413,-4.3613,-4.4084,-4.4222,-4.4195,-4.3986,-4.3379,-4.2731,-4.2445,-4.1185,-4.0177,-3.9441,-3.905,-3.902,-3.9017,-3.9064,-3.9092,-3.9161,-3.9188,-3.9215,-3.9328,-3.9386,-3.9438,-3.9502,-3.9527,-3.9388,-3.8602,-3.8019,-3.7588,-3.7156,-3.6629,-3.6406,-6.041,-6.0098,-5.8613,-5.7422,-5.6621,-5.6621,-5.6621,-5.6621,-5.6621,-5.6562,-5.6484,-5.6484,-5.6503,-5.6268,-5.4822,-5.4489,-5.5058,-5.4348,-5.3937,-5.3865,-5.3041,-5.2648,-5.257,-5.1808,-5.1437,-5.1536,-5.1634,-5.1554,-5.1469,-5.1409,-5.1385,-5.1394,-5.1394,-5.1375,-5.1275,-5.1247,-5.1301,-5.1028,-5.0408,-5.004,-4.9929,-4.912,-4.822,-4.7438,-4.6565,-4.6171,-4.6171,-4.6108,-4.6066,-4.6016,-4.6011,-4.5964,-4.5911,-4.5899,-4.588,-4.5867,-4.5834,-4.5793,-4.5778,-4.5719,-4.5676,-4.5673,-4.5657,-4.5631,-4.5513,-4.5495,-4.5467,-4.54,-4.5339,-4.5254,-4.5106,-4.4998,-4.4895,-4.4902,-4.4789,-4.4706,-4.4706,-4.4712,-4.4699,-4.4699,-4.4672,-4.4549,-4.4388,-4.4317,-4.4217,-4.4296,-4.43,-4.4285,-4.4192,-4.3557,-4.2889,-4.2165,-4.133,-4.0551,-4.03,-3.956,-3.9147,-3.9147,-3.9202,-3.9229,-3.9333,-3.9386,-3.9412,-3.9425,-3.9457,-3.9508,-3.9552,-3.947,-3.9262,-3.8846,-3.8629,-3.8226,-3.7943,-3.7456,-3.7139,-5.9765,-5.8711,-5.7558,-5.6875,-5.6621,-5.6621,-5.6621,-5.6621,-5.6621,-5.6621,-5.6621,-5.6621,-5.6621,-5.6562,-5.5955,-5.5839,-5.6034,-5.5234,-5.4842,-5.4726,-5.3922,-5.353,-5.3495,-5.3181,-5.2732,-5.2362,-5.2792,-5.2771,-5.2202,-5.1691,-5.1395,-5.1393,-5.1391,-5.1391,-5.139,-5.1385,-5.14,-5.1379,-5.1052,-5.092,-5.0854,-5.0071,-4.9455,-4.9081,-4.7727,-4.7249,-4.7735,-4.6714,-4.6342,-4.6868,-4.6382,-4.6056,-4.6016,-4.6003,-4.5949,-4.5892,-4.5886,-4.5854,-4.5807,-4.5778,-4.5754,-4.5711,-4.5679,-4.5693,-4.5612,-4.5605,-4.555,-4.5476,-4.5448,-4.539,-4.5277,-4.5136,-4.5026,-4.5003,-4.4907,-4.4852,-4.4877,-4.4827,-4.4776,-4.4764,-4.4738,-4.4672,-4.4611,-4.4528,-4.4487,-4.443,-4.4401,-4.4354,-4.4335,-4.4055,-4.3699,-4.3325,-4.2352,-4.1421,-4.1434,-4.0117,-3.928,-3.9307,-3.9346,-3.9346,-3.9386,-3.9399,-3.9425,-3.9438,-3.9482,-3.952,-3.9564,-3.9594,-3.9354,-3.922,-3.9022,-3.8807,-3.8954,-3.8228,-3.7778,-5.9101,-5.8242,-5.7383,-5.7187,-5.7422,-5.7441,-5.7265,-5.7051,-5.7012,-5.6875,-5.666,-5.6621,-5.6621,-5.662,-5.6621,-5.6621,-5.656,-5.5976,-5.5722,-5.5644,-5.4822,-5.4431,-5.4375,-5.414,-5.371,-5.3261,-5.3691,-5.3554,-5.2733,-5.2106,-5.1674,-5.1418,-5.1652,-5.1652,-5.1496,-5.1668,-5.1725,-5.1489,-5.1398,-5.1388,-5.1325,-5.085,-5.0511,-5.0308,-4.91,-4.8418,-4.872,-4.7572,-4.7225,-4.7641,-4.7248,-4.6943,-4.6931,-4.6867,-4.6693,-4.6443,-4.6362,-4.6196,-4.59,-4.5854,-4.58,-4.5754,-4.5727,-4.5734,-4.5682,-4.5667,-4.5614,-4.5559,-4.5504,-4.5486,-4.54,-4.5277,-4.5181,-4.5136,-4.5022,-4.4974,-4.5014,-4.4919,-4.487,-4.4858,-4.4808,-4.4732,-4.4685,-4.4619,-4.4578,-4.4542,-4.4487,-4.4426,-4.4426,-4.4426,-4.4294,-4.4032,-4.3057,-4.2283,-4.1852,-4.0718,-3.9718,-3.96,-3.9469,-3.9451,-3.9451,-3.9451,-3.9451,-3.9464,-3.9489,-3.9527,-3.9583,-3.9649,-3.9583,-3.9455,-3.912,-3.881,-3.8863,-3.8847,-3.8472,-5.8457,-5.8965,-5.8262,-5.832,-5.8906,-5.8848,-5.8574,-5.7871,-5.7754,-5.7246,-5.664,-5.6621,-5.662,-5.6615,-5.6616,-5.6613,-5.6597,-5.6504,-5.6464,-5.6406,-5.5683,-5.5312,-5.5272,-5.4629,-5.4277,-5.412,-5.4023,-5.3593,-5.2967,-5.2694,-5.2204,-5.1732,-5.224,-5.2142,-5.1399,-5.2102,-5.2199,-5.1593,-5.1393,-5.1385,-5.1396,-5.1316,-5.1273,-5.1225,-5.044,-4.9686,-4.8974,-4.8752,-4.8607,-4.8697,-4.8592,-4.8674,-4.8481,-4.8424,-4.8156,-4.7509,-4.7351,-4.689,-4.6238,-4.6093,-4.6009,-4.5935,-4.5841,-4.5808,-4.5888,-4.5759,-4.5695,-4.5748,-4.5589,-4.5485,-4.5429,-4.539,-4.5328,-4.5203,-4.5091,-4.5045,-4.5068,-4.5045,-4.501,-4.4986,-4.4919,-4.487,-4.4802,-4.4699,-4.4632,-4.4592,-4.4551,-4.451,-4.451,-4.4496,-4.4158,-4.367,-4.3251,-4.2857,-4.2111,-4.1329,-4.0534,-3.989,-3.969,-3.9564,-3.9558,-3.957,-3.957,-3.957,-3.9595,-3.9631,-3.9679,-3.9693,-3.9479,-3.9313,-3.9003,-3.8957,-3.9017,-3.9115,-3.9145,-5.8965,-5.916,-5.8906,-5.8945,-5.9121,-5.8574,-5.8125,-5.7851,-5.7285,-5.6855,-5.664,-5.6621,-5.6621,-5.662,-5.6618,-5.6618,-5.662,-5.6621,-5.6621,-5.6543,-5.6289,-5.6172,-5.6113,-5.5898,-5.5781,-5.5566,-5.4531,-5.4199,-5.4219,-5.3281,-5.2519,-5.2421,-5.2539,-5.2245,-5.1542,-5.2224,-5.2282,-5.1501,-5.1399,-5.1395,-5.1393,-5.1393,-5.1389,-5.1363,-5.1128,-5.0846,-5.0547,-4.9449,-4.9109,-4.9604,-4.9081,-4.8753,-4.8717,-4.8669,-4.8554,-4.8346,-4.8273,-4.818,-4.7797,-4.7212,-4.6815,-4.6648,-4.6213,-4.6151,-4.6484,-4.61,-4.6029,-4.6311,-4.596,-4.5531,-4.5485,-4.5429,-4.536,-4.5233,-4.5159,-4.5125,-4.5114,-4.5091,-4.5057,-4.5003,-4.4979,-4.4938,-4.484,-4.4732,-4.4706,-4.4672,-4.4646,-4.4632,-4.4632,-4.4592,-4.4573,-4.4275,-4.3834,-4.3412,-4.291,-4.2302,-4.1556,-4.086,-4.0453,-3.982,-3.975,-3.9856,-3.9799,-3.9672,-3.9703,-3.9738,-3.9766,-3.9694,-3.9517,-3.955,-3.9534,-3.9496,-3.9478,-3.947,-3.948,-5.957,-6.0039,-5.9453,-5.9394,-5.9531,-5.875,-5.8183,-5.7851,-5.7324,-5.6914,-5.666,-5.6621,-5.6621,-5.662,-5.6618,-5.6619,-5.662,-5.6619,-5.662,-5.6621,-5.6621,-5.6621,-5.6621,-5.6621,-5.6621,-5.6445,-5.5488,-5.5078,-5.5195,-5.3906,-5.3008,-5.2754,-5.2695,-5.2461,-5.1953,-5.2382,-5.2382,-5.1913,-5.1579,-5.1401,-5.1401,-5.1399,-5.1396,-5.1394,-5.1393,-5.1389,-5.132,-5.0317,-5.0015,-5.0394,-5.0034,-4.9744,-4.9678,-4.9691,-4.951,-4.9229,-4.9138,-4.9017,-4.8641,-4.8061,-4.7761,-4.7592,-4.7152,-4.7025,-4.7387,-4.6931,-4.6959,-4.7185,-4.6621,-4.6049,-4.5984,-4.5592,-4.5495,-4.5666,-4.5374,-4.52,-4.5148,-4.5136,-4.5114,-4.5068,-4.5003,-4.4943,-4.4858,-4.4815,-4.4783,-4.4751,-4.4725,-4.4712,-4.4699,-4.4678,-4.4672,-4.4616,-4.4301,-4.3992,-4.3847,-4.3252,-4.2567,-4.1952,-4.1393,-4.0532,-3.9948,-4.0243,-4.033,-3.9882,-3.9754,-3.9789,-3.9815,-3.9826,-3.9742,-3.987,-3.9922,-3.9867,-3.9754,-3.98,-3.9792,-6.0234,-6.1348,-5.9941,-5.9648,-6.0078,-5.9316,-5.8535,-5.7949,-5.7734,-5.7246,-5.6699,-5.662,-5.6619,-5.6618,-5.6614,-5.6615,-5.6618,-5.6618,-5.662,-5.6621,-5.6621,-5.6621,-5.6621,-5.6621,-5.6621,-5.6562,-5.6465,-5.6094,-5.5488,-5.4394,-5.3594,-5.2949,-5.2793,-5.2695,-5.2617,-5.2715,-5.2793,-5.2519,-5.1894,-5.1541,-5.1424,-5.1402,-5.1399,-5.1399,-5.1398,-5.1398,-5.1357,-5.12,-5.1231,-5.1364,-5.1213,-5.1099,-5.1236,-5.1281,-5.0769,-5.0107,-5.0066,-4.9673,-4.9022,-4.8792,-4.8677,-4.8637,-4.8399,-4.8532,-4.8399,-4.8176,-4.8053,-4.8212,-4.7505,-4.6971,-4.6742,-4.6282,-4.6099,-4.6369,-4.6037,-4.563,-4.5412,-4.5489,-4.5608,-4.5457,-4.5228,-4.5169,-4.528,-4.5168,-4.5029,-4.4966,-4.489,-4.4751,-4.4738,-4.4725,-4.4685,-4.461,-4.4523,-4.4453,-4.4265,-4.4109,-4.3416,-4.2881,-4.2372,-4.1666,-4.0438,-4.0476,-4.0703,-4.0265,-3.9834,-3.9867,-3.9943,-4.003,-3.9976,-3.9922,-3.9965,-4.0017,-4.0007,-3.9975,-3.9975,-6.0918,-6.0683,-6.0254,-5.9863,-5.9433,-5.8613,-5.8125,-5.7812,-5.7207,-5.6855,-5.6621,-5.662,-5.6619,-5.6618,-5.661,-5.6611,-5.6617,-5.6616,-5.6618,-5.6621,-5.6621,-5.6621,-5.6621,-5.6621,-5.6621,-5.6621,-5.6601,-5.6484,-5.6152,-5.4765,-5.3926,-5.3652,-5.3047,-5.2754,-5.2754,-5.334,-5.3281,-5.2773,-5.2519,-5.2012,-5.1504,-5.1406,-5.1386,-5.1384,-5.1384,-5.1402,-5.1399,-5.1398,-5.1395,-5.1384,-5.1384,-5.1391,-5.1364,-5.1336,-5.1179,-5.0957,-5.0907,-5.0867,-5.0494,-4.9955,-4.9635,-4.9493,-4.9013,-4.8774,-4.9294,-4.8698,-4.8689,-4.8869,-4.8469,-4.7906,-4.7804,-4.7548,-4.7473,-4.7446,-4.7234,-4.7026,-4.6991,-4.7098,-4.7094,-4.7049,-4.69,-4.6727,-4.651,-4.6113,-4.5754,-4.5603,-4.5237,-4.4852,-4.4821,-4.4783,-4.4764,-4.4802,-4.477,-4.4751,-4.4695,-4.4632,-4.4303,-4.3756,-4.3352,-4.3059,-4.1658,-4.0582,-4.0741,-4.0677,-4.0092,-3.9954,-4.0244,-4.0431,-4.0244,-3.9965,-3.9975,-3.9996,-3.9975,-3.9954,-4.0022,-6.0859,-6.0332,-5.9668,-5.9082,-5.8555,-5.7734,-5.7363,-5.7265,-5.6855,-5.6621,-5.6621,-5.6619,-5.6618,-5.6618,-5.6609,-5.6607,-5.6615,-5.6616,-5.6618,-5.662,-5.6621,-5.6621,-5.6621,-5.6621,-5.6621,-5.662,-5.662,-5.6601,-5.6367,-5.5175,-5.4629,-5.4394,-5.3672,-5.3437,-5.3867,-5.3808,-5.3984,-5.3691,-5.3164,-5.2422,-5.1973,-5.1582,-5.1406,-5.1386,-5.1386,-5.1386,-5.1384,-5.1402,-5.1398,-5.139,-5.1394,-5.1401,-5.1389,-5.1375,-5.1336,-5.1303,-5.1296,-5.1281,-5.1217,-5.0791,-5.053,-5.0376,-4.985,-4.9873,-5.0104,-4.9722,-4.9707,-4.9972,-4.9296,-4.8868,-4.8736,-4.8663,-4.8567,-4.8505,-4.8665,-4.8533,-4.7941,-4.7689,-4.7724,-4.7652,-4.7388,-4.7155,-4.7034,-4.6368,-4.5927,-4.5637,-4.524,-4.5019,-4.4919,-4.487,-4.4833,-4.4865,-4.4858,-4.4833,-4.4808,-4.477,-4.4738,-4.4278,-4.3954,-4.3774,-4.2618,-4.1084,-4.0827,-4.0827,-4.0357,-4.0207,-4.0602,-4.0694,-4.0214,-4.0026,-3.9996,-4.0064,-4.0102,-4.0186,-4.0216,-6.0351,-6.0137,-5.8574,-5.7832,-5.7676,-5.6953,-5.6699,-5.664,-5.664,-5.6621,-5.6621,-5.6617,-5.6616,-5.6618,-5.6607,-5.6605,-5.6611,-5.6614,-5.6618,-5.662,-5.6621,-5.6621,-5.6621,-5.662,-5.6619,-5.6619,-5.6615,-5.6617,-5.6365,-5.5662,-5.5292,-5.4961,-5.4336,-5.4492,-5.4746,-5.4512,-5.4629,-5.4765,-5.3887,-5.3027,-5.2558,-5.1992,-5.1641,-5.1387,-5.1387,-5.1387,-5.1387,-5.1386,-5.1402,-5.1393,-5.1403,-5.1388,-5.1386,-5.1403,-5.1362,-5.1339,-5.1303,-5.1292,-5.13,-5.1195,-5.1147,-5.1058,-5.1008,-5.1089,-5.0926,-5.0727,-5.0666,-5.0739,-5.0098,-4.9725,-4.9622,-4.9519,-4.9451,-4.9447,-4.9978,-4.954,-4.8548,-4.8022,-4.7976,-4.7938,-4.73,-4.6915,-4.6561,-4.6028,-4.5476,-4.6235,-4.5661,-4.5079,-4.5003,-4.4967,-4.4926,-4.4877,-4.4889,-4.4883,-4.4858,-4.4858,-4.4852,-4.4693,-4.4367,-4.4003,-4.3153,-4.1987,-4.1304,-4.0984,-4.1246,-4.1257,-4.1206,-4.0978,-4.0458,-4.0382,-4.0561,-4.0507,-4.0471,-4.0566,-4.0613,-6.0037,-5.9374,-5.834,-5.75,-5.6914,-5.666,-5.6621,-5.6621,-5.6621,-5.6621,-5.6621,-5.6619,-5.6616,-5.6614,-5.6606,-5.6602,-5.6605,-5.6607,-5.6611,-5.6619,-5.6621,-5.6621,-5.662,-5.6619,-5.6619,-5.6618,-5.6618,-5.6618,-5.6404,-5.5858,-5.5312,-5.5233,-5.4746,-5.4453,-5.5155,-5.5215,-5.5078,-5.5215,-5.4863,-5.3965,-5.2969,-5.2539,-5.2051,-5.1562,-5.1426,-5.1426,-5.1406,-5.1387,-5.1386,-5.1402,-5.1472,-5.1599,-5.1435,-5.1442,-5.1442,-5.1366,-5.1333,-5.1303,-5.1296,-5.1291,-5.1269,-5.1201,-5.1153,-5.1081,-5.1082,-5.1041,-5.0978,-5.0956,-5.0735,-5.0477,-5.0408,-5.0423,-5.0288,-5.0266,-5.038,-5.0387,-4.9989,-4.9736,-4.9603,-4.9572,-4.9388,-4.9384,-4.9196,-4.7735,-4.7121,-4.6922,-4.6176,-4.53,-4.5137,-4.5182,-4.5067,-4.5033,-4.4938,-4.495,-4.4926,-4.4926,-4.4931,-4.4955,-4.4741,-4.4509,-4.3658,-4.3099,-4.2485,-4.2411,-4.2584,-4.2383,-4.1772,-4.1487,-4.0993,-4.107,-4.1097,-4.1147,-4.1148,-4.112,-4.1388,-5.9547,-5.908,-5.7812,-5.7031,-5.664,-5.6621,-5.6621,-5.6621,-5.6621,-5.6621,-5.6621,-5.6619,-5.6615,-5.6611,-5.6621,-5.6614,-5.6616,-5.6619,-5.661,-5.6618,-5.6619,-5.6619,-5.6618,-5.6615,-5.6612,-5.6612,-5.6609,-5.661,-5.6457,-5.6187,-5.5954,-5.5914,-5.539,-5.5546,-5.5836,-5.5877,-5.5918,-5.582,-5.5488,-5.4785,-5.4023,-5.3047,-5.2578,-5.1973,-5.1719,-5.1699,-5.2558,-5.2226,-5.2285,-5.2499,-5.2591,-5.2172,-5.1657,-5.1783,-5.1808,-5.1456,-5.1378,-5.1343,-5.1323,-5.1296,-5.1276,-5.1249,-5.12,-5.1136,-5.1101,-5.1069,-5.1041,-5.0986,-5.0921,-5.0858,-5.0756,-5.0702,-5.0673,-5.0653,-5.0613,-5.0582,-5.0532,-5.0416,-5.0337,-5.026,-4.9817,-4.9622,-4.9217,-4.8506,-4.7991,-4.7404,-4.7255,-4.6424,-4.5868,-4.5837,-4.538,-4.5238,-4.5074,-4.4998,-4.4974,-4.4986,-4.5003,-4.5038,-4.5007,-4.4908,-4.4516,-4.4111,-4.3753,-4.3543,-4.3179,-4.2522,-4.1949,-4.173,-4.1606,-4.1415,-4.1434,-4.1701,-4.194,-4.2047,-4.2457,-5.9076,-5.8865,-5.7265,-5.6621,-5.6621,-5.6621,-5.6621,-5.6621,-5.6621,-5.6621,-5.6621,-5.6617,-5.6613,-5.6609,-5.6618,-5.6608,-5.6608,-5.6616,-5.6609,-5.6615,-5.6614,-5.6615,-5.6614,-5.6609,-5.6621,-5.6618,-5.6616,-5.6618,-5.6603,-5.6609,-5.6437,-5.6555,-5.6561,-5.6384,-5.6517,-5.6578,-5.6502,-5.6384,-5.5935,-5.5428,-5.5037,-5.3867,-5.3262,-5.2793,-5.2422,-5.2598,-5.3379,-5.3301,-5.3203,-5.3945,-5.4137,-5.3309,-5.2458,-5.2351,-5.2618,-5.1888,-5.1991,-5.1901,-5.172,-5.1577,-5.1533,-5.136,-5.124,-5.1178,-5.1144,-5.1108,-5.1082,-5.1,-5.0948,-5.085,-5.0738,-5.0702,-5.0693,-5.0673,-5.0653,-5.0623,-5.0593,-5.05,-5.0446,-5.0313,-5.005,-4.9805,-4.9373,-4.88,-4.8342,-4.7979,-4.7839,-4.7518,-4.6916,-4.637,-4.5868,-4.5358,-4.5167,-4.5057,-4.5045,-4.5068,-4.5091,-4.5114,-4.5159,-4.5143,-4.5096,-4.4832,-4.4376,-4.3821,-4.3353,-4.2943,-4.2705,-4.2648,-4.2419,-4.1894,-4.1932,-4.2362,-4.2677,-4.2965,-4.3432,-5.8767,-5.8026,-5.7031,-5.6621,-5.6621,-5.6621,-5.6621,-5.6621,-5.6621,-5.6621,-5.662,-5.6618,-5.6613,-5.6605,-5.6621,-5.6614,-5.6608,-5.6616,-5.6602,-5.6607,-5.6588,-5.6591,-5.6605,-5.6582,-5.6595,-5.6612,-5.6612,-5.6618,-5.6621,-5.6609,-5.6607,-5.6607,-5.6616,-5.6616,-5.6611,-5.6614,-5.6616,-5.6614,-5.6343,-5.5973,-5.5407,-5.4902,-5.4316,-5.3828,-5.3418,-5.3672,-5.3926,-5.3945,-5.3867,-5.4062,-5.4687,-5.4445,-5.3872,-5.3785,-5.3693,-5.3389,-5.3262,-5.2941,-5.2487,-5.2372,-5.1949,-5.1454,-5.1307,-5.1261,-5.1227,-5.1153,-5.1102,-5.106,-5.0979,-5.088,-5.0883,-5.0776,-5.0692,-5.0692,-5.0683,-5.0673,-5.0653,-5.0603,-5.05,-5.0407,-5.0187,-4.9996,-4.9633,-4.9328,-4.9071,-4.8766,-4.8563,-4.8006,-4.728,-4.6735,-4.6217,-4.5687,-4.52,-4.5136,-4.5084,-4.5136,-4.517,-4.5159,-4.5192,-4.5213,-4.5216,-4.5256,-4.4913,-4.4435,-4.4378,-4.4378,-4.4121,-4.3634,-4.3567,-4.3318,-4.3213,-4.308,-4.3586,-4.4034,-4.4128,-5.8962,-5.8436,-5.7148,-5.6621,-5.6621,-5.6621,-5.6621,-5.6621,-5.6621,-5.6621,-5.6619,-5.6617,-5.6611,-5.6602,-5.6614,-5.661,-5.6608,-5.661,-5.6616,-5.66,-5.6557,-5.6536,-5.6554,-5.655,-5.6543,-5.656,-5.6589,-5.6595,-5.6614,-5.6603,-5.6602,-5.6619,-5.661,-5.661,-5.6621,-5.6606,-5.661,-5.6609,-5.6571,-5.6417,-5.5909,-5.5601,-5.5018,-5.4746,-5.4336,-5.4473,-5.5195,-5.4824,-5.4922,-5.5332,-5.5762,-5.5696,-5.5457,-5.5214,-5.4925,-5.4255,-5.4033,-5.3825,-5.3358,-5.3256,-5.3042,-5.2674,-5.2169,-5.191,-5.1728,-5.1499,-5.1153,-5.1074,-5.0999,-5.0899,-5.0891,-5.0801,-5.0738,-5.0701,-5.0702,-5.0693,-5.0683,-5.0633,-5.0572,-5.0489,-5.0347,-5.0245,-5.0187,-4.995,-4.9809,-4.958,-4.9323,-4.8597,-4.7756,-4.7201,-4.6721,-4.596,-4.547,-4.5363,-4.5418,-4.5554,-4.5644,-4.5576,-4.5519,-4.5551,-4.5515,-4.5632,-4.55,-4.5138,-4.5262,-4.5385,-4.461,-4.3846,-4.4275,-4.4571,-4.4055,-4.3845,-4.4579,-4.5065,-4.4987,-5.8827,-5.8553,-5.7187,-5.6621,-5.6621,-5.6621,-5.6621,-5.6621,-5.6621,-5.662,-5.6618,-5.6614,-5.6607,-5.6618,-5.661,-5.6604,-5.6604,-5.6606,-5.661,-5.6593,-5.6541,-5.6497,-5.6521,-5.6514,-5.6525,-5.6558,-5.6538,-5.6584,-5.6608,-5.6614,-5.6612,-5.6614,-5.6605,-5.6605,-5.6612,-5.6618,-5.6619,-5.6621,-5.6621,-5.6621,-5.6411,-5.5968,-5.5563,-5.5547,-5.4902,-5.5254,-5.6172,-5.5879,-5.5879,-5.625,-5.652,-5.6554,-5.6591,-5.6596,-5.5942,-5.481,-5.4535,-5.4404,-5.4192,-5.4154,-5.3919,-5.3232,-5.283,-5.2495,-5.2036,-5.1461,-5.1134,-5.1074,-5.0968,-5.0897,-5.0897,-5.0836,-5.0801,-5.0747,-5.072,-5.0682,-5.0693,-5.0663,-5.0623,-5.0562,-5.0478,-5.0416,-5.0363,-5.0333,-5.0125,-5.0117,-4.9868,-4.9406,-4.8583,-4.7914,-4.728,-4.6326,-4.5797,-4.5663,-4.5778,-4.6132,-4.6287,-4.641,-4.6372,-4.6383,-4.6243,-4.6141,-4.599,-4.5944,-4.5781,-4.5732,-4.4861,-4.4316,-4.4659,-4.4753,-4.4399,-4.4484,-4.501,-4.5199,-4.514,-5.7597,-5.6914,-5.6719,-5.6621,-5.6621,-5.6621,-5.6621,-5.6621,-5.6621,-5.6621,-5.6613,-5.6612,-5.6605,-5.6612,-5.6586,-5.6604,-5.6604,-5.6602,-5.6584,-5.6565,-5.6511,-5.6531,-5.658,-5.652,-5.6539,-5.655,-5.6531,-5.6558,-5.6582,-5.6606,-5.6608,-5.6608,-5.6616,-5.6618,-5.661,-5.6616,-5.6621,-5.6621,-5.6621,-5.6607,-5.6597,-5.6444,-5.6386,-5.6328,-5.625,-5.6211,-5.6562,-5.6367,-5.6465,-5.6523,-5.6618,-5.6612,-5.661,-5.6618,-5.6569,-5.6328,-5.6165,-5.5859,-5.5201,-5.5032,-5.4461,-5.3567,-5.2791,-5.2134,-5.1675,-5.1456,-5.1257,-5.1101,-5.0983,-5.0909,-5.0901,-5.0897,-5.0872,-5.0838,-5.0766,-5.072,-5.0702,-5.0693,-5.0653,-5.0633,-5.0572,-5.0532,-5.0481,-5.047,-5.0451,-5.047,-5.0374,-4.9901,-4.9371,-4.8652,-4.7769,-4.6825,-4.6487,-4.6372,-4.6391,-4.6719,-4.689,-4.7131,-4.7131,-4.7131,-4.6999,-4.6849,-4.6931,-4.6836,-4.6645,-4.6242,-4.5562,-4.5217,-4.5206,-4.5041,-4.4829,-4.4944,-4.5201,-4.5286,-4.5254,-5.7226,-5.7305,-5.6816,-5.6621,-5.6621,-5.6621,-5.6621,-5.662,-5.662,-5.6617,-5.6607,-5.6606,-5.6619,-5.6547,-5.656,-5.6536,-5.6533,-5.6509,-5.6528,-5.6511,-5.6497,-5.6511,-5.6533,-5.6501,-5.6521,-5.6527,-5.6514,-5.6514,-5.6548,-5.6599,-5.6604,-5.6606,-5.661,-5.6616,-5.6612,-5.6618,-5.6619,-5.6619,-5.6618,-5.6605,-5.6616,-5.6619,-5.662,-5.6621,-5.6621,-5.6621,-5.6621,-5.6621,-5.6621,-5.6621,-5.6617,-5.6612,-5.6609,-5.6618,-5.6606,-5.6584,-5.6563,-5.6333,-5.6,-5.5929,-5.5147,-5.4277,-5.3487,-5.268,-5.1694,-5.1567,-5.1541,-5.112,-5.1012,-5.0937,-5.0906,-5.0909,-5.0905,-5.0872,-5.0801,-5.0757,-5.072,-5.0693,-5.0673,-5.0663,-5.0673,-5.0623,-5.0573,-5.0542,-5.0532,-5.0542,-5.0513,-5.0261,-4.9805,-4.9272,-4.8302,-4.7245,-4.7177,-4.7253,-4.7272,-4.7425,-4.7483,-4.7646,-4.7627,-4.7627,-4.7657,-4.7633,-4.7784,-4.772,-4.75,-4.6982,-4.6301,-4.5793,-4.5465,-4.5378,-4.5309,-4.5307,-4.5297,-4.5265,-4.5233,-5.6973,-5.75,-5.6855,-5.6621,-5.6621,-5.6621,-5.6621,-5.6619,-5.6619,-5.6614,-5.6605,-5.6598,-5.6495,-5.6274,-5.6148,-5.5967,-5.5826,-5.6085,-5.6163,-5.6199,-5.6377,-5.6491,-5.6494,-5.6484,-5.6492,-5.6461,-5.6491,-5.6501,-5.6511,-5.6542,-5.6575,-5.656,-5.6586,-5.661,-5.6614,-5.6616,-5.6618,-5.6621,-5.6621,-5.661,-5.6618,-5.6618,-5.662,-5.6621,-5.6621,-5.6621,-5.6621,-5.6621,-5.6621,-5.6621,-5.6618,-5.6612,-5.661,-5.6618,-5.6606,-5.6604,-5.6604,-5.6536,-5.6419,-5.6309,-5.5996,-5.5229,-5.4372,-5.32,-5.2341,-5.2336,-5.2246,-5.1541,-5.1138,-5.1044,-5.0929,-5.0941,-5.0917,-5.0905,-5.0863,-5.0793,-5.0748,-5.073,-5.0702,-5.0683,-5.0673,-5.0673,-5.0643,-5.0584,-5.0573,-5.0613,-5.0565,-5.0506,-5.0078,-4.9581,-4.8813,-4.7777,-4.7985,-4.8119,-4.8184,-4.8212,-4.8231,-4.8288,-4.8288,-4.8444,-4.8657,-4.8701,-4.8764,-4.8633,-4.8346,-4.7837,-4.7232,-4.6435,-4.5668,-4.5494,-4.5348,-4.5307,-4.5286,-4.5254,-4.5243,-5.664,-5.6699,-5.664,-5.6621,-5.6621,-5.6621,-5.6621,-5.6618,-5.6618,-5.6613,-5.6619,-5.6573,-5.6179,-5.5611,-5.545,-5.5092,-5.4306,-5.4967,-5.521,-5.5545,-5.6,-5.6152,-5.6152,-5.6125,-5.627,-5.6273,-5.6113,-5.6175,-5.6439,-5.6287,-5.64,-5.6509,-5.6558,-5.6604,-5.6608,-5.6612,-5.6616,-5.6603,-5.6607,-5.6613,-5.6618,-5.6619,-5.6621,-5.6621,-5.6621,-5.6621,-5.6621,-5.6621,-5.6738,-5.6738,-5.6656,-5.6748,-5.6785,-5.6655,-5.6626,-5.6604,-5.6604,-5.6577,-5.6528,-5.6452,-5.6046,-5.5237,-5.4455,-5.3818,-5.3222,-5.2653,-5.2415,-5.213,-5.1495,-5.117,-5.1051,-5.0998,-5.0968,-5.1103,-5.1082,-5.0855,-5.0803,-5.0748,-5.073,-5.0702,-5.0693,-5.0702,-5.0683,-5.0643,-5.0614,-5.0653,-5.0594,-5.0506,-5.0082,-4.9588,-4.909,-4.8571,-4.8835,-4.8985,-4.9089,-4.9174,-4.9282,-4.9389,-4.9449,-4.9704,-4.9997,-4.9963,-4.9601,-4.9449,-4.9143,-4.8663,-4.8174,-4.752,-4.6761,-4.5811,-4.5388,-4.5338,-4.5307,-4.5275,-4.5286,-5.6621,-5.6621,-5.6621,-5.662,-5.662,-5.6619,-5.6615,-5.6611,-5.661,-5.6605,-5.6612,-5.6569,-5.6118,-5.5472,-5.5204,-5.4789,-5.4103,-5.4229,-5.4388,-5.4463,-5.4745,-5.4894,-5.489,-5.5003,-5.4894,-5.4983,-5.496,-5.5268,-5.5646,-5.5778,-5.6136,-5.6306,-5.6486,-5.6584,-5.6591,-5.6614,-5.6619,-5.6603,-5.6606,-5.6607,-5.6614,-5.6613,-5.6616,-5.662,-5.662,-5.6621,-5.6621,-5.6621,-5.6914,-5.7108,-5.687,-5.6964,-5.7114,-5.6868,-5.6665,-5.6623,-5.6604,-5.6602,-5.6555,-5.6478,-5.6101,-5.5385,-5.4801,-5.4436,-5.4074,-5.3446,-5.2919,-5.2389,-5.1742,-5.1424,-5.1775,-5.1392,-5.1106,-5.137,-5.1357,-5.1073,-5.0846,-5.0793,-5.0748,-5.073,-5.0712,-5.0683,-5.0683,-5.0683,-5.0683,-5.0683,-5.0595,-5.0477,-5.0111,-4.989,-4.9525,-4.9332,-4.9548,-4.9688,-4.9781,-5.0053,-5.0333,-5.0356,-5.039,-5.0435,-5.0489,-5.0462,-5.0146,-5.0063,-4.993,-4.9498,-4.9057,-4.8634,-4.7818,-4.6665,-4.5858,-4.5369,-4.5338,-4.5451,-4.5462,-5.6621,-5.6621,-5.6618,-5.6617,-5.6618,-5.6614,-5.6609,-5.6621,-5.6621,-5.6616,-5.6606,-5.6567,-5.594,-5.5172,-5.4828,-5.4072,-5.3403,-5.3341,-5.3474,-5.3642,-5.381,-5.3841,-5.3904,-5.3978,-5.4145,-5.3888,-5.3946,-5.4359,-5.4812,-5.5077,-5.5502,-5.5964,-5.6387,-5.6528,-5.6567,-5.6596,-5.6621,-5.6605,-5.6621,-5.6618,-5.6611,-5.661,-5.6609,-5.6695,-5.6871,-5.6834,-5.6835,-5.6894,-5.7324,-5.7498,-5.7455,-5.7352,-5.7402,-5.7297,-5.6879,-5.6701,-5.6623,-5.6643,-5.6599,-5.6484,-5.6234,-5.5751,-5.5584,-5.5191,-5.4737,-5.4336,-5.3862,-5.3392,-5.2544,-5.2098,-5.2688,-5.232,-5.1872,-5.2086,-5.1768,-5.1465,-5.1015,-5.0846,-5.0793,-5.0738,-5.071,-5.0682,-5.0683,-5.0683,-5.0673,-5.0673,-5.0663,-5.0604,-5.0458,-5.0343,-5.0353,-5.0207,-5.0261,-5.0333,-5.0416,-5.0379,-5.0344,-5.0379,-5.0412,-5.0457,-5.0508,-5.0511,-5.0551,-5.038,-5.0256,-5.0169,-4.9815,-4.9297,-4.8374,-4.7346,-4.673,-4.6219,-4.6299,-4.6412,-4.6,-5.6619,-5.6618,-5.6609,-5.6592,-5.6539,-5.6595,-5.6607,-5.658,-5.6502,-5.6536,-5.6547,-5.6467,-5.5565,-5.4387,-5.4106,-5.3175,-5.2181,-5.2363,-5.2629,-5.2754,-5.312,-5.3619,-5.3658,-5.356,-5.3439,-5.3833,-5.3814,-5.3794,-5.4199,-5.4885,-5.526,-5.5645,-5.6218,-5.6524,-5.6528,-5.658,-5.6612,-5.6619,-5.6619,-5.6605,-5.6607,-5.6609,-5.6609,-5.6748,-5.7297,-5.7319,-5.7108,-5.7558,-5.8027,-5.826,-5.806,-5.7957,-5.7913,-5.7904,-5.743,-5.6667,-5.6782,-5.6779,-5.6682,-5.6598,-5.6549,-5.6433,-5.629,-5.6008,-5.5983,-5.5503,-5.4787,-5.4239,-5.376,-5.3495,-5.3598,-5.339,-5.2804,-5.2562,-5.2253,-5.1842,-5.1412,-5.1195,-5.1228,-5.108,-5.0834,-5.0701,-5.0702,-5.0693,-5.0673,-5.0682,-5.0692,-5.0653,-5.0623,-5.0623,-5.0643,-5.0623,-5.0553,-5.05,-5.0457,-5.0379,-5.0337,-5.0401,-5.0435,-5.0478,-5.0551,-5.0603,-5.0613,-5.0603,-5.0535,-5.0381,-5.018,-4.9883,-4.9143,-4.8479,-4.782,-4.7414,-4.7467,-4.7306,-4.6855,-5.662,-5.6618,-5.6612,-5.6257,-5.5867,-5.6387,-5.6614,-5.6495,-5.6064,-5.6044,-5.6252,-5.5487,-5.4662,-5.3952,-5.3273,-5.248,-5.1655,-5.1432,-5.1752,-5.1826,-5.2185,-5.2099,-5.2216,-5.243,-5.2586,-5.2937,-5.3112,-5.3814,-5.4827,-5.5095,-5.5591,-5.6051,-5.6266,-5.6459,-5.6503,-5.656,-5.6608,-5.661,-5.661,-5.6612,-5.6616,-5.6618,-5.6639,-5.6683,-5.7508,-5.7767,-5.7556,-5.83,-5.8886,-5.9197,-5.9018,-5.8702,-5.8659,-5.8652,-5.8023,-5.7356,-5.7332,-5.8261,-5.8061,-5.7866,-5.7379,-5.7186,-5.6743,-5.6442,-5.6314,-5.5522,-5.5124,-5.4905,-5.442,-5.42,-5.4316,-5.3215,-5.2664,-5.3017,-5.2782,-5.2317,-5.1954,-5.1912,-5.1869,-5.1584,-5.1331,-5.0873,-5.071,-5.0711,-5.0693,-5.0693,-5.0712,-5.0693,-5.0663,-5.0663,-5.0673,-5.0653,-5.0623,-5.0572,-5.0508,-5.0424,-5.0337,-5.0348,-5.0435,-5.0489,-5.0572,-5.0633,-5.0623,-5.0582,-5.0593,-5.0575,-5.0383,-5.0229,-5.0181,-4.9729,-4.8916,-4.8328,-4.8218,-4.7999,-4.7652,-5.6424,-5.6168,-5.6161,-5.5646,-5.5054,-5.579,-5.6001,-5.5708,-5.5396,-5.5493,-5.5394,-5.4448,-5.3796,-5.3434,-5.289,-5.2145,-5.1414,-5.1335,-5.1324,-5.13,-5.1328,-5.1437,-5.1417,-5.1398,-5.2002,-5.2391,-5.2762,-5.3366,-5.455,-5.5018,-5.5626,-5.6223,-5.65,-5.6482,-5.6503,-5.655,-5.6582,-5.6584,-5.6606,-5.6606,-5.6606,-5.6647,-5.6786,-5.7221,-5.7814,-5.8308,-5.855,-5.9101,-5.9843,-6.0096,-5.9956,-5.9544,-5.9522,-5.9361,-5.8829,-5.8318,-5.8291,-5.9195,-5.9226,-5.8265,-5.7915,-5.8153,-5.713,-5.65,-5.6354,-5.5885,-5.5664,-5.5349,-5.4826,-5.4938,-5.4951,-5.3676,-5.339,-5.3764,-5.3388,-5.2916,-5.2702,-5.2681,-5.2252,-5.1989,-5.1421,-5.1022,-5.0738,-5.0748,-5.0749,-5.074,-5.073,-5.0702,-5.0693,-5.0693,-5.0683,-5.0673,-5.0643,-5.0593,-5.0532,-5.0478,-5.0404,-5.0337,-5.0404,-5.0511,-5.0532,-5.0573,-5.0582,-5.0582,-5.0613,-5.0633,-5.0604,-5.0527,-5.0431,-5.0219,-4.9775,-4.9285,-4.9009,-4.871,-4.844,-5.6067,-5.5361,-5.5269,-5.4773,-5.4186,-5.481,-5.4713,-5.4127,-5.483,-5.4732,-5.4066,-5.3938,-5.3359,-5.2799,-5.2584,-5.2044,-5.1445,-5.132,-5.13,-5.13,-5.13,-5.1339,-5.1456,-5.1534,-5.2251,-5.2602,-5.3054,-5.3755,-5.4184,-5.508,-5.5879,-5.6305,-5.6475,-5.6491,-5.6517,-5.6525,-5.6558,-5.6582,-5.6604,-5.6604,-5.6604,-5.6626,-5.6881,-5.7432,-5.8238,-5.8774,-5.9211,-5.9879,-6.0351,-6.0547,-6.0447,-6.0386,-6.0382,-6.0415,-5.9865,-5.9488,-5.9324,-5.9705,-6.0046,-5.8953,-5.8457,-5.8552,-5.7345,-5.673,-5.6363,-5.6242,-5.6119,-5.6078,-5.5828,-5.5991,-5.594,-5.5236,-5.4562,-5.4412,-5.4069,-5.3758,-5.3545,-5.3201,-5.2676,-5.2121,-5.1381,-5.0957,-5.0829,-5.0812,-5.0775,-5.0794,-5.0776,-5.073,-5.0702,-5.0693,-5.0693,-5.0683,-5.0653,-5.0613,-5.0553,-5.0521,-5.0478,-5.0404,-5.0457,-5.0532,-5.0542,-5.0553,-5.0573,-5.0613,-5.0673,-5.0682,-5.0653,-5.0623,-5.0584,-5.0352,-5.011,-5.0092,-4.9738,-4.9516,-4.9266,-5.554,-5.5239,-5.4628,-5.3881,-5.319,-5.3357,-5.3611,-5.3969,-5.3691,-5.355,-5.3938,-5.2629,-5.2341,-5.2565,-5.1962,-5.1561,-5.1398,-5.13,-5.13,-5.13,-5.1316,-5.171,-5.1982,-5.2232,-5.3108,-5.3927,-5.4453,-5.4652,-5.5548,-5.6074,-5.6094,-5.6471,-5.6494,-5.6508,-5.6523,-5.6531,-5.6558,-5.6582,-5.6604,-5.6604,-5.6606,-5.6606,-5.6903,-5.7434,-5.8478,-5.9031,-5.9604,-6.0604,-6.1113,-6.1269,-6.1307,-6.115,-6.0409,-6.0931,-6.106,-6.0965,-6.0588,-6.0371,-6.0837,-5.9702,-5.8839,-5.8727,-5.7509,-5.6702,-5.6429,-5.6412,-5.6407,-5.6377,-5.6336,-5.6325,-5.6108,-5.5546,-5.5184,-5.4958,-5.4653,-5.4472,-5.42,-5.3728,-5.3157,-5.224,-5.1502,-5.099,-5.0863,-5.0846,-5.081,-5.0838,-5.0859,-5.0873,-5.0769,-5.076,-5.0693,-5.0683,-5.0673,-5.0643,-5.0613,-5.0563,-5.0532,-5.05,-5.0532,-5.0553,-5.0563,-5.0584,-5.0623,-5.0633,-5.0663,-5.0682,-5.0683,-5.0643,-5.0603,-5.054,-5.0355,-5.0464,-5.0485,-5.0159,-5.0006,-5.4895,-5.4241,-5.3731,-5.2985,-5.2273,-5.2196,-5.2525,-5.2882,-5.276,-5.2894,-5.281,-5.1834,-5.1583,-5.1915,-5.1565,-5.1316,-5.1308,-5.1304,-5.13,-5.1272,-5.1343,-5.1841,-5.2293,-5.2769,-5.3572,-5.4604,-5.5329,-5.5411,-5.6269,-5.6487,-5.6484,-5.6484,-5.6484,-5.653,-5.6548,-5.6555,-5.658,-5.6602,-5.6604,-5.6604,-5.6645,-5.6706,-5.6928,-5.7636,-5.8739,-5.9291,-6.0095,-6.1328,-6.1601,-6.1699,-6.1698,-6.1503,-6.0957,-6.1441,-6.1683,-6.151,-6.1291,-6.1152,-6.1308,-6.041,-5.9622,-5.8875,-5.7816,-5.7031,-5.6574,-5.644,-5.6446,-5.6427,-5.6382,-5.6278,-5.5919,-5.5623,-5.5546,-5.5476,-5.5288,-5.5126,-5.4718,-5.4272,-5.343,-5.2475,-5.1738,-5.1122,-5.0897,-5.0891,-5.0902,-5.0968,-5.1222,-5.1478,-5.1221,-5.0923,-5.0789,-5.0693,-5.0683,-5.0673,-5.0663,-5.0681,-5.0641,-5.061,-5.0572,-5.0593,-5.0603,-5.0613,-5.0633,-5.0623,-5.0642,-5.0663,-5.0683,-5.0643,-5.0593,-5.054,-5.053,-5.0572,-5.0582,-5.0455,-5.0401,-5.4151,-5.2757,-5.2638,-5.2163,-5.1468,-5.1464,-5.1472,-5.1469,-5.2213,-5.2155,-5.1544,-5.1356,-5.1346,-5.1475,-5.1324,-5.1284,-5.1276,-5.1291,-5.1442,-5.1313,-5.1546,-5.2119,-5.2868,-5.2951,-5.4171,-5.4907,-5.5437,-5.5879,-5.6288,-5.6487,-5.6496,-5.6492,-5.6491,-5.6511,-5.6509,-5.656,-5.6682,-5.6936,-5.6918,-5.6899,-5.6901,-5.7005,-5.748,-5.8713,-5.9365,-5.9838,-6.1013,-6.1601,-6.1698,-6.1699,-6.1699,-6.166,-6.1639,-6.1635,-6.1699,-6.1688,-6.1564,-6.1601,-6.1425,-6.0705,-5.9878,-5.9131,-5.8304,-5.7509,-5.7017,-5.6562,-5.6487,-5.6684,-5.67,-5.6699,-5.6444,-5.5989,-5.5796,-5.5773,-5.5702,-5.567,-5.5547,-5.4841,-5.3773,-5.2923,-5.239,-5.1834,-5.1803,-5.1896,-5.1945,-5.1636,-5.1708,-5.214,-5.2028,-5.1567,-5.1433,-5.1222,-5.1048,-5.1106,-5.0962,-5.0942,-5.0807,-5.0749,-5.0815,-5.0863,-5.1075,-5.0902,-5.0633,-5.0633,-5.0643,-5.0673,-5.0682,-5.0633,-5.0603,-5.0582,-5.0582,-5.0623,-5.0613,-5.0553,-5.0603,-5.3098,-5.2638,-5.1994,-5.1576,-5.1421,-5.1403,-5.1369,-5.1336,-5.1518,-5.156,-5.1353,-5.1319,-5.13,-5.1292,-5.1296,-5.128,-5.123,-5.1293,-5.171,-5.1891,-5.2023,-5.2689,-5.4095,-5.4051,-5.5,-5.5816,-5.623,-5.6191,-5.6409,-5.6487,-5.6496,-5.6512,-5.6572,-5.6628,-5.6645,-5.6716,-5.7055,-5.7484,-5.766,-5.768,-5.7701,-5.8211,-5.8859,-5.934,-5.966,-6.0133,-6.1015,-6.1425,-6.1582,-6.1698,-6.1699,-6.1698,-6.1713,-6.1705,-6.1715,-6.1703,-6.1698,-6.1698,-6.1505,-6.0959,-6.0134,-5.9217,-5.8412,-5.7908,-5.7366,-5.6819,-5.6679,-5.6955,-5.7074,-5.7074,-5.6923,-5.643,-5.6033,-5.6055,-5.6076,-5.6174,-5.624,-5.5184,-5.4097,-5.3507,-5.3014,-5.2843,-5.2787,-5.2822,-5.293,-5.2972,-5.3014,-5.3166,-5.3096,-5.2838,-5.2897,-5.2627,-5.1875,-5.1722,-5.1529,-5.1433,-5.1432,-5.1509,-5.1634,-5.1634,-5.1576,-5.123,-5.0922,-5.075,-5.0683,-5.0702,-5.0682,-5.0653,-5.0613,-5.0613,-5.0613,-5.0633,-5.0633,-5.0603,-5.0633,-5.2473,-5.2076,-5.1621,-5.1394,-5.1396,-5.1375,-5.1336,-5.13,-5.1304,-5.1308,-5.1296,-5.1304,-5.1292,-5.13,-5.1304,-5.1267,-5.1211,-5.1235,-5.1434,-5.1799,-5.2276,-5.2971,-5.3842,-5.4616,-5.5351,-5.6052,-5.6348,-5.6416,-5.6483,-5.6487,-5.6496,-5.657,-5.6728,-5.7018,-5.7094,-5.7419,-5.7816,-5.8382,-5.8656,-5.8853,-5.8799,-5.9132,-5.9431,-5.9697,-6.0092,-6.0545,-6.1035,-6.1484,-6.1581,-6.1716,-6.1717,-6.1713,-6.1707,-6.1701,-6.1711,-6.1703,-6.1698,-6.1698,-6.1544,-6.1132,-6.0351,-5.9412,-5.8822,-5.8415,-5.7726,-5.7295,-5.7595,-5.7812,-5.7472,-5.742,-5.7211,-5.6796,-5.6381,-5.6216,-5.6127,-5.6109,-5.5818,-5.5094,-5.4259,-5.3676,-5.3351,-5.3289,-5.3232,-5.3201,-5.3309,-5.3409,-5.3586,-5.4033,-5.3992,-5.4023,-5.4121,-5.3975,-5.3195,-5.2626,-5.2452,-5.2337,-5.226,-5.2356,-5.2491,-5.2481,-5.2394,-5.1712,-5.1241,-5.1144,-5.0952,-5.0683,-5.0663,-5.0643,-5.0643,-5.0653,-5.0643,-5.0623,-5.0623,-5.0633,-5.0673,-5.2083,-5.1435,-5.1403,-5.1388,-5.1394,-5.133,-5.1303,-5.1304,-5.13,-5.13,-5.13,-5.1296,-5.1296,-5.1284,-5.1295,-5.1249,-5.1206,-5.121,-5.1281,-5.1528,-5.1553,-5.2697,-5.3461,-5.3972,-5.4891,-5.551,-5.5804,-5.6203,-5.6459,-5.6303,-5.6234,-5.659,-5.7118,-5.7665,-5.8008,-5.8431,-5.8792,-5.928,-5.971,-6.0261,-6.013,-5.9862,-6.0103,-6.0382,-6.0621,-6.0995,-6.1465,-6.1679,-6.1698,-6.1713,-6.171,-6.1705,-6.1701,-6.1715,-6.1709,-6.1701,-6.1698,-6.1698,-6.1659,-6.1601,-6.0639,-5.9795,-5.9419,-5.8936,-5.8285,-5.8289,-5.8609,-5.8674,-5.8338,-5.7862,-5.7649,-5.7201,-5.6805,-5.6319,-5.6191,-5.6096,-5.5624,-5.5217,-5.4699,-5.409,-5.4063,-5.4001,-5.3944,-5.3886,-5.3893,-5.3973,-5.4169,-5.4587,-5.4889,-5.4988,-5.5075,-5.4891,-5.4389,-5.3907,-5.3482,-5.3106,-5.2924,-5.3241,-5.3356,-5.3356,-5.3183,-5.2549,-5.201,-5.1654,-5.1433,-5.1087,-5.0779,-5.0673,-5.0683,-5.0702,-5.0673,-5.0653,-5.0663,-5.0663,-5.0673,-5.1556,-5.1391,-5.1389,-5.1392,-5.1403,-5.1391,-5.1333,-5.1304,-5.13,-5.13,-5.1296,-5.13,-5.1287,-5.1205,-5.122,-5.122,-5.1208,-5.1217,-5.1733,-5.2161,-5.1847,-5.2719,-5.345,-5.3716,-5.4433,-5.4877,-5.5165,-5.5264,-5.6154,-5.5881,-5.5808,-5.6515,-5.6608,-5.7171,-5.786,-5.8384,-5.9007,-5.9788,-6.0373,-6.0749,-6.1278,-6.1188,-6.1297,-6.1419,-6.1462,-6.1562,-6.168,-6.1699,-6.1717,-6.1711,-6.1699,-6.1715,-6.1711,-6.1709,-6.1703,-6.1701,-6.1698,-6.1698,-6.1698,-6.1698,-6.0873,-6.021,-5.9931,-5.9934,-5.956,-5.9557,-5.9934,-6.0365,-5.9893,-5.8996,-5.8559,-5.7785,-5.7254,-5.6628,-5.6288,-5.6245,-5.6006,-5.5922,-5.5702,-5.5508,-5.5461,-5.5426,-5.5382,-5.5304,-5.5225,-5.5266,-5.523,-5.5552,-5.5506,-5.574,-5.5914,-5.5625,-5.5286,-5.4937,-5.4406,-5.3751,-5.3559,-5.3944,-5.4241,-5.4222,-5.3991,-5.3433,-5.2933,-5.2577,-5.2,-5.1568,-5.1241,-5.0952,-5.0741,-5.076,-5.0702,-5.0683,-5.0683,-5.0683,-5.0683]},{"header":{"parameterUnit":"m.s-1","parameterCategory":1,"la1":31.0,"la2":29.5877,"lo1":-88.7671,"lo2":-86.6584,"dy":0.0162,"dx":0.0185,"nx":115,"ny":88,"refTime":"2023-04-02T06:00:00:Z","depth":0,"parameterNumber":3,"parameterNumberName":"V-component_of_WINDS"},"data":[0.0,0.0,0.0,0.0,0.0,0.0,0.0,0.0,0.0,0.0,0.0,0.0,0.0,0.0,0.0,0.0,0.0,0.0,0.0,0.0,0.0,0.0,0.0,0.0,0.0,0.0,0.0,0.0,0.0,0.0,0.0,0.0,0.0,0.0,0.0,0.0,0.0,0.0,0.0,0.0,0.0,0.0,0.0,0.0,0.0,0.0,0.0,0.0,0.0,0.0,0.0,0.0,0.0,0.0,0.0,0.0,0.0,0.0,0.0,0.0,0.0,0.0,0.0,0.0,0.0,0.0,0.0,0.0,0.0,0.0,0.0,0.0,0.0,0.0,0.0,0.0,0.0,0.0,0.0,0.0,0.0,0.0,0.0,0.0,0.0,0.0,0.0,0.0,0.0,0.0,0.0,0.0,0.0,0.0,0.0,0.0,0.0,0.0,0.0,0.0,0.0,0.0,0.0,0.0,0.0,0.0,0.0,0.0,0.0,0.0,0.0,0.0,0.0,0.0,0.0,0.0,0.0,0.0,0.0,0.0,0.0,0.0,0.0,0.0,0.0,0.0,0.0,0.0,0.0,0.0,0.0,0.0,0.0,0.0,0.0,0.0,0.0,0.0,0.0,0.0,0.0,0.0,0.0,0.0,0.0,0.0,0.0,0.0,0.0,0.0,0.0,0.0,0.0,0.0,0.0,0.0,0.0,0.0,0.0,0.0,0.0,0.0,0.0,0.0,0.0,0.0,0.0,0.0,0.0,0.0,0.0,0.0,0.0,0.0,0.0,0.0,0.0,0.0,0.0,0.0,0.0,0.0,0.0,0.0,0.0,0.0,0.0,0.0,0.0,0.0,0.0,0.0,0.0,0.0,0.0,0.0,0.0,0.0,0.0,0.0,0.0,0.0,0.0,0.0,0.0,0.0,0.0,0.0,0.0,0.0,0.0,0.0,0.0,0.0,0.0,0.0,0.0,0.0,0.0,0.0,0.0,0.0,0.0,0.0,0.0,0.0,0.0,0.0,0.0,0.0,0.0,0.0,0.0,0.0,0.0,0.0,0.0,0.0,0.0,0.0,0.0,0.0,0.0,0.0,0.0,0.0,0.0,0.0,0.0,0.0,0.0,0.0,0.0,0.0,0.0,0.0,0.0,0.0,0.0,0.0,0.0,0.0,0.0,0.0,0.0,0.0,0.0,0.0,0.0,0.0,0.0,0.0,0.0,0.0,0.0,0.0,0.0,0.0,0.0,0.0,0.0,0.0,0.0,0.0,0.0,0.0,0.0,0.0,0.0,0.0,0.0,0.0,0.0,0.0,0.0,0.0,0.0,0.0,0.0,0.0,0.0,0.0,0.0,0.0,0.0,0.0,0.0,0.0,0.0,0.0,0.0,0.0,0.0,0.0,0.0,0.0,0.0,0.0,0.0,0.0,0.0,0.0,0.0,0.0,0.0,0.0,0.0,0.0,0.0,0.0,0.0,0.0,0.0,0.0,0.0,0.0,0.0,0.0,0.0,0.0,0.0,0.0,0.0,0.0,0.0,0.0,0.0,0.0,0.0,0.0,0.0,0.0,0.0,0.0,0.0,0.0,0.0,0.0,0.0,0.0,0.0,0.0,0.0,0.0,0.0,0.0,0.0,0.0,0.0,0.0,0.0,0.0,0.0,0.0,0.0,0.0,0.0,0.0,0.0,0.0,0.0,0.0,0.0,0.0,0.0,0.0,0.0,0.0,0.0,0.0,0.0,0.0,0.0,0.0,0.0,0.0,0.0,0.0,0.0,0.0,0.0,0.0,0.0,0.0,0.0,0.0,0.0,0.0,0.0,0.0,0.0,0.0,0.0,0.0,0.0,0.0,0.0,0.0,0.0,0.0,0.0,0.0,0.0,0.0,0.0,0.0,0.0,0.0,0.0,0.0,0.0,0.0,0.0,0.0,0.0,0.0,0.0,0.0,0.0,0.0,0.0,0.0,0.0,0.0,0.0,0.0,0.0,0.0,0.0,0.0,0.0,0.0,0.0,0.0,0.0,0.0,0.0,0.0,0.0,0.0,0.0,0.0,0.0,0.0,0.0,0.0,0.0,0.0,0.0,0.0,0.0,0.0,0.0,0.0,0.0,0.0,0.0,0.0,0.0,0.0,0.0,0.0,0.0,0.0,0.0,0.0,0.0,0.0,0.0,0.0,0.0,0.0,0.0,0.0,0.0,0.0,0.0,0.0,0.0,0.0,0.0,0.0,0.0,0.0,0.0,0.0,0.0,0.0,0.0,0.0,0.0,0.0,0.0,0.0,0.0,0.0,0.0,0.0,0.0,0.0,0.0,0.0,0.0,0.0,0.0,0.0,0.0,0.0,0.0,0.0,0.0,0.0,0.0,0.0,0.0,0.0,0.0,0.0,0.0,0.0,0.0,0.0,0.0,0.0,0.0,0.0,0.0,0.0,0.0,0.0,0.0,0.0,0.0,0.0,0.0,0.0,0.0,0.0,0.0,0.0,0.0,0.0,0.0,0.0,0.0,0.0,0.0,0.0,0.0,0.0,0.0,0.0,0.0,0.0,0.0,0.0,0.0,0.0,0.0,0.0,0.0,0.0,0.0,0.0,0.0,0.0,0.0,0.0,0.0,0.0,0.0,0.0,0.0,0.0,0.0,0.0,0.0,0.0,0.0,0.0,0.0,0.0,0.0,0.0,0.0,0.0,0.0,0.0,0.0,0.0,0.0,0.0,0.0,0.0,0.0,0.0,0.0,0.0,0.0,0.0,0.0,0.0,0.0,0.0,0.0,0.0,0.0,0.0,0.0,0.0,0.0,0.0,0.0,0.0,0.0,0.0,0.0,0.0,0.0,0.0,0.0,0.0,0.0,0.0,0.0,0.0,0.0,0.0,0.0,0.0,0.0,0.0,0.0,0.0,0.0,0.0,0.0,0.0,0.0,0.0,0.0,0.0,0.0,0.0,0.0,0.0,0.0,0.0,0.0,0.0,0.0,0.0,0.0,0.0,0.0,0.0,0.0,0.0,0.0,0.0,0.0,0.0,0.0,0.0,0.0,0.0,0.0,0.0,0.0,0.0,0.0,0.0,0.0,0.0,0.0,0.0,0.0,0.0,0.0,0.0,0.0,0.0,0.0,0.0,0.0,0.0,0.0,0.0,0.0,0.0,0.0,0.0,0.0,0.0,0.0,0.0,0.0,0.0,0.0,0.0,0.0,0.0,0.0,0.0,0.0,0.0,0.0,0.0,0.0,0.0,0.0,0.0,0.0,0.0,0.0,0.0,0.0,0.0,0.0,0.0,0.0,0.0,0.0,0.0,0.0,0.0,0.0,0.0,0.0,0.0,0.0,0.0,0.0,0.0,0.0,0.0,0.0,0.0,0.0,0.0,0.0,0.0,0.0,0.0,0.0,0.0,0.0,0.0,0.0,0.0,0.0,0.0,0.0,0.0,0.0,0.0,0.0,0.0,0.0,0.0,0.0,0.0,0.0,0.0,0.0,0.0,0.0,0.0,0.0,0.0,0.0,0.0,0.0,0.0,0.0,0.0,0.0,0.0,0.0,0.0,0.0,0.0,0.0,0.0,0.0,0.0,0.0,0.0,0.0,0.0,0.0,0.0,0.0,0.0,0.0,0.0,0.0,0.0,0.0,0.0,0.0,0.0,0.0,0.0,0.0,0.0,0.0,0.0,0.0,0.0,0.0,0.0,0.0,0.0,0.0,0.0,0.0,0.0,0.0,0.0,0.0,0.0,0.0,0.0,0.0,0.0,0.0,0.0,0.0,0.0,0.0,0.0,0.0,0.0,0.0,0.0,0.0,0.0,0.0,0.0,0.0,0.0,0.0,0.0,0.0,0.0,0.0,0.0,0.0,0.0,0.0,0.0,0.0,0.0,0.0,0.0,0.0,0.0,0.0,0.0,0.0,0.0,0.0,0.0,0.0,0.0,0.0,0.0,0.0,0.0,0.0,0.0,0.0,0.0,0.0,0.0,0.0,0.0,0.0,0.0,0.0,0.0,0.0,0.0,0.0,0.0,0.0,0.0,0.0,0.0,0.0,0.0,0.0,0.0,0.0,0.0,0.0,0.0,0.0,0.0,0.0,0.0,0.0,0.0,0.0,0.0,0.0,0.0,0.0,0.0,0.0,0.0,0.0,0.0,0.0,0.0,0.0,0.0,0.0,0.0,0.0,0.0,0.0,0.0,0.0,0.0,0.0,0.0,0.0,0.0,0.0,0.0,0.0,0.0,0.0,0.0,0.0,0.0,0.0,0.0,0.0,0.0,0.0,0.0,0.0,0.0,1.1945,0.0,0.0,0.0,0.0,0.0,0.0,0.0,0.0,0.0,0.0,0.0,0.0,0.0,0.0,0.0,0.0,0.0,0.0,0.0,0.0,0.0,0.0,0.0,0.0,0.0,0.0,0.0,0.0,0.0,0.0,0.0,0.0,0.0,0.0,0.0,0.0,0.0,0.0,0.0,0.0,0.0,0.0,0.0,0.0,0.0,0.0,0.0,0.0,0.0,0.0,0.0,0.0,0.0,0.0,0.0,0.0,0.0,0.0,0.0,0.0,0.0,0.0,0.0,0.0,0.0,0.0,0.0,0.0,0.0,0.0,0.0,0.0,0.0,0.0,0.0,0.0,0.0,0.0,0.0,0.0,0.0,0.0,0.0,0.0,0.0,0.0,0.0,0.0,0.0,0.0,0.0,0.0,0.0,0.0,0.0,0.0,0.0,0.0,0.0,0.0,0.0,0.0,0.0,0.0,0.0,0.0,0.0,0.0,0.0,0.0,1.2355,1.248,1.2173,1.2009,1.2009,0.0,0.0,0.0,0.0,0.0,0.0,0.0,0.0,0.0,0.0,0.0,0.0,0.0,0.0,0.0,0.0,0.0,0.0,0.0,0.0,0.0,0.0,0.0,0.0,0.0,0.0,0.0,0.0,0.0,0.0,0.0,0.0,0.0,0.0,0.0,0.0,0.0,0.0,0.0,0.0,0.0,0.0,0.0,0.0,0.0,0.0,0.0,0.0,0.0,0.0,0.0,0.0,0.0,0.0,0.0,0.0,0.0,0.0,0.0,0.0,0.0,0.0,0.0,0.0,0.0,0.0,0.0,0.0,0.0,0.0,0.0,0.0,0.0,0.0,0.0,0.0,0.0,0.0,0.0,0.0,0.0,0.0,0.0,0.0,0.0,0.0,0.0,0.0,0.0,0.0,0.0,0.0,0.0,0.0,0.0,0.0,0.0,0.0,0.0,0.0,0.0,0.0,0.0,0.0,0.0,0.0,0.0,0.0,0.0,0.0,0.0,0.0,1.196,1.1868,1.2112,0.0,0.0,0.0,0.0,0.0,0.0,0.0,0.0,0.0,0.0,0.0,0.0,0.0,0.0,0.0,0.0,0.0,0.0,0.0,0.0,0.0,0.0,0.0,0.0,0.0,0.0,0.0,0.0,0.0,0.0,0.0,0.0,0.0,0.0,0.0,0.0,0.0,0.0,0.0,0.0,0.0,0.0,0.0,0.0,0.0,0.0,0.0,0.0,0.0,0.0,0.0,0.0,0.0,0.0,0.0,0.0,0.0,0.0,0.0,0.0,0.0,0.0,0.0,0.0,0.0,0.0,0.0,0.0,0.0,0.0,0.0,0.0,0.0,0.0,0.0,0.0,0.0,0.0,0.0,0.0,0.0,0.0,0.0,0.0,0.0,0.0,0.0,0.0,0.0,0.0,0.0,0.0,0.0,0.0,0.0,0.0,0.0,0.0,0.0,0.0,0.0,0.0,0.0,0.0,0.0,0.0,0.0,0.0,0.0,0.0,1.2595,1.1978,1.2327,0.0,1.196,0.0,0.0,0.0,0.0,0.0,0.0,0.0,0.0,0.0,0.0,0.0,0.0,0.0,0.0,0.0,0.0,0.0,0.0,0.0,0.0,0.0,0.0,0.0,0.0,0.0,0.0,0.0,0.0,0.0,0.0,0.0,0.0,0.0,0.0,0.0,0.0,0.0,0.0,0.0,0.0,0.0,0.0,0.0,0.0,0.0,0.0,0.0,0.0,0.0,0.0,0.0,0.0,0.0,0.0,0.0,0.0,0.0,0.0,0.0,0.0,0.0,0.0,0.0,0.0,0.0,0.0,0.0,0.0,0.0,0.0,0.0,0.0,0.0,0.0,0.0,0.0,0.0,0.0,0.0,0.0,0.0,0.0,0.0,0.0,0.0,0.0,0.0,0.0,0.0,0.0,0.0,0.0,0.0,0.0,0.0,0.0,0.0,0.0,0.0,0.0,0.0,0.0,0.0,0.0,0.0,0.0,0.0,0.0,0.0,0.0,1.2558,1.2254,1.2248,1.2105,0.0,0.0,0.0,0.0,0.0,0.0,0.0,0.0,0.0,0.0,0.0,0.0,0.0,0.0,0.0,0.0,0.0,0.0,0.0,0.0,0.0,0.0,0.0,0.0,0.0,0.0,0.0,0.0,0.0,0.0,0.0,0.0,0.0,0.0,0.0,0.0,0.0,0.0,0.0,0.0,0.0,0.0,0.0,0.0,0.0,0.0,0.0,0.0,0.0,0.0,0.0,0.0,0.0,0.0,0.0,0.0,0.0,0.0,0.0,0.0,0.0,0.0,0.0,0.0,0.0,0.0,0.0,0.0,0.0,0.0,0.0,0.0,0.0,0.0,0.0,0.0,0.0,0.0,0.0,0.0,0.0,0.0,0.0,0.0,0.0,0.0,0.0,0.0,0.0,0.0,0.0,0.0,0.0,0.0,0.0,0.0,0.0,0.0,0.0,0.0,0.0,0.0,0.0,0.0,0.0,0.0,0.0,0.0,0.0,0.0,1.2456,1.2605,1.2533,1.2211,1.1947,1.1762,0.0,0.0,0.0,0.0,0.0,0.0,0.0,0.0,0.0,0.0,0.0,0.0,0.0,0.0,0.0,0.0,0.0,0.0,0.0,0.0,0.0,0.0,0.0,0.0,0.0,0.0,0.0,0.0,0.0,0.0,0.0,0.0,0.0,0.0,0.0,0.0,0.0,0.0,0.0,0.0,0.0,0.0,0.0,0.0,0.0,0.0,0.0,0.0,0.0,0.0,0.0,0.0,0.0,0.0,0.0,0.0,0.0,0.0,0.0,0.0,0.0,0.0,0.0,0.0,0.0,0.0,0.0,0.0,0.0,0.0,0.0,0.0,0.0,0.0,0.0,0.0,0.0,0.0,0.0,0.0,0.0,0.0,0.0,0.0,0.0,0.0,0.0,0.0,0.0,0.0,0.0,0.0,0.0,0.0,0.0,0.0,0.0,0.0,0.0,0.0,0.0,0.0,0.0,0.0,0.0,0.0,0.0,0.0,1.2089,1.265,1.2827,1.2579,1.2342,1.2103,0.0,0.0,0.0,0.0,0.0,0.0,0.0,0.0,0.0,0.0,0.0,0.0,0.0,0.0,0.0,0.0,0.0,0.0,0.0,0.0,0.0,0.0,0.0,0.0,0.0,0.0,0.0,0.0,0.0,0.0,0.0,0.0,0.0,0.0,0.0,0.0,0.0,0.0,0.0,0.0,0.0,0.0,0.0,0.0,0.0,0.0,0.0,0.0,0.0,0.0,0.0,0.0,0.0,0.0,0.0,0.0,0.0,0.0,0.0,0.0,0.0,0.0,0.0,0.0,0.0,0.0,0.0,0.0,0.0,0.0,0.0,0.0,0.0,0.0,0.0,0.0,0.0,0.0,0.0,0.0,0.0,0.0,0.0,0.0,0.0,0.0,0.0,0.0,0.0,0.0,0.0,0.0,0.0,0.0,0.0,0.0,0.0,0.0,0.0,0.0,0.0,0.0,0.0,0.0,0.0,0.0,0.0,0.0,0.0,1.1771,1.2238,1.2389,1.2148,1.211,1.1956,0.0,0.0,0.0,0.0,0.0,0.0,0.0,0.0,0.0,0.0,0.0,0.0,0.0,0.0,0.0,0.0,0.0,0.0,0.0,0.0,0.0,0.0,0.0,0.0,0.0,0.0,0.0,0.0,0.0,0.0,0.0,0.0,0.0,0.0,0.0,0.0,0.0,0.0,0.0,0.0,0.0,0.0,0.0,0.0,0.0,0.0,0.0,0.0,0.0,0.0,0.0,0.0,0.0,0.0,0.0,0.0,0.0,0.0,0.0,0.0,0.0,0.0,0.0,0.0,0.0,0.0,0.0,0.0,0.0,0.0,0.0,0.0,0.0,0.0,0.0,0.0,0.0,0.0,0.0,0.0,0.0,0.0,0.0,0.0,0.0,0.0,0.0,0.0,0.0,0.0,0.0,0.0,0.0,0.0,0.0,0.0,0.0,0.0,0.0,0.0,0.0,0.0,0.0,0.0,0.0,0.0,0.0,0.0,0.0,1.1903,0.0,1.2264,1.2064,1.2149,1.2018,0.0,0.0,0.0,0.0,0.0,0.0,0.0,0.0,0.0,0.0,0.0,0.0,0.0,0.0,0.0,0.0,0.0,0.0,0.0,0.0,0.0,0.0,0.0,0.0,0.0,0.0,0.0,0.0,0.0,0.0,0.0,0.0,0.0,0.0,0.0,0.0,0.0,0.0,0.0,0.0,0.0,0.0,0.0,0.0,0.0,0.0,0.0,0.0,0.0,0.0,0.0,0.0,0.0,0.0,0.0,0.0,0.0,0.0,0.0,0.0,0.0,0.0,0.0,0.0,0.0,0.0,0.0,0.0,0.0,0.0,0.0,0.0,0.0,0.0,0.0,0.0,0.0,0.0,0.0,0.0,0.0,0.0,0.0,0.0,0.0,0.0,0.0,0.0,0.0,0.0,0.0,0.0,0.0,0.0,0.0,0.0,0.0,0.0,0.0,0.0,0.0,0.0,0.0,0.0,0.0,0.0,0.0,0.0,1.156,1.2529,1.2574,1.2462,1.2396,1.2483,1.2343,0.0,0.0,0.0,0.0,0.0,0.0,0.0,0.0,0.0,0.0,0.0,0.0,0.0,0.0,0.0,0.0,0.0,0.0,0.0,0.0,0.0,0.0,0.0,0.0,0.0,0.0,0.0,0.0,0.0,0.0,0.0,0.0,0.0,0.0,0.0,0.0,0.0,0.0,0.0,0.0,0.0,0.0,0.0,0.0,0.0,0.0,0.0,0.0,0.0,0.0,0.0,0.0,0.0,0.0,0.0,0.0,0.0,0.0,0.0,0.0,0.0,0.0,0.0,0.0,0.0,0.0,0.0,0.0,0.0,0.0,0.0,0.0,0.0,0.0,0.0,0.0,0.0,0.0,0.0,0.0,0.0,0.0,0.0,0.0,0.0,0.0,0.0,0.0,0.0,0.0,0.0,0.0,0.0,0.0,0.0,0.0,0.0,0.0,0.0,0.0,0.0,0.0,0.0,0.0,0.0,0.0,0.0,0.0,0.0,1.1903,1.1943,1.2016,1.2142,1.2168,1.2167,0.0,0.0,0.0,0.0,0.0,0.0,0.0,0.0,0.0,0.0,0.0,0.0,0.0,0.0,0.0,0.0,0.0,0.0,0.0,0.0,0.0,0.0,0.0,0.0,0.0,0.0,0.0,0.0,0.0,0.0,0.0,0.0,0.0,0.0,0.0,0.0,0.0,0.0,0.0,0.0,0.0,0.0,0.0,0.0,0.0,0.0,0.0,0.0,0.0,0.0,0.0,0.0,0.0,0.0,0.0,0.0,0.0,0.0,0.0,0.0,0.0,0.0,0.0,0.0,0.0,0.0,0.0,0.0,0.0,0.0,0.0,0.0,0.0,0.0,0.0,0.0,0.0,0.0,0.0,0.0,0.0,0.0,0.0,0.0,0.0,0.0,0.0,0.0,0.0,0.0,0.0,0.0,0.0,0.0,0.0,0.0,0.0,0.0,0.0,0.0,0.0,0.0,0.0,0.0,0.0,0.0,0.0,0.0,0.0,1.1799,1.1942,1.2103,1.227,1.2372,1.2379,1.2202,0.0,0.0,0.0,0.0,0.0,0.0,0.0,0.0,0.0,0.0,0.0,0.0,0.0,0.0,0.0,0.0,0.0,0.0,0.0,0.0,0.0,0.0,0.0,0.0,0.0,0.0,0.0,0.0,0.0,0.0,0.0,0.0,0.0,0.0,0.0,0.0,0.0,0.0,0.0,0.0,0.0,0.0,0.0,0.0,0.0,0.0,0.0,0.0,0.0,0.0,0.0,0.0,0.0,0.0,0.0,0.0,0.0,0.0,0.0,0.0,0.0,0.0,0.0,0.0,0.0,0.0,0.0,0.0,0.0,0.0,0.0,0.0,0.0,0.0,0.0,0.0,0.0,0.0,0.0,0.0,0.0,0.0,0.0,0.0,0.0,0.0,0.0,0.0,0.0,0.0,0.0,0.0,0.0,0.0,0.0,0.0,0.0,0.0,0.0,0.0,0.0,0.0,0.0,0.0,0.0,0.0,0.0,0.0,1.2105,1.2453,1.2686,1.2778,1.3019,1.2877,0.0,0.0,0.0,0.0,0.0,0.0,0.0,0.0,0.0,0.0,0.0,0.0,0.0,0.0,0.0,0.0,0.0,0.0,0.0,0.0,0.0,0.0,0.0,0.0,0.0,0.0,0.0,0.0,0.0,0.0,0.0,0.0,0.0,0.0,0.0,0.0,0.0,0.0,0.0,0.0,0.0,0.0,0.0,0.0,0.0,0.0,0.0,0.0,0.0,0.0,0.0,0.0,0.0,0.0,0.0,0.0,0.0,0.0,0.0,0.0,0.0,0.0,0.0,0.0,0.0,0.0,0.0,0.0,0.0,0.0,0.0,0.0,0.0,0.0,0.0,0.0,0.0,0.0,0.0,0.0,0.0,0.0,0.0,0.0,0.0,0.0,0.0,0.0,0.0,0.0,0.0,0.0,0.0,0.0,0.0,0.0,0.0,0.0,0.0,0.0,0.0,0.0,0.0,0.0,0.0,0.0,0.0,0.0,0.0,1.226,1.2806,1.3217,1.3347,1.3166,1.3069,0.0,0.0,0.0,0.0,0.0,0.0,0.0,0.0,0.0,0.0,0.0,0.0,0.0,0.0,0.0,0.0,0.0,0.0,0.0,0.0,0.0,0.0,0.0,0.0,0.0,0.0,0.0,0.0,0.0,0.0,0.0,0.0,0.0,0.0,0.0,0.0,0.0,0.0,0.0,0.0,0.0,0.0,0.0,0.0,0.0,0.0,0.0,0.0,0.0,0.0,0.0,0.0,0.0,0.0,0.0,0.0,0.0,0.0,0.0,0.0,0.0,0.0,0.0,0.0,0.0,0.0,0.0,0.0,0.0,0.0,0.0,0.0,0.0,0.0,0.0,0.0,0.0,0.0,0.0,0.0,0.0,0.0,0.0,0.0,0.0,0.0,0.0,0.0,0.0,0.0,0.0,0.0,0.0,0.0,0.0,0.0,0.0,0.0,0.0,0.0,0.0,0.0,0.0,0.0,0.0,0.0,0.0,0.0,1.2002,1.2289,1.3092,1.362,1.3788,1.346,1.3238,0.0,0.0,0.0,0.0,0.0,0.0,0.0,0.0,0.0,0.0,0.0,0.0,0.0,0.0,0.0,0.0,0.0,0.0,0.0,0.0,0.0,0.0,0.0,0.0,0.0,0.0,0.0,0.0,0.0,0.0,0.0,0.0,0.0,0.0,0.0,0.0,0.0,0.0,0.0,0.0,0.0,0.0,0.0,0.0,0.0,0.0,0.0,0.0,0.0,0.0,0.0,0.0,0.0,0.0,0.0,0.0,0.0,0.0,0.0,0.0,0.0,0.0,0.0,0.0,0.0,0.0,0.0,0.0,0.0,0.0,0.0,0.0,0.0,0.0,0.0,0.0,0.0,0.0,0.0,0.0,0.0,0.0,0.0,0.0,0.0,0.0,0.0,0.0,0.0,0.0,0.0,0.0,0.0,0.0,0.0,0.0,0.0,0.0,0.0,0.0,0.0,0.0,0.0,0.0,0.0,0.0,0.0,0.0,1.21,1.2278,1.3249,1.3856,1.4006,1.3699,1.3387,0.0,0.0,0.0,0.0,0.0,0.0,0.0,0.0,0.0,0.0,0.0,0.0,0.0,0.0,0.0,0.0,0.0,0.0,0.0,0.0,0.0,0.0,0.0,0.0,0.0,0.0,0.0,0.0,0.0,0.0,0.0,0.0,0.0,0.0,0.0,0.0,0.0,0.0,0.0,0.0,0.0,0.0,0.0,0.0,0.0,0.0,0.0,0.0,0.0,0.0,0.0,0.0,0.0,0.0,0.0,0.0,0.0,0.0,0.0,0.0,0.0,0.0,0.0,0.0,0.0,0.0,0.0,0.0,0.0,0.0,0.0,0.0,0.0,0.0,0.0,0.0,0.0,0.0,0.0,0.0,0.0,0.0,0.0,0.0,0.0,0.0,0.0,0.0,0.0,0.0,0.0,0.0,0.0,0.0,0.0,0.0,0.0,0.0,0.0,0.0,0.0,0.0,0.0,0.0,0.0,0.0,0.0,0.0,1.2024,1.2213,1.3162,1.3636,1.3637,1.3355,1.3279,0.0,0.0,0.0,0.0,0.0,0.0,0.0,0.0,0.0,0.0,0.0,0.0,0.0,0.0,0.0,0.0,0.0,0.0,0.0,0.0,0.0,0.0,0.0,0.0,0.0,0.0,0.0,0.0,0.0,0.0,0.0,0.0,0.0,0.0,0.0,0.0,0.0,0.0,0.0,0.0,0.0,0.0,0.0,0.0,0.0,0.0,0.0,0.0,1.1376,0.0,0.0,0.0,0.0,0.0,0.0,0.0,0.0,0.0,0.0,0.0,0.0,0.0,0.0,0.0,0.0,0.0,0.0,0.0,0.0,0.0,0.0,0.0,0.0,0.0,0.0,0.0,0.0,0.0,0.0,0.0,0.0,0.0,0.0,0.0,0.0,0.0,0.0,0.0,0.0,0.0,0.0,0.0,0.0,0.0,0.0,0.0,0.0,0.0,0.0,0.0,0.0,0.0,0.0,0.0,0.0,0.0,0.0,0.0,1.2108,1.2579,1.3149,1.3429,1.34,1.3089,1.3055,0.0,0.0,0.0,0.0,0.0,0.0,0.0,0.0,0.0,0.0,0.0,0.0,0.0,0.0,0.0,0.0,0.0,0.0,0.0,0.0,0.0,0.0,0.0,0.0,0.0,0.0,0.0,0.0,0.0,0.0,0.0,0.0,0.0,0.0,0.0,0.0,0.0,0.0,0.0,0.0,0.0,0.0,0.0,0.0,0.0,0.0,0.0,0.0,0.0,0.0,0.0,0.0,0.0,0.0,0.0,0.0,0.0,0.0,0.0,0.0,0.0,0.0,0.0,0.0,0.0,0.0,0.0,0.0,0.0,0.0,0.0,0.0,0.0,0.0,0.0,0.0,0.0,0.0,0.0,0.0,0.0,0.0,0.0,0.0,0.0,0.0,0.0,0.0,0.0,0.0,0.0,0.0,0.0,0.0,0.0,0.0,0.0,0.0,0.0,0.0,0.0,0.0,0.0,0.0,0.0,0.0,0.0,1.1303,1.218,1.2952,1.3237,1.3338,1.3272,1.2917,1.2775,1.2886,0.0,0.0,0.0,0.0,0.0,0.0,0.0,0.0,0.0,0.0,0.0,0.0,0.0,0.0,0.0,0.0,0.0,0.0,0.0,0.0,0.0,0.0,0.0,0.0,0.0,0.0,0.0,0.0,0.0,0.0,0.0,0.0,0.0,0.0,0.0,0.0,0.0,0.0,1.0142,1.0213,0.0,0.0,0.0,0.0,0.0,0.0,0.0,0.0,1.0894,0.0,0.0,0.0,0.0,0.0,0.0,0.0,0.0,0.0,0.0,0.0,0.0,0.0,0.0,0.0,0.0,0.0,0.0,0.0,0.0,0.0,0.0,0.0,0.0,0.0,0.0,0.0,0.0,0.0,0.0,0.0,0.0,0.0,0.0,0.0,0.0,0.0,0.0,0.0,0.0,0.0,0.0,0.0,0.0,0.0,0.0,0.0,0.0,0.0,0.0,0.0,0.0,0.0,0.0,0.0,0.0,1.0293,1.1179,1.2048,1.289,1.3494,1.3571,1.3064,1.2986,1.2634,1.1984,0.0,0.0,0.0,0.0,0.0,0.0,0.0,0.0,0.0,0.0,0.0,0.0,0.0,0.0,0.0,0.0,0.0,0.0,0.0,0.0,0.0,0.0,0.0,0.0,0.0,0.0,0.0,0.0,0.0,0.0,0.0,0.0,0.0,0.0,0.0,0.0,0.0,0.0,0.0,1.0445,1.0503,0.0,0.0,0.0,0.0,0.0,0.0,0.0,0.0,1.1152,0.0,0.0,0.0,0.0,0.0,0.0,0.0,0.0,0.0,0.0,0.0,0.0,0.0,0.0,0.0,0.0,0.0,0.0,0.0,0.0,0.0,0.0,0.0,0.0,0.0,0.0,0.0,0.0,0.0,0.0,0.0,0.0,0.0,0.0,0.0,0.0,0.0,0.0,0.0,0.0,0.0,0.0,0.0,0.0,0.0,0.0,0.0,0.0,0.0,0.0,0.0,0.0,0.0,0.0,0.0,1.0483,1.1282,1.2126,1.3101,1.3313,1.3272,1.2954,1.2672,1.2206,0.0,0.0,0.0,0.0,0.0,0.0,0.0,0.0,0.0,0.0,0.0,0.0,0.0,0.0,0.0,0.0,0.0,0.0,0.0,0.0,0.0,0.0,0.0,0.0,0.0,0.0,0.0,0.0,0.0,0.0,0.0,0.0,0.0,0.0,0.0,0.0,0.0,0.0,0.0,0.0,1.0761,1.0909,1.1139,0.0,0.0,0.0,0.0,0.0,0.0,1.1181,1.1183,0.0,0.0,0.0,0.0,0.0,0.0,0.0,0.0,0.0,0.0,0.0,0.0,0.0,0.0,0.0,0.0,0.0,0.0,0.0,0.0,0.0,0.0,0.0,0.0,0.0,0.0,0.0,0.0,0.0,0.0,0.0,0.0,0.0,0.0,0.0,0.0,0.0,0.0,0.0,0.0,0.0,0.0,0.0,0.0,0.0,0.0,0.0,0.0,0.0,0.0,0.0,0.0,0.0,0.0,0.0,1.0499,1.1175,1.2057,1.3142,1.3092,1.2975,1.2821,1.2329,1.1834,0.0,0.0,0.0,0.0,0.0,0.0,0.0,0.0,0.0,0.0,0.0,0.0,0.0,0.0,0.0,0.0,0.0,0.0,0.0,0.0,0.0,0.0,0.0,0.0,0.0,0.0,0.0,0.0,0.0,0.0,0.0,0.0,0.0,0.0,0.0,0.0,0.0,0.0,0.0,0.0,0.0,1.1238,1.1455,1.126,0.0,0.0,0.0,0.0,1.1021,1.1234,0.0,0.0,0.0,0.0,0.0,0.0,0.0,0.0,0.0,0.0,0.0,0.0,0.0,0.0,0.0,0.0,0.0,0.0,0.0,0.0,0.0,0.0,0.0,0.0,0.0,0.0,0.0,0.0,0.0,0.0,0.0,0.0,0.0,0.0,0.0,0.0,0.0,0.0,0.0,0.0,0.0,0.0,0.0,0.0,0.0,0.0,0.0,0.0,0.0,0.0,0.0,0.0,0.0,0.0,0.0,0.0,0.9883,1.0484,1.1348,1.2462,1.2893,1.292,1.264,1.2224,1.1702,0.0,0.0,0.0,0.0,0.0,0.0,0.0,0.0,0.0,0.0,0.0,0.0,0.0,0.0,0.0,0.0,0.0,0.0,0.0,0.0,0.0,0.0,0.0,0.0,0.0,0.0,0.0,0.0,0.0,0.0,0.0,0.0,0.0,0.0,0.0,0.0,0.0,0.0,0.0,0.0,0.0,1.1105,1.1382,1.0961,1.0619,0.0,0.0,1.1021,1.0989,1.1802,0.0,0.0,0.0,0.0,0.0,0.0,0.0,0.0,0.0,0.0,0.0,0.0,0.0,0.0,0.0,0.0,0.0,0.0,0.0,0.0,0.0,0.0,0.0,0.0,0.0,0.0,0.0,0.0,0.0,0.0,0.0,0.0,0.0,0.0,0.0,0.0,0.0,0.0,0.0,0.0,0.0,0.0,0.0,0.0,0.0,0.0,0.0,0.0,0.0,0.0,0.0,0.0,0.0,0.0,0.0,0.8946,0.9593,1.0546,1.1411,1.2143,1.254,1.262,1.2442,1.1775,1.135,0.0,0.0,0.0,0.0,0.0,0.0,0.0,0.0,0.0,0.0,0.0,0.0,0.0,0.0,0.0,0.0,0.0,0.0,0.0,0.0,0.0,0.0,0.0,0.0,0.0,0.0,0.0,0.0,0.0,0.0,0.0,0.0,0.0,0.0,0.0,0.0,0.0,0.0,0.0,0.0,0.0,0.0,1.1605,1.1529,0.0,0.0,0.0,1.1405,1.1148,0.0,0.0,0.0,0.0,0.0,0.0,0.0,0.0,0.0,0.0,0.0,0.0,0.0,0.0,0.0,0.0,0.0,0.0,0.0,0.0,0.0,0.0,0.0,0.0,0.0,0.0,0.0,0.0,0.0,0.0,0.0,0.0,0.0,0.0,0.0,0.0,0.0,0.0,0.0,0.0,0.0,0.0,0.0,0.0,0.0,0.0,0.0,0.0,0.0,0.0,0.0,0.0,0.0,0.0,0.0,0.0,0.0,0.9302,1.0466,1.127,1.1731,1.2075,1.2238,1.2212,1.1547,0.0,0.0,0.0,0.0,0.0,0.0,0.0,0.0,0.0,0.0,0.0,0.0,0.0,0.0,0.0,0.0,0.0,0.0,0.0,0.0,0.0,0.0,0.0,0.0,0.0,0.0,0.0,0.9642,0.0,0.0,0.0,0.0,0.0,0.0,0.0,0.0,0.0,0.0,0.0,0.0,0.0,0.0,1.1924,1.1886,1.1921,1.1967,0.0,0.0,1.173,1.1567,1.238,1.2668,0.0,0.0,0.0,0.0,0.0,0.0,0.0,0.0,0.0,0.0,0.0,0.0,0.0,0.0,0.0,0.0,0.0,0.0,0.0,0.0,0.0,0.0,0.0,0.0,0.0,0.0,0.0,0.0,0.0,0.0,0.0,0.0,0.0,0.0,0.0,0.0,0.0,0.0,0.0,0.0,0.0,0.0,0.0,0.0,0.0,0.0,0.0,0.0,0.0,0.0,0.0,0.0,0.0,0.0,0.0,0.9059,0.9924,1.0598,1.1041,1.1527,1.186,1.2009,1.1763,1.1538,0.0,0.0,0.0,0.0,0.0,0.0,0.0,0.0,0.0,0.0,0.0,0.0,0.0,0.0,0.0,0.0,0.0,0.0,0.0,0.0,0.0,0.0,0.0,0.0,0.0,0.0,0.0,0.0,0.0,0.0,0.0,0.0,0.0,0.0,0.0,0.0,0.0,0.0,0.0,0.0,0.0,1.1877,1.2063,1.1661,1.1615,0.0,0.0,1.1703,1.2398,1.3187,1.3359,1.2296,0.0,0.0,0.0,0.0,0.0,0.0,0.0,0.0,0.0,0.0,0.0,0.0,0.0,0.0,0.0,0.0,0.0,0.0,0.0,0.0,0.0,0.0,0.0,0.0,0.0,0.0,0.0,0.0,0.0,0.0,0.0,0.0,0.0,0.0,0.0,0.0,0.0,0.0,0.0,0.0,0.0,0.0,0.0,0.0,0.0,0.0,0.0,0.0,0.0,0.0,0.0,0.0,0.0,0.864,0.8836,0.9975,1.0646,1.0819,1.1251,1.1548,1.1811,1.1618,1.1447,0.0,0.0,0.0,0.0,0.0,0.0,0.0,0.0,0.0,0.0,0.0,0.0,0.0,0.0,0.0,0.0,0.0,0.0,0.0,0.0,0.0,0.0,0.0,0.0,0.0,0.0,0.0,0.0,0.9817,0.9821,0.9868,0.0,0.0,0.0,0.0,0.0,0.0,0.0,0.0,0.0,0.0,1.2039,1.2029,1.2277,0.0,0.0,1.264,1.26,1.2276,1.2976,1.3078,1.17,1.1684,0.0,0.0,0.0,0.0,0.0,0.0,0.0,0.0,0.0,0.0,0.0,0.0,0.0,0.0,0.0,0.0,0.0,0.0,0.0,0.0,0.0,0.0,0.0,0.0,0.0,0.0,0.0,0.0,0.0,0.0,0.0,0.0,0.0,0.0,0.0,0.0,0.0,0.0,0.0,0.0,0.0,0.0,0.0,0.0,0.0,0.0,0.0,0.0,0.0,0.0,0.0,0.0,0.8494,0.867,0.9871,1.0516,1.0554,1.0987,1.1332,1.158,1.1516,1.1475,0.0,0.0,0.0,0.0,0.0,0.0,0.0,0.0,0.0,0.0,0.0,0.0,0.0,0.0,0.0,0.0,0.0,0.0,0.0,0.0,0.0,0.0,0.0,0.0,0.0,0.0,0.0,0.0,0.9833,0.9869,0.9789,0.0,0.0,0.0,0.0,0.0,0.0,0.0,0.0,0.0,0.0,1.242,1.2222,1.2622,1.2837,1.2587,1.268,1.2641,1.2202,1.2649,1.273,1.1648,0.0,0.0,0.0,0.0,0.0,0.0,0.0,0.0,0.0,0.0,0.0,0.0,0.0,0.0,0.0,0.0,0.0,0.0,0.0,0.0,0.0,0.0,0.0,0.0,0.0,0.0,0.0,0.0,0.0,0.0,0.4194,0.0,0.0,0.0,0.0,0.0,0.0,0.0,0.0,0.0,0.0,0.0,0.0,0.0,0.0,0.0,0.0,0.0,0.0,0.0,0.0,0.0,0.0,0.8061,0.8584,0.951,1.0081,1.0294,1.0738,1.1084,1.1284,1.1548,1.1677,1.1703,0.0,0.0,0.0,0.0,0.0,0.0,0.0,0.0,0.0,0.0,0.0,0.0,0.0,0.0,0.0,0.0,0.0,0.0,0.0,0.0,0.0,0.0,0.0,0.0,0.0,0.0,0.8745,0.9237,0.9647,0.0,0.0,0.0,0.0,0.0,0.0,0.0,0.0,0.0,0.0,1.2424,1.3089,1.2634,1.2429,1.2353,1.2401,1.1788,1.1548,1.2297,1.2422,1.2458,0.0,0.0,0.0,0.0,0.0,0.0,0.0,0.0,0.0,0.0,0.0,0.0,0.0,0.0,0.0,0.0,0.0,0.0,0.0,0.0,0.0,0.0,0.0,0.0,0.0,0.0,0.0,0.21,0.2744,0.0,0.0,0.0,0.0,0.0,0.0,0.0,0.0,0.0,0.0,0.0,0.5602,0.5569,0.0,0.0,0.0,0.0,0.0,0.0,0.0,0.0,0.0,0.0,0.0,0.0,0.8042,0.8336,0.9122,0.9607,0.982,1.0168,1.0516,1.0809,1.1246,1.1505,1.1671,0.0,0.0,0.0,0.0,0.0,0.0,0.0,0.0,0.0,0.0,0.0,0.0,0.0,0.0,0.0,0.0,0.0,0.0,0.0,0.0,0.0,0.0,0.0,0.0,0.0,0.9249,0.0,0.0,0.0,0.0,0.0,0.0,0.0,0.0,0.0,0.0,0.0,1.1255,1.1461,1.1761,1.1937,1.1892,1.2146,1.2478,0.0,0.0,0.0,0.0,0.0,0.0,0.0,0.0,0.0,0.0,0.0,0.0,0.0,0.0,1.0497,1.0424,1.0686,1.0885,1.0753,0.0,0.0,0.0,0.0,0.0,0.0,0.0,0.0,0.0,0.0,0.0,0.0,0.0,0.0,0.1803,0.0,0.3098,0.0,0.0,0.0,0.0,0.0,0.0,0.0,0.0,0.4823,0.5006,0.5425,0.545,0.5585,0.0,0.6054,0.6214,0.0,0.0,0.0,0.0,0.0,0.0,0.0,0.0,0.787,0.8237,0.8838,0.9336,0.9707,0.9901,1.0168,1.0506,1.1025,1.1413,1.1682,1.1419,1.1154,0.0,0.0,0.0,0.0,0.0,0.0,0.0,0.0,0.0,0.0,0.0,0.0,0.0,0.0,0.0,0.0,0.0,0.0,0.0,0.0,0.0,0.0,0.0,0.9448,0.0,0.0,0.0,0.0,0.0,0.0,0.0,0.0,0.0,1.0994,1.1336,1.1592,1.164,1.1851,1.1852,1.141,0.0,0.0,0.0,0.0,0.0,0.0,0.0,1.1485,1.1315,1.142,1.1609,1.1872,1.1624,1.1373,1.1331,0.0,0.0,1.098,1.1182,1.1387,1.126,1.1251,1.1284,1.1342,1.1381,1.1436,0.0,0.0,0.0,0.0,0.0,0.0,0.0,0.0,0.1179,0.1636,0.0,0.2598,0.0,0.0,0.0,0.0,0.0,0.4255,0.0,0.0,0.4761,0.5039,0.544,0.5383,0.5523,0.5853,0.5899,0.6007,0.6111,0.63,0.0,0.0,0.0,0.0,0.0,0.0,0.7524,0.8253,0.8702,0.9234,0.9849,0.9937,1.0086,1.0294,1.0939,1.1375,1.165,1.1677,1.1671,1.1671,1.102,0.0,0.0,0.0,0.0,0.0,0.0,0.0,0.0,0.0,0.0,0.0,0.0,0.0,0.0,0.0,0.0,0.0,0.0,0.0,0.0,0.9322,0.0,0.0,0.0,0.0,0.0,0.0,0.0,0.0,0.0,0.0,1.0978,1.1521,1.1886,1.172,0.0,0.0,0.0,0.0,1.2229,1.1025,1.0549,1.0549,1.0847,1.1526,1.2152,1.2557,0.0,0.0,1.3487,1.2329,1.1545,1.17,1.2204,1.2342,1.1542,1.1401,1.1409,1.1519,1.1533,1.1526,1.1532,1.1614,1.1621,-0.3305,0.0,0.0,0.0,0.0,-0.1096,-0.031,0.046,0.1209,0.1779,0.2171,0.2555,0.0,0.0,0.0,0.0,0.0,0.0,0.3931,0.4027,0.4268,0.4498,0.471,0.4869,0.5098,0.5305,0.5718,0.5917,0.6031,0.6482,0.6398,0.5895,0.0,0.0,0.0,0.0,0.7794,0.8184,0.8746,0.9134,0.9362,0.9396,0.9655,1.0086,1.0419,1.0852,1.1375,1.1419,1.1408,1.1413,1.1365,0.0,0.0,0.0,0.0,0.0,0.0,0.0,0.0,0.0,0.0,0.0,0.0,0.0,0.0,0.0,0.0,0.0,0.0,0.0,0.9304,0.9445,0.9456,0.0,0.0,0.0,0.0,0.0,0.0,0.0,0.0,0.0,1.1449,1.1074,1.0914,0.0,0.0,1.0696,1.0681,1.144,1.2057,1.2314,1.2272,0.0,0.0,1.3075,1.2782,1.2995,1.3247,1.3222,1.2713,1.2654,1.2599,1.2378,1.2599,1.272,1.2532,1.2487,1.2388,1.2107,1.2112,1.2214,1.2214,1.2323,1.2403,-0.1713,-0.1894,-0.2434,-0.2185,-0.1237,-0.0426,0.021,0.0778,0.1386,0.1762,0.2061,0.2257,0.2476,0.262,0.2917,0.0,0.0,0.0,0.3506,0.3651,0.3835,0.4021,0.421,0.4412,0.4648,0.4964,0.5388,0.5678,0.5835,0.6031,0.5986,0.5695,0.0,0.0,0.6308,0.7057,0.7698,0.8156,0.859,0.9016,0.9246,0.9238,0.9504,0.9999,1.012,1.0467,1.1025,1.1154,1.1198,1.1198,1.1327,1.1117,0.0,0.0,0.0,0.0,0.0,0.0,0.0,0.0,0.0,0.0,0.0,0.886,0.8392,0.0,0.0,0.0,0.931,0.9317,0.9429,0.927,0.0,0.0,0.0,0.0,0.0,0.0,0.0,0.9733,1.0554,1.1284,1.1499,1.1068,1.0996,1.1745,1.1332,1.0991,1.1131,0.0,1.2485,1.2863,1.2863,1.3203,1.4048,1.3895,1.3831,1.4396,1.3973,1.3488,1.3236,1.3223,1.3053,1.2753,1.268,1.2746,1.2562,1.2703,1.2821,1.2628,1.262,1.2662,1.2767,1.2802,1.2835,-0.0526,-0.0115,-0.1469,-0.1556,-0.0767,0.0109,0.0752,0.1304,0.1563,0.1683,0.1629,0.1825,0.1902,0.196,0.2387,0.0,0.2622,0.2916,0.3187,0.3436,0.344,0.3586,0.3818,0.3993,0.424,0.4659,0.4899,0.5239,0.5532,0.5336,0.5338,0.5579,0.6072,0.6339,0.6369,0.6783,0.7356,0.8135,0.8353,0.8736,0.9338,0.9315,0.9516,0.9936,0.9975,1.0183,1.0646,1.0852,1.0939,1.0982,1.0987,1.0987,1.0895,0.0,0.0,0.0,0.0,0.0,0.0,0.0,0.0,0.0,0.0,0.0,0.0,0.0,0.0,0.0,0.9618,0.0,0.971,0.9109,0.0,0.0,0.0,0.9345,1.0207,1.0337,1.0381,1.0294,0.0,0.0,1.137,1.1424,1.1785,1.2735,1.2887,1.2711,1.2123,1.2808,1.3258,1.2893,1.293,1.3099,1.3782,1.4323,1.507,1.5945,1.5389,1.4547,1.4335,1.3712,1.3087,1.2654,1.2583,1.2445,1.2046,1.2291,1.268,1.2981,1.2981,1.2959,1.304,1.299,1.2912,-0.0535,-0.0058,-0.0633,-0.0622,-0.0167,0.0495,0.0871,0.1025,0.1491,0.183,0.1997,0.2047,0.2112,0.2192,0.2338,0.2463,0.2573,0.2527,0.2647,0.2895,0.2938,0.3083,0.3286,0.3515,0.3808,0.4067,0.4362,0.465,0.4981,0.5138,0.524,0.5286,0.544,0.5672,0.5932,0.6571,0.7079,0.7572,0.7955,0.8423,0.9056,0.9262,0.9444,0.962,0.9839,1.0072,1.0386,1.0467,1.0554,1.0771,1.0895,1.0771,1.025,0.982,0.0,0.0,0.0,0.0,0.0,0.0,0.0,0.0,0.0,0.8394,0.7999,0.0,0.8412,0.0,0.957,1.0294,1.0636,1.0501,0.0,0.0,1.0207,1.0033,1.0294,1.0766,1.0852,1.0332,1.1401,1.2139,1.2123,1.2441,1.3,1.3926,1.2874,1.2126,1.2473,1.3157,1.3669,1.3831,1.442,1.5012,1.5081,1.5394,1.5713,1.598,1.5271,1.4587,1.424,1.3547,1.2941,1.2563,1.2309,1.2066,1.1824,1.1966,1.2194,1.2452,1.2709,1.2863,1.279,1.282,1.2842,-0.0423,0.0,-0.0354,-0.0291,0.0057,0.0782,0.1156,0.1311,0.1623,0.1814,0.1941,0.1942,0.1972,0.2037,0.2138,0.2278,0.2357,0.2261,0.2363,0.2615,0.2471,0.256,0.2782,0.2932,0.3228,0.3575,0.3725,0.4043,0.4433,0.4738,0.4889,0.5037,0.5138,0.5313,0.5556,0.596,0.6478,0.704,0.7749,0.8384,0.8972,0.904,0.9086,0.9084,0.9259,0.939,0.9548,0.9544,0.9589,0.9768,1.0081,1.0037,0.9544,0.9373,0.9103,0.0,0.0,0.0,0.0,0.0,0.0,0.0,0.0,0.0,0.0,0.0,0.8659,0.8571,0.9622,1.0221,1.0077,1.0154,1.0328,1.0549,1.0424,1.0467,1.0862,1.1338,1.1505,1.1289,1.214,1.283,1.2991,1.3324,1.376,1.4263,1.3515,1.3145,1.3685,1.4156,1.4433,1.465,1.52,1.5616,1.5692,1.596,1.6048,1.5815,1.5348,1.4813,1.4251,1.3493,1.2822,1.2548,1.2092,1.1757,1.1753,1.1708,1.1819,1.2047,1.2243,1.2385,1.2452,1.2409,1.2342,-0.0306,0.0,-0.0362,-0.0299,0.0118,0.0858,0.1342,0.1651,0.1706,0.1742,0.171,0.1705,0.1704,0.1704,0.197,0.2077,0.2129,0.2096,0.2185,0.2444,0.2101,0.2085,0.2337,0.2382,0.2633,0.314,0.3132,0.3432,0.3934,0.4187,0.4437,0.4686,0.4939,0.5039,0.5035,0.5205,0.5699,0.6525,0.7592,0.8371,0.8862,0.8665,0.8573,0.855,0.85,0.8492,0.8563,0.8567,0.8563,0.8563,0.894,0.9068,0.89,0.8885,0.8843,0.0,0.8096,0.0,0.0,0.0,0.0,0.0,0.0,0.0,0.0,0.9334,0.9174,0.9088,0.9773,0.9955,0.9248,0.934,0.9806,1.0676,1.0638,1.086,1.1657,1.1959,1.2158,1.2369,1.2857,1.3328,1.3645,1.4043,1.4215,1.4266,1.4292,1.4465,1.5038,1.5029,1.5041,1.5347,1.5389,1.5499,1.5741,1.6057,1.6083,1.573,1.5372,1.4992,1.4382,1.3524,1.2802,1.2544,1.2012,1.1614,1.1735,1.1594,1.1546,1.1707,1.1746,1.1824,1.2077,1.1966,1.1855,-0.0308,0.0,-0.0364,-0.0181,0.036,0.053,0.0578,0.0683,0.1196,0.1512,0.1794,0.1715,0.1704,0.1704,0.1757,0.1917,0.2077,0.1857,0.1908,0.2173,0.1902,0.1899,0.216,0.2182,0.2425,0.2938,0.2897,0.313,0.3685,0.3736,0.3885,0.4133,0.4183,0.4234,0.4234,0.0,0.0,0.0,0.7146,0.7839,0.8146,0.7911,0.7931,0.8199,0.8007,0.0,0.8247,0.8286,0.8286,0.8286,0.838,0.0,0.0,0.0,0.0,0.0,0.0,0.0,0.0,0.0,0.0,0.0,0.8844,0.8846,0.924,0.9221,0.9402,0.9864,0.9994,1.0239,1.078,1.0868,1.1098,1.1646,1.1717,1.1849,1.2208,1.2296,1.2348,1.2392,1.3179,1.3767,1.3773,1.4198,1.4569,1.4723,1.4588,1.4653,1.5124,1.4965,1.4964,1.5298,1.5403,1.5555,1.5963,1.5775,1.5684,1.5594,1.5199,1.4726,1.4351,1.3735,1.3063,1.2753,1.2311,1.1926,1.1654,1.1634,1.1656,1.1496,1.1453,1.1521,1.1744,1.1744,1.1744,-0.0124,0.0,-0.0184,-0.0061,0.0,0.018,0.0177,0.0233,0.0865,0.1247,0.155,0.1701,0.1749,0.1748,0.1749,0.1804,0.1967,0.1842,0.1834,0.1942,0.1764,0.1757,0.1917,0.1899,0.2092,0.249,0.2489,0.2619,0.2982,0.3311,0.3515,0.3581,0.3882,0.3984,0.4034,0.4386,0.509,0.5992,0.6686,0.7335,0.7939,0.7885,0.7898,0.8024,0.0,0.0,0.0,0.0,0.0,0.0,0.0,0.0,0.0,0.0,0.0,0.8788,0.8522,0.8515,0.8827,0.8902,0.9088,0.941,0.9592,0.9605,0.9507,0.9686,1.0025,1.0491,1.0445,1.0591,1.1046,1.1117,1.1342,1.1788,1.1871,1.2001,1.2322,1.2501,1.2674,1.2936,1.3389,1.3732,1.3799,1.4142,1.4359,1.4357,1.4445,1.4538,1.4738,1.4888,1.5041,1.5347,1.5408,1.5472,1.5578,1.5533,1.5311,1.5193,1.4852,1.4482,1.4279,1.3544,1.2943,1.2713,1.2345,1.1982,1.1908,1.1721,1.1522,1.1486,1.1217,1.1011,1.1111,1.126,1.1403,0.0,0.0,0.0,0.0,0.0,0.0,0.0,0.0059,0.0,0.0,0.0,0.157,0.1739,0.1795,0.1739,0.1739,0.1793,0.1714,0.1758,0.1811,0.1677,0.1667,0.172,0.1661,0.1805,0.2096,0.2119,0.2204,0.2448,0.2941,0.3199,0.3263,0.3644,0.3882,0.4033,0.4485,0.5087,0.5741,0.6089,0.6736,0.769,0.7637,0.7637,0.7789,0.7739,0.764,0.7543,0.7543,0.7643,0.7839,0.8084,0.8219,0.834,0.8492,0.8676,0.886,0.8656,0.8771,0.9292,0.9318,0.9421,0.9797,1.0147,1.0223,0.9879,1.035,1.0708,1.0847,1.0895,1.0905,1.09,1.0949,1.1177,1.1626,1.1739,1.1923,1.2384,1.2705,1.3008,1.3344,1.3462,1.357,1.3806,1.3938,1.404,1.3885,1.4203,1.4512,1.4568,1.4902,1.5204,1.5387,1.5426,1.5348,1.5175,1.5117,1.5068,1.4734,1.444,1.4188,1.3915,1.3297,1.2825,1.2706,1.2327,1.2161,1.2164,1.1773,1.1372,1.1477,1.1006,1.0532,1.0487,1.0743,1.0999,0.0,0.0,0.0,0.0,0.0,0.0,0.0,0.0,0.0342,0.0787,0.129,0.1346,0.1514,0.1795,0.1514,0.1514,0.1795,0.1511,0.1509,0.0,0.1505,0.1503,0.1781,0.1481,0.1632,0.217,0.2144,0.2232,0.2483,0.2559,0.2869,0.331,0.3332,0.3533,0.3982,0.4336,0.4638,0.4985,0.5436,0.5984,0.6584,0.6187,0.6287,0.6892,0.6789,0.6839,0.7241,0.7288,0.7288,0.7338,0.7338,0.7628,0.8191,0.8336,0.8694,0.9264,0.9393,0.9465,0.9534,0.9759,0.9894,0.9934,0.9912,0.9931,1.0084,1.0713,1.1005,1.0854,1.0861,1.0896,1.0882,1.0934,1.1122,1.1613,1.1842,1.2172,1.2695,1.2913,1.3118,1.3209,1.3371,1.361,1.3808,1.3754,1.3818,1.4047,1.4204,1.4458,1.4957,1.5184,1.529,1.5397,1.534,1.5205,1.5035,1.4741,1.4559,1.4475,1.4068,1.3773,1.3561,1.322,1.2916,1.2723,1.2572,1.2416,1.2129,1.1987,1.1618,1.1203,1.0862,1.0654,1.0349,1.0443,1.0588,0.0,0.0,0.0,0.0,0.0,0.0,0.0,0.0,0.0116,0.0399,0.0785,0.1009,0.1177,0.129,0.1177,0.1234,0.1514,0.1402,0.1514,0.1795,0.1627,0.1683,0.1793,0.1614,0.171,0.1969,0.1972,0.1953,0.208,0.224,0.2453,0.2714,0.2934,0.326,0.3639,0.389,0.4124,0.4384,0.5037,0.5639,0.6189,0.5939,0.6089,0.6589,0.6589,0.6692,0.6992,0.7241,0.749,0.7637,0.7786,0.805,0.8472,0.851,0.8653,0.9055,0.9047,0.9135,0.9377,0.9628,0.9776,0.9772,0.9845,0.9892,0.9847,1.0312,1.0683,1.0783,1.0869,1.0943,1.1038,1.111,1.1303,1.1814,1.2075,1.2411,1.2885,1.3171,1.3358,1.3496,1.3755,1.388,1.3692,1.3798,1.3803,1.3907,1.402,1.4462,1.5046,1.4981,1.499,1.5245,1.5166,1.4948,1.4762,1.4566,1.4314,1.4062,1.373,1.3476,1.3264,1.3052,1.2839,1.2577,1.2534,1.2407,1.2035,1.1777,1.1419,1.1106,1.0718,1.044,1.0149,1.0105,1.0255,0.0,0.0,0.0,0.0,0.0,0.0,0.0,0.0,0.0,0.0117,0.0341,0.0678,0.0846,0.0902,0.0899,0.1012,0.1184,0.1292,0.1458,0.1683,0.1683,0.1683,0.1683,0.1683,0.1671,0.171,0.1784,0.1771,0.1785,0.2014,0.2114,0.2136,0.262,0.2976,0.3133,0.3442,0.3727,0.3882,0.4573,0.5212,0.5691,0.5741,0.5939,0.6289,0.6492,0.6642,0.6745,0.7092,0.7444,0.769,0.7939,0.818,0.852,0.8416,0.8454,0.8601,0.8517,0.8601,0.9019,0.9282,0.9426,0.943,0.9624,0.9673,0.9567,0.9786,1.0193,1.0614,1.0868,1.1033,1.1186,1.1303,1.1558,1.1955,1.2224,1.2554,1.2953,1.3244,1.3497,1.369,1.3914,1.3832,1.365,1.3771,1.3893,1.3828,1.4064,1.448,1.4882,1.4734,1.4672,1.4852,1.4874,1.4711,1.4467,1.4356,1.4153,1.3737,1.3525,1.3307,1.3094,1.2833,1.2619,1.2448,1.24,1.2277,1.1977,1.1682,1.1333,1.1053,1.0721,1.03,0.9974,0.9904,0.9976,0.0,0.0,0.0,0.0,0.0,0.0,0.0,0.0,0.0,0.0,0.0,0.0347,0.0631,0.0859,0.0847,0.0906,0.0974,0.1186,0.1291,0.1347,0.1346,0.1346,0.1346,0.1346,0.1345,0.1398,0.1625,0.1735,0.178,0.1816,0.1898,0.2139,0.2436,0.2596,0.2663,0.3133,0.3447,0.3441,0.3961,0.4409,0.4891,0.4885,0.5286,0.5992,0.6042,0.6189,0.6389,0.6489,0.6639,0.6892,0.6945,0.7188,0.763,0.7713,0.7816,0.8035,0.8074,0.8173,0.8482,0.873,0.8874,0.8871,0.8924,0.9027,0.9236,0.9513,0.9846,1.0355,1.0881,1.1121,1.1194,1.1414,1.1648,1.1917,1.2224,1.2521,1.2764,1.3001,1.3147,1.3201,1.3273,1.3251,1.3421,1.339,1.3527,1.4028,1.4251,1.4562,1.4845,1.4581,1.4263,1.4334,1.4438,1.4495,1.4353,1.4243,1.3906,1.3525,1.344,1.3222,1.2918,1.2747,1.2619,1.2448,1.2363,1.2203,1.1909,1.166,1.1475,1.1013,1.0672,1.0418,1.0018,0.9907,0.9949,0.0,0.0,0.0,0.0,0.0,0.0,0.0,0.0,0.0,0.0,0.0,0.0119,0.0235,0.035,0.0348,0.0464,0.0641,0.0917,0.1081,0.108,0.1409,0.1402,0.1121,0.1234,0.1234,0.1065,0.1234,0.1346,0.1513,0.1726,0.1825,0.1925,0.2214,0.2367,0.2385,0.2705,0.2907,0.2876,0.3279,0.362,0.395,0.4179,0.4485,0.4786,0.5138,0.5336,0.5486,0.5887,0.6189,0.6342,0.6489,0.6739,0.7089,0.7138,0.7238,0.7487,0.7686,0.7885,0.8137,0.8428,0.8627,0.8775,0.8775,0.8829,0.8981,0.9229,0.9529,0.9924,1.0556,1.0949,1.1002,1.1345,1.1639,1.178,1.2127,1.237,1.2322,1.2667,1.2905,1.2948,1.301,1.3115,1.3221,1.3153,1.3304,1.3749,1.4005,1.4291,1.4555,1.4259,1.4096,1.4141,1.4014,1.3852,1.3802,1.3773,1.3561,1.3313,1.3228,1.3094,1.279,1.2705,1.2619,1.2406,1.2283,1.2075,1.1785,1.151,1.1321,1.0895,1.0471,1.0172,1.0113,1.0008,0.9878,0.0,0.0,0.0,0.0,0.0,0.0,0.0,0.0,0.0,0.0,0.0,0.0,-0.006,-0.0119,0.0118,0.0295,0.0355,0.0816,0.0926,0.0867,0.1309,0.1299,0.096,0.1067,0.1121,0.0953,0.0897,0.1065,0.129,0.1514,0.1683,0.1795,0.1963,0.2063,0.2095,0.2369,0.2463,0.2435,0.2745,0.3005,0.3312,0.3487,0.3727,0.4014,0.4394,0.4585,0.4583,0.5138,0.5539,0.5689,0.5887,0.6137,0.6439,0.6442,0.6539,0.6786,0.7083,0.7381,0.754,0.7885,0.8184,0.8432,0.8482,0.8528,0.868,0.8882,0.908,0.9377,1.0019,1.0511,1.0703,1.1194,1.1492,1.1536,1.198,1.2175,1.2073,1.237,1.2565,1.2613,1.2646,1.2893,1.3014,1.3117,1.3334,1.353,1.3678,1.3829,1.3974,1.3886,1.373,1.3791,1.3432,1.3248,1.3293,1.3351,1.3198,1.296,1.2881,1.2796,1.2583,1.2497,1.2412,1.2118,1.1995,1.1823,1.1607,1.1381,1.1155,1.0705,1.0321,1.0116,1.0217,1.0072,0.9925,0.0,0.0,0.0,0.0,0.0,0.0,0.0,0.0,0.0,0.0,0.0,0.0,-0.0185,-0.0368,0.0419,0.0535,0.018,0.0889,0.0941,0.047,0.081,0.0919,0.0918,0.0904,0.0898,0.0843,0.0789,0.0956,0.1235,0.129,0.1458,0.1795,0.1795,0.1794,0.1847,0.2069,0.2184,0.2172,0.2476,0.2787,0.2999,0.2789,0.3108,0.389,0.4023,0.4039,0.4039,0.4085,0.4334,0.4836,0.4887,0.5135,0.5586,0.5687,0.5684,0.5784,0.6187,0.6487,0.6587,0.6986,0.7388,0.7643,0.7743,0.7892,0.8333,0.8432,0.8581,0.8825,0.9327,0.9826,1.031,1.0855,1.1194,1.1247,1.1688,1.1927,1.1927,1.198,1.2029,1.2029,1.2127,1.2355,1.278,1.3232,1.336,1.3437,1.3491,1.3539,1.3511,1.3317,1.3164,1.2992,1.2784,1.2591,1.2997,1.2997,1.2814,1.2625,1.2454,1.2369,1.2166,1.1995,1.1909,1.1866,1.1828,1.1656,1.1435,1.1225,1.1027,1.0773,1.0531,1.0377,1.03,1.008,0.9908,0.0,0.0,0.0,0.0,0.0,0.0,0.0,0.0,0.0,0.0,0.0,0.0,-0.0062,-0.0123,0.0427,0.0305,-0.0244,0.0241,0.0359,0.0179,0.0647,0.0701,0.035,0.0522,0.046,0.0343,0.0288,0.0461,0.074,0.0902,0.1065,0.1177,0.1234,0.1234,0.129,0.1458,0.1627,0.1682,0.2062,0.239,0.2554,0.2569,0.2754,0.3109,0.3442,0.3563,0.36,0.3882,0.4105,0.4358,0.4313,0.4435,0.4836,0.514,0.5438,0.5584,0.5787,0.6037,0.6387,0.6587,0.6889,0.7291,0.749,0.7646,0.7889,0.8041,0.8237,0.8531,0.868,0.908,0.9624,1.0265,1.0654,1.0752,1.1145,1.1443,1.1345,1.1541,1.1736,1.1785,1.1883,1.2127,1.2424,1.2716,1.2861,1.3055,1.3152,1.3244,1.3238,1.3154,1.3048,1.2936,1.2646,1.2417,1.2372,1.2409,1.2338,1.2252,1.2123,1.2123,1.1995,1.1952,1.1866,1.1823,1.1742,1.1613,1.1392,1.1073,1.0914,1.0739,1.0501,1.0398,1.0301,1.0065,0.9858,0.0,0.0,0.0,0.0,0.0,0.0,0.0,0.0,0.0,0.0,0.0,0.0,-0.0124,-0.0247,-0.0062,-0.0185,-0.0555,-0.0122,0.0122,0.0061,0.0419,0.0475,0.0178,0.0236,0.0234,0.0116,0.0059,0.0117,0.0403,0.0625,0.0789,0.0898,0.0902,0.0902,0.0899,0.1071,0.1185,0.1236,0.1683,0.1963,0.2073,0.222,0.2371,0.2526,0.2788,0.3067,0.3247,0.3431,0.3613,0.3802,0.3822,0.3952,0.4312,0.4771,0.5114,0.524,0.5436,0.5672,0.5992,0.6189,0.6437,0.6889,0.7191,0.7397,0.7593,0.7796,0.7992,0.8187,0.8382,0.8584,0.9031,0.9624,1.0068,1.0265,1.0757,1.0953,1.0703,1.1096,1.1292,1.134,1.1536,1.1829,1.2078,1.2322,1.2467,1.2667,1.2861,1.3001,1.3001,1.3001,1.2963,1.2886,1.2601,1.2324,1.2199,1.211,1.1907,1.1824,1.1785,1.178,1.178,1.178,1.178,1.1736,1.165,1.1521,1.1257,1.0949,1.0745,1.0618,1.0436,1.0309,1.0186,1.0092,0.9905,0.0,0.0,0.0,0.0,0.0,0.0,0.0,0.0,0.0,0.0,0.0,0.0,-0.0309,-0.0803,-0.0741,-0.0926,-0.0679,0.0,0.0246,0.0,0.0,0.0,0.0301,0.0119,0.0178,0.0295,0.0118,0.0117,0.0347,0.0402,0.0569,0.079,0.0798,0.0796,0.0841,0.0853,0.0911,0.0957,0.1177,0.1458,0.1739,0.1792,0.1903,0.2125,0.2202,0.2441,0.2942,0.2715,0.2866,0.3298,0.3398,0.3617,0.4082,0.4503,0.4637,0.4627,0.5029,0.5291,0.5319,0.5711,0.6057,0.6456,0.6698,0.7051,0.7422,0.7606,0.7749,0.8015,0.8244,0.8482,0.8779,0.908,0.948,0.9969,1.0462,1.0659,1.056,1.0659,1.0806,1.0904,1.1096,1.1292,1.1639,1.2029,1.2273,1.2419,1.2565,1.271,1.271,1.2759,1.2662,1.2522,1.2351,1.2238,1.2075,1.19,1.1623,1.1391,1.1381,1.1392,1.1343,1.13,1.13,1.13,1.1214,1.1084,1.0911,1.0636,1.0532,1.0396,1.0269,1.0211,1.0136,1.007,1.0032,0.0,0.0,0.0,0.0,0.0,0.0,0.0,0.0,0.0,0.0,0.0,0.0,-0.0124,-0.0309,-0.0556,-0.0556,-0.0309,-0.0185,-0.0124,0.0,0.0,0.0,0.0,0.0,0.0061,0.0121,0.0059,0.0,0.0,0.0,0.0172,0.0286,0.0,0.0285,0.0337,0.0456,0.057,0.0562,0.0841,0.1065,0.1177,0.1177,0.1346,0.1569,0.1562,0.1831,0.2428,0.2483,0.2627,0.2871,0.2787,0.3035,0.3567,0.3937,0.4141,0.4283,0.4436,0.4798,0.5076,0.5223,0.5593,0.6141,0.6443,0.6743,0.7155,0.7456,0.7651,0.7854,0.8052,0.8233,0.8482,0.8779,0.9229,0.9924,1.0167,1.0314,1.0364,1.0462,1.0609,1.0752,1.085,1.11,1.1492,1.1829,1.1927,1.2127,1.2224,1.2273,1.2273,1.2419,1.2414,1.2174,1.2156,1.2141,1.2051,1.1831,1.1525,1.1332,1.1266,1.1137,1.1024,1.1006,1.0991,1.0862,1.0824,1.0694,1.0516,1.0404,1.0312,1.0182,1.0086,1.0077,1.0072,1.0024,0.9981,0.0,0.0,0.0,0.0,0.0,0.0,0.0,0.0,0.0,0.0,0.0,0.0,-0.0185,-0.0247,-0.0556,-0.0494,-0.0247,-0.0432,-0.0309,0.0,0.0,0.0,0.0,0.0,0.0,0.0,0.0,0.0,0.0,0.0,0.0,0.0,0.0,0.0,0.0,0.0171,0.0229,0.0283,0.0563,0.0729,0.0729,0.0841,0.1009,0.1121,0.1177,0.1346,0.168,0.1867,0.2074,0.2365,0.2513,0.2825,0.3256,0.3638,0.3951,0.4037,0.4191,0.445,0.4898,0.4998,0.5231,0.5844,0.6208,0.6557,0.6924,0.7328,0.7648,0.7843,0.8011,0.8223,0.8471,0.8656,0.9153,0.9863,1.0007,1.0072,1.0216,1.0265,1.0364,1.056,1.0752,1.0998,1.134,1.159,1.1634,1.1834,1.1932,1.198,1.2029,1.2181,1.2127,1.2111,1.2078,1.2097,1.2108,1.1842,1.1456,1.1339,1.1236,1.105,1.0891,1.0924,1.0901,1.0686,1.0559,1.0429,1.025,1.0207,1.0139,1.0033,0.9907,0.9802,0.9774,0.9831,0.9783,0.0,0.0,0.0,0.0,0.0,0.0,0.0,0.0,0.0,0.0,0.0,-0.0309,-0.0494,-0.0556,-0.0865,-0.0803,-0.0556,-0.0556,-0.0371,0.0,0.0,0.0,0.0,0.0,0.0,0.0,0.0,0.0,0.0,0.0,0.0,0.0,0.0,0.0,0.0,0.0,0.0,0.0,0.0283,0.0394,0.0393,0.0673,0.0841,0.0841,0.0897,0.0897,0.1009,0.1061,0.1397,0.2074,0.2404,0.2734,0.3078,0.3586,0.3884,0.3834,0.4105,0.4346,0.4612,0.4752,0.5116,0.5488,0.5996,0.6497,0.6748,0.72,0.7611,0.7852,0.8056,0.8282,0.8558,0.8682,0.9117,0.975,0.9996,1.0116,1.0016,1.0033,1.0216,1.0442,1.065,1.0896,1.1185,1.1471,1.1541,1.1629,1.1766,1.1834,1.1883,1.1932,1.2078,1.2058,1.193,1.1963,1.1912,1.1664,1.138,1.134,1.1205,1.097,1.0647,1.0656,1.0716,1.046,1.0255,1.0125,1.0144,1.012,1.0013,0.9907,0.9733,0.9515,0.9559,0.9689,0.9689,0.0,0.0,0.0,0.0,0.0,0.0,0.0,0.0,0.0,0.0,0.0,-0.0371,-0.0494,-0.0556,-0.1112,-0.105,-0.0679,-0.0741,-0.0556,0.0,0.0,0.0,0.0,0.0,0.0,0.0,0.0,0.0,0.0,0.0,0.0,0.0,0.0,0.0,0.0,0.0,0.0,0.0,0.0,0.0,0.0,0.0,0.0336,0.0504,0.0561,0.0673,0.0841,0.0897,0.1065,0.1514,0.2075,0.2356,0.2523,0.3027,0.3354,0.3452,0.3616,0.3892,0.414,0.4261,0.4561,0.5202,0.5638,0.5989,0.6544,0.7007,0.7331,0.7576,0.7731,0.7909,0.8161,0.8384,0.8906,0.9653,1.0094,1.0318,1.0203,1.0172,1.0279,1.0484,1.0612,1.0842,1.1166,1.123,1.1302,1.1423,1.1436,1.1443,1.1487,1.1634,1.1785,1.1639,1.1526,1.1678,1.1663,1.1439,1.1303,1.1316,1.1161,1.0886,1.0531,1.0165,1.0252,1.0189,0.995,0.9777,0.9987,1.0127,0.9987,0.9733,0.9689,0.9602,0.9689,0.9777,0.9747,0.0133,0.0,0.0,0.0,0.0,0.0,0.0,0.0,0.0,0.0,0.0,-0.0494,-0.0618,-0.0618,-0.1173,-0.1235,-0.0803,-0.0741,-0.0556,-0.0247,0.0,0.0,0.0,0.0,-0.0185,-0.0247,-0.0371,0.0,0.0,-0.0181,-0.0119,0.0,0.0,0.0,0.0,0.0,0.0,0.0,0.0,0.0,0.0,0.0,0.0,0.0224,0.0224,0.0336,0.0504,0.0617,0.0897,0.129,0.1795,0.2132,0.2412,0.2692,0.3027,0.325,0.3362,0.3586,0.3918,0.4109,0.4421,0.5017,0.5349,0.5848,0.6374,0.6877,0.7262,0.7468,0.7753,0.7959,0.8156,0.8471,0.9001,0.9538,1.0122,1.0371,1.0245,1.03,1.0416,1.0564,1.0668,1.0724,1.1075,1.0918,1.092,1.0956,1.1018,1.1016,1.1096,1.1292,1.1438,1.1394,1.134,1.1438,1.1536,1.137,1.1258,1.1245,1.101,1.0762,1.0478,1.0006,0.999,0.999,0.9689,0.956,0.9841,0.9958,0.9701,0.9563,0.9602,0.9572,0.9581,0.9648,0.9609,0.0329,0.0,0.0,0.0,0.0,0.0,0.0,0.0,0.0,0.0,0.0,-0.0679,-0.0741,-0.0618,-0.1235,-0.1359,-0.105,-0.0865,-0.0618,-0.0371,-0.0185,0.0,0.0,-0.0371,-0.0432,-0.0494,-0.0803,-0.0679,-0.0492,-0.0425,-0.0302,0.0,0.0,0.0,0.0,0.0,0.0,0.0,0.0,0.0,0.0,0.0,0.0,0.0,0.0,0.0,0.0,0.028,0.0617,0.1177,0.1514,0.1963,0.2468,0.2525,0.2917,0.3309,0.325,0.3418,0.3868,0.4198,0.4531,0.486,0.5361,0.5877,0.6253,0.6735,0.7177,0.7357,0.7935,0.8043,0.8304,0.8787,0.9165,0.95,0.9941,1.0135,1.0208,1.0427,1.0636,1.0627,1.0703,1.0723,1.0696,1.0573,1.0447,1.0887,1.0857,1.077,1.0752,1.09,1.1149,1.1345,1.1296,1.1243,1.134,1.134,1.1287,1.1195,1.0805,1.0564,1.051,1.0177,1.0012,0.9839,0.9665,0.962,0.975,0.9696,0.9433,0.9416,0.9504,0.9305,0.9111,0.9226,0.9283,0.0458,0.0389,0.0127,0.0,0.0,0.0,0.0,0.0,0.0,0.0,0.0,-0.0432,-0.0741,-0.0865,-0.1297,-0.1482,-0.1359,-0.1235,-0.105,-0.0494,-0.0185,-0.0185,-0.0371,-0.0494,-0.0494,-0.0556,-0.0556,-0.0556,-0.0492,-0.0366,-0.0241,-0.0362,-0.0119,-0.0119,-0.0361,0.0,0.0,0.0,0.0,0.0,0.0,0.0,0.0,0.0,0.0,0.0,0.0,0.0056,0.028,0.0617,0.1123,0.152,0.174,0.2077,0.2527,0.2861,0.3083,0.325,0.3643,0.398,0.426,0.4592,0.5094,0.5594,0.5933,0.6437,0.6768,0.6935,0.7243,0.7656,0.8097,0.8608,0.9037,0.9373,0.9508,0.968,0.9887,1.0345,1.06,1.065,1.0667,1.0779,1.0907,1.0637,1.0608,1.0779,1.0714,1.0511,1.0524,1.0587,1.082,1.1124,1.11,1.1051,1.1149,1.1149,1.1047,1.0949,1.0587,1.0378,1.033,1.0148,0.9857,0.9743,0.9685,0.9688,0.9644,0.9578,0.937,0.9387,0.9441,0.9311,0.9217,0.9163,0.9128,0.065,0.0451,0.0126,0.0,0.0,0.0,0.0,0.0,0.0,0.0,0.0,-0.0494,-0.0803,-0.105,-0.1483,-0.173,-0.1668,-0.1544,-0.1112,-0.0618,-0.0432,-0.0494,-0.0556,-0.0803,-0.0988,-0.0988,-0.1173,-0.1112,-0.0924,-0.0674,-0.061,-0.0671,-0.0242,-0.0303,-0.0609,-0.0427,0.0,0.0,-0.0242,-0.0239,-0.0236,0.0,0.0,0.0,0.0,0.0,0.0,0.0,0.0,0.0344,0.0803,0.1252,0.1522,0.1865,0.2205,0.264,0.2636,0.2915,0.3251,0.3643,0.3923,0.4258,0.4817,0.5262,0.5596,0.6044,0.6437,0.6712,0.7043,0.7487,0.8152,0.8598,0.8992,0.9103,0.9323,0.9489,0.9651,1.0143,1.0527,1.0511,1.0532,1.0604,1.063,1.0587,1.0475,1.0509,1.0638,1.0505,1.0484,1.053,1.0686,1.0861,1.0873,1.0855,1.0953,1.0904,1.0752,1.0605,1.0391,1.0213,1.0175,0.9931,0.965,0.9603,0.9622,0.9427,0.9396,0.9299,0.9319,0.9276,0.9281,0.934,0.9346,0.9225,0.9267,0.0838,0.0449,0.0125,0.0,0.0,0.0,0.0,0.0,0.0,0.0,-0.0124,-0.0679,-0.0926,-0.1173,-0.1606,-0.1915,-0.1915,-0.1668,-0.1173,-0.0803,-0.0865,-0.0803,-0.0865,-0.1173,-0.1483,-0.1606,-0.1668,-0.1606,-0.142,-0.1173,-0.0985,-0.0925,-0.0432,-0.0492,-0.0863,-0.0679,-0.0493,-0.0554,-0.0488,-0.0423,-0.042,0.0,0.0,0.0,0.0,0.0,0.0,0.0,0.0,0.0,0.0591,0.1105,0.1545,0.1828,0.201,0.2606,0.2497,0.272,0.3163,0.355,0.3886,0.4099,0.4596,0.5041,0.5375,0.571,0.6102,0.6601,0.699,0.7543,0.8263,0.8598,0.8768,0.8878,0.9103,0.9268,0.9434,0.9816,1.0091,1.0351,1.0467,1.0586,1.0551,1.0428,1.0331,1.0253,1.0441,1.0534,1.0455,1.0386,1.0484,1.0524,1.048,1.0609,1.0659,1.056,1.0462,1.0364,1.0167,1.006,0.9998,0.9836,0.9635,0.9615,0.9561,0.9422,0.9321,0.9309,0.9259,0.9192,0.92,0.9246,0.9266,0.923,0.938,0.0577,0.0443,0.0124,0.0,0.0,0.0,0.0,0.0,0.0,0.0,-0.0371,-0.0556,-0.0926,-0.1359,-0.1483,-0.173,-0.1915,-0.1668,-0.1482,-0.1235,-0.1235,-0.1111,-0.1359,-0.1482,-0.1729,-0.1791,-0.1791,-0.1606,-0.1483,-0.1173,-0.1235,-0.1235,-0.0741,-0.0741,-0.105,-0.0865,-0.0741,-0.0865,-0.0738,-0.0611,-0.0544,0.0,0.0,0.0,0.0,0.0,0.0,0.0,0.0,0.0,0.0,0.095,0.1234,0.1585,0.1992,0.2273,0.25,0.2659,0.3095,0.3662,0.4088,0.4389,0.4714,0.4992,0.5328,0.5659,0.5935,0.6439,0.7051,0.7604,0.7718,0.8269,0.854,0.8654,0.8823,0.8992,0.9103,0.9379,0.9816,1.0084,1.0382,1.0627,1.055,1.0485,1.0375,1.031,1.0322,1.0314,1.0158,1.0094,1.0087,1.0129,1.0072,1.0265,1.0408,1.0265,1.0117,1.0167,1.0019,0.992,0.9817,0.9723,0.9649,0.9546,0.9534,0.9534,0.9429,0.9275,0.931,0.9356,0.9284,0.9157,0.9314,0.946,0.9581,0.0515,0.0446,0.0125,0.0,0.0,0.0,0.0,0.0,0.0,-0.0185,-0.0494,-0.0679,-0.105,-0.1482,-0.173,-0.1853,-0.1915,-0.1853,-0.1668,-0.1544,-0.1666,-0.1727,-0.179,-0.1913,-0.2098,-0.216,-0.1914,-0.1729,-0.173,-0.142,-0.1482,-0.1544,-0.1112,-0.1112,-0.1483,-0.1297,-0.1112,-0.1173,-0.1111,-0.0985,-0.0976,-0.0667,-0.042,0.0,0.0,0.0,0.0,0.0,0.0,0.0,0.0,0.0911,0.115,0.1506,0.1978,0.2132,0.23,0.2585,0.2913,0.3316,0.3593,0.4088,0.4507,0.477,0.5038,0.5356,0.5828,0.6328,0.7054,0.7607,0.7662,0.7989,0.8263,0.8484,0.8598,0.8768,0.8937,0.9213,0.9544,0.9871,1.0186,1.0394,1.0668,1.056,1.0474,1.0425,1.0315,1.0163,0.9988,0.9872,0.9878,0.9979,1.0028,1.0057,1.0173,1.0099,0.9962,1.0,0.9987,0.9838,0.9726,0.9647,0.9516,0.9337,0.9414,0.9492,0.9381,0.922,0.9361,0.9474,0.9364,0.9319,0.9526,0.9682,0.9768,0.0385,0.0383,0.0125,0.0,0.0,0.0,0.0,0.0,0.0,-0.0247,-0.0618,-0.0865,-0.1235,-0.1606,-0.1853,-0.2038,-0.2038,-0.1977,-0.1853,-0.1791,-0.216,-0.2281,-0.2159,-0.2344,-0.253,-0.2222,-0.2221,-0.2038,-0.1915,-0.173,-0.1791,-0.173,-0.1359,-0.1359,-0.1791,-0.1606,-0.1544,-0.1483,-0.1483,-0.1483,-0.1292,-0.0977,-0.0606,0.0,0.0,0.0,0.0,0.0,0.0,0.0,0.0617,0.0987,0.1111,0.1667,0.1954,0.1914,0.1964,0.2316,0.2662,0.3016,0.3357,0.3956,0.4332,0.4593,0.4896,0.5352,0.5826,0.6328,0.6993,0.7493,0.7493,0.7768,0.7989,0.8208,0.8374,0.8595,0.8768,0.9047,0.9268,0.9599,0.9926,1.0143,1.0304,1.0355,1.0198,1.014,1.0089,1.0108,0.994,0.9803,0.978,0.9953,0.9996,0.9967,0.9992,1.0016,0.9944,1.0024,1.0015,0.9965,0.9777,0.9597,0.9461,0.9295,0.9314,0.9356,0.9229,0.9167,0.934,0.9462,0.9437,0.9506,0.9567,0.971,0.9801,0.0063,0.0,0.0,0.0,0.0,0.0,0.0,0.0,0.0,0.0,-0.0926,-0.0988,-0.1359,-0.1791,-0.1976,-0.2038,-0.2038,-0.21,-0.2038,-0.2037,-0.2406,-0.2406,-0.2161,-0.2653,-0.2654,-0.2407,-0.2406,-0.2222,-0.2099,-0.1977,-0.1915,-0.1915,-0.1668,-0.1606,-0.1853,-0.1668,-0.1483,-0.1483,-0.1483,-0.1235,-0.0741,-0.0369,-0.0185,0.0,0.0,0.0,0.0,0.0,0.0,0.0,0.0618,0.0988,0.1112,0.1606,0.1914,0.209,0.2268,0.2561,0.2833,0.3065,0.345,0.3922,0.4329,0.4676,0.4976,0.5579,0.6123,0.6274,0.6882,0.7268,0.7324,0.7493,0.766,0.7881,0.8211,0.8374,0.8598,0.8881,0.9103,0.9213,0.9544,0.9651,0.9812,0.9868,0.9864,0.9868,0.9849,0.9926,0.9989,0.9898,0.9827,0.9953,1.004,1.0015,1.002,0.9984,1.002,1.0018,1.0018,1.0018,0.9883,0.9745,0.9442,0.9316,0.9278,0.9198,0.9115,0.9148,0.93,0.942,0.9478,0.9502,0.9608,0.9677,0.9826,0.0,0.0,0.0,0.0,0.0,0.0,-0.0124,-0.0247,-0.0309,-0.0679,-0.1235,-0.1297,-0.1544,-0.1975,-0.216,-0.2283,-0.2345,-0.2467,-0.2468,-0.2406,-0.2714,-0.2838,-0.2777,-0.3023,-0.3024,-0.2901,-0.2776,-0.2776,-0.2469,-0.2162,-0.2038,-0.1977,-0.1853,-0.1668,-0.1791,-0.1606,-0.1544,-0.1544,-0.1606,-0.1359,-0.0741,-0.0494,-0.0371,0.0,0.0,0.0,0.0,0.0,0.0,0.0,0.0679,0.0988,0.1173,0.1606,0.1977,0.2038,0.2099,0.246,0.2874,0.3115,0.3433,0.3855,0.421,0.4493,0.4978,0.5647,0.6214,0.6277,0.6659,0.6932,0.7154,0.7268,0.7438,0.766,0.7989,0.8266,0.8488,0.8768,0.8992,0.9047,0.9106,0.9268,0.943,0.9596,0.9651,0.9596,0.9647,0.9713,0.9907,1.0081,1.0047,1.0042,1.0082,1.0098,1.0102,1.0135,1.0147,1.0128,1.0123,1.0123,1.0076,0.9908,0.9559,0.9276,0.9179,0.9079,0.9,0.9057,0.9198,0.9335,0.9476,0.9579,0.9628,0.9776,0.9924,0.0,0.0,0.0,0.0,0.0,0.0,-0.0185,-0.0494,-0.0494,-0.0865,-0.1359,-0.1606,-0.1788,-0.1965,-0.2206,-0.2321,-0.2437,-0.2755,-0.2759,-0.2822,-0.314,-0.3208,-0.3146,-0.3331,-0.3517,-0.3391,-0.3208,-0.3023,-0.2838,-0.2592,-0.2285,-0.216,-0.1976,-0.1853,-0.173,-0.1668,-0.1606,-0.1483,-0.1483,-0.1112,-0.0618,-0.0618,-0.0371,0.0,0.0,0.0,0.0,0.0,0.0,0.0,0.0618,0.0988,0.1112,0.1606,0.1977,0.2038,0.2038,0.2283,0.271,0.2951,0.3302,0.368,0.416,0.4596,0.4982,0.5616,0.6068,0.6214,0.6449,0.672,0.6988,0.7046,0.7213,0.7438,0.7715,0.8045,0.8322,0.8546,0.8826,0.8937,0.8992,0.8992,0.9158,0.9375,0.943,0.9323,0.9372,0.9475,0.9734,1.0031,0.9987,0.9883,1.0036,1.0064,1.0132,1.0193,1.0197,1.0209,1.0209,1.0132,1.0065,0.9853,0.9534,0.9288,0.9124,0.8974,0.8914,0.9026,0.9084,0.9256,0.9381,0.9579,0.9677,0.9826,0.9875,0.0,0.0,0.0,0.0,0.0,0.0,-0.0185,-0.0556,-0.0556,-0.0926,-0.1544,-0.179,-0.19,-0.1942,-0.2057,-0.2225,-0.2312,-0.24,-0.2652,-0.2972,-0.3241,-0.3311,-0.3311,-0.3433,-0.3626,-0.3257,-0.3309,-0.3251,-0.3081,-0.3011,-0.2709,-0.2467,-0.2222,-0.2038,-0.1915,-0.1791,-0.1668,-0.142,-0.1235,-0.0926,-0.0556,-0.0432,-0.0185,-0.0124,0.0,0.0,0.0,0.0,0.0,0.0062,0.068,0.1052,0.1177,0.1669,0.1977,0.2038,0.2038,0.2223,0.2468,0.2835,0.3121,0.356,0.4106,0.4708,0.5008,0.5592,0.5972,0.6055,0.6266,0.651,0.6664,0.6771,0.6993,0.7296,0.7577,0.7771,0.8103,0.8322,0.8546,0.8826,0.8881,0.8826,0.8937,0.9158,0.921,0.9103,0.932,0.9475,0.9508,0.9695,0.9598,0.9606,0.988,1.0022,1.0099,1.0172,1.0419,1.0385,1.0285,1.0112,0.9945,0.9712,0.9529,0.9388,0.9219,0.9019,0.8874,0.8968,0.9089,0.9164,0.9286,0.943,0.9579,0.9727,0.9677,0.0,0.0,-0.0185,-0.0309,-0.0309,-0.0494,-0.0803,-0.105,-0.1112,-0.1359,-0.1791,-0.1914,-0.196,-0.1998,-0.235,-0.2452,-0.248,-0.3079,-0.3029,-0.3093,-0.3288,-0.3418,-0.3477,-0.3545,-0.3718,-0.3544,-0.3602,-0.3683,-0.3586,-0.335,-0.3249,-0.3012,-0.2528,-0.2038,-0.1853,-0.173,-0.1544,-0.142,-0.1297,-0.1235,-0.0865,-0.0926,-0.0741,-0.0309,-0.0309,-0.0185,0.0,0.0,0.0,0.0374,0.0744,0.0994,0.1309,0.1737,0.1979,0.2039,0.2038,0.21,0.2284,0.2713,0.3186,0.3691,0.4193,0.4583,0.4909,0.5323,0.5679,0.5853,0.601,0.62,0.6701,0.6766,0.6842,0.722,0.7446,0.7633,0.7826,0.8045,0.8322,0.8546,0.8657,0.8709,0.8823,0.8937,0.8937,0.8937,0.9206,0.9412,0.9457,0.9472,0.9403,0.9478,0.98,0.9996,1.0128,1.0354,1.0641,1.0531,1.0366,1.0147,0.9871,0.9809,0.9691,0.9505,0.9367,0.923,0.9147,0.9069,0.9078,0.9176,0.9226,0.9282,0.943,0.9557,0.9508,-0.0124,-0.0185,-0.0618,-0.0679,-0.0556,-0.0865,-0.1173,-0.1483,-0.1483,-0.1668,-0.1977,-0.1975,-0.2015,-0.2168,-0.2454,-0.2716,-0.2799,-0.3204,-0.3271,-0.3398,-0.3527,-0.3647,-0.3592,-0.3656,-0.3786,-0.3827,-0.3831,-0.3801,-0.3773,-0.361,-0.3395,-0.3178,-0.2955,-0.2468,-0.1975,-0.1667,-0.1483,-0.1359,-0.1483,-0.1606,-0.105,-0.1112,-0.1173,-0.068,-0.062,-0.0496,-0.0248,0.0,0.0,0.0439,0.0815,0.1126,0.1503,0.1751,0.1986,0.2042,0.2039,0.204,0.2162,0.259,0.3255,0.3776,0.4192,0.4465,0.4729,0.5053,0.5483,0.5847,0.5871,0.5993,0.6644,0.6598,0.6714,0.7031,0.7333,0.7519,0.7624,0.7826,0.8045,0.8263,0.8429,0.8595,0.8709,0.8823,0.8992,0.8992,0.9047,0.9265,0.9409,0.9387,0.9332,0.9475,0.9713,0.9955,1.0143,1.0421,1.0586,1.0421,1.0257,1.0036,0.9875,0.9761,0.9655,0.9508,0.9428,0.9468,0.9345,0.9137,0.9184,0.9257,0.9348,0.9509,0.9314,0.9443,0.9411,-0.0494,-0.0556,-0.1173,-0.105,-0.0617,-0.0864,-0.1235,-0.1543,-0.1541,-0.1727,-0.1975,-0.2034,-0.2122,-0.2256,-0.2421,-0.267,-0.2963,-0.3203,-0.3334,-0.3515,-0.3598,-0.3749,-0.3752,-0.3745,-0.3795,-0.3764,-0.3763,-0.3762,-0.3849,-0.3838,-0.3501,-0.3282,-0.3192,-0.2962,-0.2468,-0.2161,-0.1791,-0.1544,-0.1544,-0.1359,-0.1235,-0.1173,-0.1173,-0.1052,-0.0938,-0.075,-0.0436,-0.0188,0.0063,0.0445,0.0823,0.1138,0.139,0.1706,0.188,0.1917,0.1983,0.2045,0.2041,0.2657,0.3211,0.3822,0.4183,0.4531,0.4836,0.5161,0.5456,0.582,0.571,0.58,0.6107,0.6378,0.6659,0.6862,0.7111,0.7228,0.734,0.748,0.7656,0.7976,0.8279,0.8484,0.8598,0.8768,0.8992,0.9051,0.8995,0.9103,0.9268,0.9268,0.9158,0.9268,0.9541,0.9816,1.0036,1.0421,1.0527,1.0312,1.0147,0.9926,0.9655,0.9379,0.9323,0.9379,0.9423,0.9395,0.93,0.9189,0.9219,0.9259,0.9675,0.9808,0.9549,0.9356,0.932,-0.0309,-0.0556,-0.0988,-0.1166,-0.1158,-0.1477,-0.173,-0.1788,-0.1835,-0.1835,-0.2026,-0.2119,-0.2207,-0.2356,-0.2675,-0.2865,-0.2933,-0.3371,-0.3562,-0.334,-0.3535,-0.3643,-0.3651,-0.3666,-0.3677,-0.3702,-0.3714,-0.3763,-0.3834,-0.3913,-0.3826,-0.3674,-0.338,-0.3082,-0.259,-0.216,-0.1915,-0.1853,-0.1853,-0.1791,-0.1668,-0.1606,-0.1545,-0.1361,-0.1129,-0.0882,-0.0565,-0.0254,0.0128,0.0452,0.0773,0.1025,0.1216,0.1536,0.1646,0.1752,0.1877,0.2162,0.2281,0.2716,0.307,0.3686,0.4154,0.4504,0.4865,0.5163,0.5429,0.565,0.56,0.5816,0.6189,0.6357,0.6525,0.6686,0.6832,0.6772,0.684,0.7007,0.7174,0.7652,0.8015,0.8285,0.8429,0.8543,0.8768,0.8881,0.8771,0.8881,0.9047,0.9047,0.8992,0.9103,0.9268,0.9544,0.9875,1.0202,1.0527,1.0472,1.0147,0.9871,0.9544,0.9213,0.9268,0.9489,0.9434,0.9316,0.9281,0.9253,0.9187,0.9273,0.9674,0.9723,0.9373,0.9276,0.9317,-0.0492,-0.0674,-0.1103,-0.1396,-0.1622,-0.1826,-0.1956,-0.1945,-0.1934,-0.1938,-0.1995,-0.2199,-0.2349,-0.2567,-0.2888,-0.3246,-0.3032,-0.3365,-0.3533,-0.3306,-0.3477,-0.3597,-0.3595,-0.3594,-0.3636,-0.3664,-0.3689,-0.3732,-0.3874,-0.3908,-0.389,-0.3747,-0.3394,-0.3022,-0.259,-0.2407,-0.2099,-0.2038,-0.1977,-0.1977,-0.1977,-0.1916,-0.1859,-0.1686,-0.1451,-0.1209,-0.0703,-0.0258,0.0131,0.0393,0.0719,0.0909,0.1039,0.1295,0.1476,0.1591,0.1845,0.2261,0.2456,0.2544,0.2909,0.3557,0.3932,0.4261,0.4621,0.4828,0.5115,0.533,0.546,0.5714,0.5957,0.6116,0.6378,0.6542,0.6555,0.6556,0.6529,0.6702,0.6821,0.7307,0.7685,0.7967,0.8263,0.8322,0.8436,0.8491,0.8546,0.8712,0.8881,0.8881,0.8937,0.8992,0.9158,0.9434,0.9651,0.9926,1.0198,1.0527,1.0198,0.9761,0.9651,0.943,0.9489,0.9489,0.9323,0.9213,0.9265,0.9251,0.9233,0.9308,0.945,0.9413,0.9083,0.9193,0.9361,-0.0917,-0.1027,-0.1628,-0.1853,-0.1892,-0.1914,-0.1911,-0.189,-0.1915,-0.1911,-0.1947,-0.2237,-0.2505,-0.2767,-0.3101,-0.3297,-0.3485,-0.3589,-0.3587,-0.3587,-0.3587,-0.359,-0.3598,-0.3604,-0.3711,-0.3736,-0.371,-0.3759,-0.3789,-0.3852,-0.3907,-0.369,-0.3145,-0.2837,-0.2715,-0.253,-0.2222,-0.2099,-0.2038,-0.2038,-0.2038,-0.1977,-0.1924,-0.1817,-0.1652,-0.1347,-0.0969,-0.0653,-0.0197,0.0132,0.0528,0.0725,0.0988,0.1318,0.1437,0.1688,0.1942,0.2215,0.249,0.2445,0.2616,0.3069,0.3319,0.378,0.425,0.455,0.4848,0.5091,0.5253,0.5391,0.551,0.5866,0.6277,0.638,0.6459,0.6422,0.6397,0.6473,0.6584,0.692,0.7278,0.7616,0.7937,0.8048,0.8156,0.8159,0.8269,0.8546,0.8712,0.8881,0.8881,0.8937,0.9103,0.9323,0.9541,0.9706,0.9926,1.0198,1.0036,0.9651,0.9596,0.9541,0.943,0.9323,0.9106,0.9051,0.9103,0.9268,0.9375,0.9446,0.957,0.9454,0.9331,0.9345,0.9409,-0.0848,-0.1266,-0.149,-0.1646,-0.1857,-0.2096,-0.2106,-0.1944,-0.2051,-0.2162,-0.2237,-0.2643,-0.2915,-0.31,-0.3349,-0.3493,-0.3594,-0.3587,-0.3587,-0.3587,-0.3645,-0.3616,-0.3635,-0.371,-0.3772,-0.383,-0.3867,-0.3822,-0.3884,-0.3921,-0.3615,-0.3207,-0.3146,-0.29,-0.2591,-0.2406,-0.2222,-0.2099,-0.2038,-0.2038,-0.1977,-0.1977,-0.1863,-0.1755,-0.1467,-0.1159,-0.078,-0.0331,0.0067,0.0067,0.0401,0.0534,0.0264,0.0864,0.1332,0.1929,0.2116,0.2174,0.2257,0.228,0.2376,0.2692,0.2825,0.3282,0.3884,0.4378,0.4687,0.4808,0.5053,0.5176,0.5403,0.5716,0.5983,0.608,0.6167,0.6206,0.6175,0.6181,0.635,0.6762,0.7124,0.7393,0.7715,0.7826,0.7934,0.7881,0.7998,0.8285,0.8553,0.8722,0.8881,0.8937,0.8992,0.9158,0.9323,0.9485,0.9651,0.9816,0.9651,0.9541,0.9485,0.9375,0.9268,0.9213,0.9161,0.9051,0.8937,0.9158,0.9379,0.971,0.9845,0.9695,0.9585,0.9523,0.9381,-0.0898,-0.1361,-0.1407,-0.1561,-0.1825,-0.2279,-0.2351,-0.2251,-0.2361,-0.2425,-0.2537,-0.2887,-0.3155,-0.3175,-0.3436,-0.3645,-0.3757,-0.3813,-0.3868,-0.3979,-0.3815,-0.3966,-0.3943,-0.3864,-0.3864,-0.3938,-0.393,-0.3875,-0.3935,-0.3888,-0.364,-0.3331,-0.3331,-0.2839,-0.2469,-0.2284,-0.2161,-0.21,-0.2038,-0.2038,-0.1978,-0.1918,-0.1677,-0.1509,-0.1153,-0.0841,-0.0524,0.0,0.0,0.0,0.0269,0.0201,0.0133,0.0737,0.1413,0.2014,0.214,0.2202,0.2208,0.2176,0.2343,0.2442,0.2524,0.2989,0.346,0.4009,0.4195,0.4441,0.4747,0.5047,0.5323,0.554,0.5716,0.5831,0.5933,0.5976,0.5932,0.5884,0.6206,0.6617,0.6984,0.7299,0.7493,0.7662,0.7721,0.7674,0.7827,0.8211,0.8457,0.8579,0.8784,0.8881,0.8937,0.8992,0.9161,0.9279,0.9386,0.9551,0.9544,0.9434,0.9379,0.9323,0.9213,0.9268,0.9272,0.9161,0.8937,0.9158,0.9434,0.971,0.9765,0.9544,0.9489,0.9636,0.9398,-0.1004,-0.1324,-0.1378,-0.1594,-0.191,-0.2472,-0.2698,-0.2754,-0.2736,-0.2733,-0.2814,-0.3029,-0.3197,-0.3317,-0.3533,-0.3811,-0.3923,-0.398,-0.4049,-0.4433,-0.4227,-0.4159,-0.4103,-0.4051,-0.3966,-0.408,-0.4059,-0.3907,-0.3936,-0.3888,-0.3765,-0.3517,-0.3208,-0.2838,-0.2467,-0.216,-0.2041,-0.205,-0.1988,-0.1987,-0.1925,-0.1742,-0.1505,-0.1409,-0.1101,-0.0849,-0.0532,-0.0336,-0.0269,-0.0067,0.0,0.0067,0.0403,0.0807,0.1548,0.1952,0.215,0.2218,0.2212,0.212,0.2287,0.2388,0.2546,0.2825,0.3238,0.3645,0.3888,0.415,0.4462,0.4711,0.4938,0.5206,0.5373,0.5616,0.5732,0.5851,0.5899,0.5885,0.6127,0.6498,0.6665,0.6997,0.7223,0.7409,0.7474,0.7429,0.7613,0.8025,0.8357,0.8514,0.8722,0.8917,0.9001,0.9011,0.9043,0.9154,0.913,0.9234,0.9303,0.9369,0.9293,0.9262,0.9213,0.9213,0.9158,0.9106,0.9051,0.9213,0.9379,0.9489,0.9489,0.9268,0.9323,0.9541,0.9379,-0.0869,-0.1378,-0.1362,-0.1632,-0.2133,-0.2525,-0.2805,-0.3027,-0.3264,-0.321,-0.3085,-0.3307,-0.3587,-0.3699,-0.3643,-0.3867,-0.4257,-0.4206,-0.4126,-0.4312,-0.438,-0.4378,-0.4198,-0.4254,-0.4148,-0.3964,-0.3932,-0.3929,-0.3883,-0.3888,-0.3765,-0.3518,-0.3151,-0.2844,-0.2473,-0.2166,-0.1992,-0.2007,-0.2014,-0.2014,-0.1952,-0.1906,-0.1798,-0.136,-0.0976,-0.0656,-0.0333,-0.0134,0.0067,0.0269,0.0135,0.0337,0.0808,0.1279,0.1683,0.2087,0.2222,0.2222,0.2148,0.2129,0.2231,0.2197,0.2295,0.2655,0.2944,0.3289,0.3653,0.392,0.4179,0.4429,0.4605,0.4875,0.5149,0.5336,0.5523,0.5718,0.5849,0.5983,0.6044,0.6215,0.6392,0.6664,0.6949,0.713,0.7203,0.7327,0.7451,0.7768,0.8232,0.8487,0.8852,0.9043,0.9147,0.912,0.9086,0.9069,0.9185,0.9198,0.9279,0.9279,0.9268,0.9206,0.9151,0.9006,0.8937,0.894,0.9051,0.9217,0.9323,0.9323,0.9323,0.9213,0.9213,0.9379,0.9213,-0.0859,-0.1193,-0.1408,-0.1795,-0.2244,-0.2692,-0.3027,-0.3306,-0.3531,-0.3475,-0.3362,-0.3531,-0.3699,-0.3868,-0.3813,-0.4035,-0.448,-0.4426,-0.4613,-0.4703,-0.4631,-0.4751,-0.4651,-0.4538,-0.466,-0.4473,-0.4187,-0.4069,-0.395,-0.3888,-0.3765,-0.3522,-0.3159,-0.2863,-0.2493,-0.2193,-0.2019,-0.2039,-0.2048,-0.1991,-0.1861,-0.1807,-0.1621,-0.1107,-0.0787,-0.0462,-0.0133,0.0134,0.0336,0.0539,0.0471,0.0808,0.1212,0.1481,0.1818,0.2087,0.2222,0.2222,0.2149,0.2202,0.2173,0.2205,0.2311,0.2678,0.3152,0.3504,0.3712,0.3979,0.4082,0.4267,0.444,0.4719,0.4995,0.5289,0.5404,0.5588,0.5744,0.5912,0.6002,0.6116,0.6374,0.672,0.7008,0.724,0.7314,0.7447,0.7591,0.7774,0.819,0.8496,0.8875,0.9153,0.92,0.9279,0.9249,0.9228,0.9215,0.9232,0.9256,0.9313,0.9356,0.9176,0.9035,0.9018,0.8984,0.8937,0.9047,0.9158,0.9158,0.9103,0.9158,0.9268,0.9268,0.9213,0.9106,-0.0852,-0.101,-0.1514,-0.1963,-0.23,-0.2802,-0.325,-0.3531,-0.3587,-0.3587,-0.3587,-0.3643,-0.3643,-0.3811,-0.3924,-0.4258,-0.4536,-0.4706,-0.4994,-0.5075,-0.5021,-0.4958,-0.4971,-0.4959,-0.4983,-0.4857,-0.4637,-0.43,-0.401,-0.3999,-0.3871,-0.3523,-0.3181,-0.2833,-0.2596,-0.2296,-0.2053,-0.207,-0.2085,-0.1973,-0.1771,-0.1568,-0.1311,-0.0988,-0.0661,-0.0333,0.0,0.0202,0.0404,0.0808,0.101,0.1279,0.1481,0.1683,0.1885,0.2155,0.2222,0.2222,0.2221,0.2218,0.2316,0.2415,0.2529,0.2831,0.331,0.3565,0.3777,0.3974,0.4015,0.411,0.4347,0.4565,0.4845,0.5237,0.5349,0.5525,0.5724,0.5864,0.593,0.6103,0.6339,0.669,0.6982,0.7274,0.7514,0.7645,0.7794,0.8036,0.8264,0.8525,0.8846,0.9124,0.9285,0.9323,0.937,0.9364,0.9272,0.9388,0.9408,0.9408,0.9378,0.9266,0.9171,0.9166,0.9069,0.9008,0.8954,0.8992,0.8937,0.894,0.8992,0.9103,0.9047,0.9047,0.8992,-0.0787,-0.1234,-0.1346,-0.1851,-0.2525,-0.275,-0.3083,-0.3531,-0.3587,-0.3587,-0.3643,-0.3868,-0.4036,-0.4311,-0.4369,-0.4594,-0.4931,-0.5044,-0.4981,-0.5023,-0.5221,-0.5134,-0.5088,-0.5172,-0.5062,-0.4922,-0.4766,-0.4531,-0.4173,-0.4153,-0.4086,-0.3766,-0.3214,-0.2934,-0.2842,-0.2485,-0.2061,-0.2088,-0.2108,-0.1989,-0.1939,-0.1669,-0.1204,-0.0871,-0.0536,-0.0269,-0.0067,0.0067,0.0471,0.0943,0.1548,0.1683,0.1818,0.1885,0.2087,0.2155,0.2222,0.2222,0.2222,0.2222,0.2325,0.23,0.242,0.2813,0.3252,0.3643,0.3863,0.4155,0.4188,0.4125,0.4223,0.4358,0.4632,0.5079,0.5358,0.5602,0.5825,0.5878,0.5916,0.6079,0.6319,0.6621,0.6984,0.7281,0.7577,0.7706,0.7823,0.8055,0.8234,0.8517,0.8793,0.8997,0.9252,0.944,0.9532,0.9417,0.9384,0.9451,0.9564,0.9561,0.952,0.9422,0.9334,0.933,0.9228,0.9093,0.9035,0.8984,0.8947,0.895,0.894,0.8937,0.8937,0.8937,0.8937]}]]